Date StartTime U_cm/s V_cm/s W_cm/s Ustd_cm/s Vstd_cm/s Wstd_cm/s Uvar_(cm/s)^2 Vvar_(cm/s)^2 Wvar_(cm/s)^2 KE_(m/s)^2 TurbulentKE_(m/s)^2 HorizWindSpeed_cm/s FrictionSpeec_cm/s DragCoef SpeedOfSound_m/s SonicTemperature_C Pressure_mb 
04/16/2014  00:00:00      -93.562       52.556       -2.709       50.352       63.682       43.396     2535.337     4055.453     1883.178        1.000        0.424      107.313       44.718        0.174      340.918       15.270      858.770
04/16/2014  00:01:00     -117.340      145.663      -32.952       53.091       46.984       32.787     2818.613     2207.507     1074.959        2.109        0.305      187.046       29.638        0.025      340.799       15.068      858.774
04/16/2014  00:02:00     -123.745      148.616      -29.635       62.769       88.494       36.931     3940.009     7831.246     1363.879        2.570        0.657      193.390       40.546        0.044      340.823       15.106      858.792
04/16/2014  00:03:00     -125.759      144.499      -23.205       50.988       64.641       34.633     2599.741     4178.426     1199.477        2.260        0.399      191.560       27.895        0.021      340.807       15.080      858.811
04/16/2014  00:04:00     -147.141      140.739      -31.882       77.976       80.468       43.851     6080.333     6475.023     1922.887        2.847        0.724      203.612       46.135        0.051      340.839       15.136      858.819
04/16/2014  00:05:00     -114.653      248.784      -25.318       72.165       82.662       47.988     5207.774     6833.069     2302.881        4.501        0.717      273.932       32.800        0.014      340.750       14.983      858.837
04/16/2014  00:06:00     -148.981      171.682      -24.347       60.962       97.190       45.783     3716.402     9445.950     2096.087        3.376        0.763      227.310       48.104        0.045      340.759       15.000      858.852
04/16/2014  00:07:00     -168.634      194.972      -38.715       78.341       78.342       47.381     6137.248     6137.489     2244.912        4.123        0.726      257.782       45.706        0.031      340.754       14.989      858.852
04/16/2014  00:08:00     -141.712      187.644      -34.841       56.118       96.488       52.435     3149.252     9309.884     2749.394        3.585        0.760      235.144       40.311        0.029      340.771       15.020      858.853
04/16/2014  00:09:00     -141.202      170.343      -22.307       77.117      103.549       46.130     5947.082    10722.462     2127.982        3.412        0.940      221.257       52.682        0.057      340.819       15.102      858.856
04/16/2014  00:10:00     -122.028      156.223      -21.342       61.056       66.861       42.896     3727.881     4470.383     1840.035        2.489        0.502      198.233       34.594        0.030      340.810       15.085      858.866
04/16/2014  00:11:00     -194.249      236.559      -45.856       70.238       84.424       59.434     4933.331     7127.485     3532.434        5.569        0.780      306.093       48.460        0.025      340.836       15.129      858.892
04/16/2014  00:12:00     -185.545      191.486      -40.505       85.846       86.195       54.920     7369.457     7429.621     3016.237        4.527        0.891      266.634       57.675        0.047      340.860       15.169      858.905
04/16/2014  00:13:00     -164.508      156.464      -32.088       87.463       96.900       58.191     7649.832     9389.564     3386.152        3.650        1.021      227.033       59.567        0.069      340.848       15.149      858.918
04/16/2014  00:14:00     -114.781      185.648      -23.171       53.989       82.202       39.950     2914.836     6757.185     1595.992        2.972        0.563      218.266       38.483        0.031      340.758       14.996      858.931
04/16/2014  00:15:00     -156.178      196.166      -35.182       97.228       89.707       53.791     9453.212     8047.364     2893.484        4.225        1.020      250.745       58.682        0.055      340.747       14.977      858.964
04/16/2014  00:16:00     -129.675      177.916      -13.143       63.709       91.188       57.738     4058.799     8315.199     3333.681        3.217        0.785      220.158       47.080        0.046      340.753       14.990      858.988
04/16/2014  00:17:00     -120.779      121.227      -12.024       73.909       74.781       49.781     5462.607     5592.219     2478.160        2.148        0.677      171.125       41.118        0.058      340.735       14.960      859.010
04/16/2014  00:18:00     -122.465      149.172      -28.244       81.932       72.631       52.671     6712.848     5275.300     2774.186        2.640        0.738      193.003       53.986        0.078      340.699       14.898      859.024
04/16/2014  00:19:00     -146.284      222.999      -28.522       65.856      100.144       45.597     4336.982    10028.832     2079.130        4.419        0.822      266.697       44.023        0.027      340.662       14.833      859.045
04/16/2014  00:20:00     -201.004      239.242      -50.767       87.721       97.449       55.619     7694.940     9496.372     3093.437        6.025        1.014      312.473       62.942        0.041      340.648       14.809      859.047
04/16/2014  00:21:00     -160.299      196.754      -44.552       74.087       76.816       44.839     5488.901     5900.728     2010.527        3.989        0.670      253.787       41.533        0.027      340.594       14.718      859.049
04/16/2014  00:22:00     -172.675      258.022      -23.910       93.792      123.793       70.499     8797.019    15324.705     4970.058        6.302        1.455      310.471       69.898        0.051      340.597       14.725      859.050
04/16/2014  00:23:00     -164.335      186.363      -20.171       85.250       91.486       46.480     7267.540     8369.684     2160.379        3.997        0.890      248.469       47.584        0.037      340.657       14.826      859.068
04/16/2014  00:24:00     -174.794      256.083      -47.374       86.593       64.277       47.272     7498.329     4131.596     2234.610        5.612        0.693      310.051       36.012        0.013      340.613       14.748      859.068
04/16/2014  00:25:00     -126.169      127.326       -7.248       77.188       83.447       45.320     5957.953     6963.477     2053.934        2.358        0.749      179.250       39.997        0.050      340.646       14.807      859.053
04/16/2014  00:26:00     -140.211      156.706      -22.029       88.003       76.676       42.562     7744.602     5879.224     1811.537        3.007        0.772      210.275       39.289        0.035      340.669       14.846      859.030
04/16/2014  00:27:00     -148.029      143.294      -21.868       82.763       73.757       51.746     6849.692     5440.034     2677.648        2.894        0.748      206.023       51.503        0.062      340.667       14.843      859.018
04/16/2014  00:28:00     -162.752       95.425      -11.967       95.264       71.665       44.126     9075.240     5135.914     1947.097        2.594        0.808      188.664       51.553        0.075      340.732       14.955      859.004
04/16/2014  00:29:00     -126.083       45.244       -6.130       64.877       48.051       37.121     4209.032     2308.896     1377.967        1.294        0.395      133.955       40.648        0.092      340.740       14.969      858.992
04/16/2014  00:30:00     -167.797       96.625      -23.617       61.800       43.436       31.476     3819.229     1886.649      990.720        2.237        0.335      193.629       27.642        0.020      340.615       14.757      859.016
04/16/2014  00:31:00     -144.455       37.397      -22.972       59.034       62.496       33.451     3485.004     3905.727     1118.992        1.565        0.425      149.217       32.934        0.049      340.522       14.598      859.037
04/16/2014  00:32:00      -88.873      -14.666        1.302       50.786       44.207       37.151     2579.267     1954.229     1380.219        0.701        0.296       90.075       25.637        0.081      340.540       14.631      859.030
04/16/2014  00:33:00     -142.464      -26.512       -7.256       67.952       54.034       31.290     4617.407     2919.641      979.091        1.478        0.426      144.910       26.028        0.032      340.427       14.438      859.049
04/16/2014  00:34:00     -144.009        1.538       -9.448       63.112       66.746       32.160     3983.107     4455.009     1034.266        1.515        0.474      144.017       29.689        0.042      340.390       14.377      859.062
04/16/2014  00:35:00      -83.144       11.217       -8.254       56.615       73.544       30.411     3205.257     5408.759      924.802        0.832        0.477       83.898       19.611        0.055      340.359       14.326      859.079
04/16/2014  00:36:00      -65.209      -14.848        5.136       45.782       46.964       27.705     2095.983     2205.617      767.573        0.478        0.253       66.878       14.459        0.047      340.355       14.319      859.082
04/16/2014  00:37:00      -36.232       53.883      -23.321       46.126       48.600       28.248     2127.601     2361.992      797.971        0.502        0.264       64.931       18.549        0.082      340.237       14.119      859.075
04/16/2014  00:38:00      -95.575       94.508      -19.781       59.064       43.447       24.510     3488.529     1887.631      600.747        1.222        0.299      134.411       15.642        0.014      340.245       14.133      859.081
04/16/2014  00:39:00      -72.487      131.664      -29.553       40.061       47.603       19.796     1604.881     2266.057      391.892        1.386        0.213      150.299       17.129        0.013      340.193       14.043      859.092
04/16/2014  00:40:00      -56.196       99.647      -13.768       46.812       50.857       33.676     2191.336     2586.436     1134.051        0.959        0.296      114.401       24.800        0.047      340.181       14.025      859.106
04/16/2014  00:41:00       -1.327       47.225        3.440       30.001       39.198       20.314      900.058     1536.499      412.663        0.255        0.142       47.244       13.501        0.082      340.166       13.997      859.115
04/16/2014  00:42:00       61.695       53.664        8.034       36.278       25.605       20.137     1316.115      655.591      405.503        0.456        0.119       81.768       12.840        0.025      340.072       13.841      859.107
04/16/2014  00:43:00       29.567       42.326        0.689       19.102       32.591       19.804      364.892     1062.164      392.217        0.224        0.091       51.631       16.816        0.106      340.051       13.805      859.092
04/16/2014  00:44:00       27.083       93.721      -12.572       38.471       59.464       30.940     1479.998     3535.909      957.310        0.782        0.299       97.556       33.433        0.117      339.980       13.687      859.083
04/16/2014  00:45:00       17.576       73.379      -13.611       40.889       33.184       19.707     1671.914     1101.179      388.369        0.452        0.158       75.455       17.401        0.053      339.989       13.700      859.076
04/16/2014  00:46:00       23.019       80.083        0.355       29.000       14.412       16.643      840.982      207.716      276.992        0.413        0.066       83.326        9.113        0.012      339.969       13.667      859.062
04/16/2014  00:47:00      -28.751        8.534        0.575       41.909       26.631       14.740     1756.389      709.225      217.267        0.179        0.134       29.991        6.139        0.042      339.966       13.661      859.057
04/16/2014  00:48:00      -64.612      101.725      -27.169       71.497       56.343       24.403     5111.885     3174.552      595.503        1.207        0.444      120.510       27.886        0.054      339.979       13.682      859.060
04/16/2014  00:49:00      -27.592       90.207      -19.711       31.476       64.334       27.033      990.761     4138.847      730.778        0.757        0.293       94.332       35.473        0.141      339.991       13.704      859.059
04/16/2014  00:50:00      -18.705       54.738      -10.872       23.028       37.728       16.254      530.299     1423.370      264.185        0.284        0.111       57.846       12.408        0.046      339.947       13.630      859.046
04/16/2014  00:51:00     -107.372       98.640      -18.589       40.868       47.203       32.501     1670.189     2228.162     1056.287        1.328        0.248      145.803       31.306        0.046      339.966       13.661      859.034
04/16/2014  00:52:00      -83.874       53.278      -13.710       65.414       39.103       30.262     4279.024     1529.008      915.786        0.839        0.336       99.366       34.780        0.123      340.009       13.735      859.025
04/16/2014  00:53:00      -58.780       81.969      -20.436       31.500       26.691       20.927      992.276      712.395      437.948        0.637        0.107      100.866       13.992        0.019      339.878       13.513      859.016
04/16/2014  00:54:00      -84.401       89.868      -25.914       36.746       31.918       21.915     1350.238     1018.744      480.258        0.936        0.142      123.287       16.620        0.018      339.857       13.480      859.023
04/16/2014  00:55:00      -66.422       99.451      -21.695       36.717       36.389       19.799     1348.126     1324.150      392.017        0.892        0.153      119.593       14.871        0.015      339.851       13.469      859.037
04/16/2014  00:56:00      -15.070       53.361        8.992       31.920       48.803       21.598     1018.865     2381.702      466.485        0.351        0.193       55.448       19.186        0.120      339.927       13.598      859.044
04/16/2014  00:57:00       -6.678       82.683      -12.415       34.778       31.860       15.847     1209.489     1015.051      251.140        0.475        0.124       82.952       17.354        0.044      339.982       13.689      859.054
04/16/2014  00:58:00       10.021       68.254       -6.921       19.939       19.518       15.882      397.566      380.936      252.249        0.292        0.052       68.986       13.901        0.041      339.861       13.484      859.053
04/16/2014  00:59:00      -25.680      115.420      -17.048       38.328       31.735       20.197     1469.018     1007.121      407.938        0.858        0.144      118.242       18.122        0.023      339.948       13.632      859.043
04/16/2014  01:00:00        6.922       83.723      -11.710       32.815       18.651       10.416     1076.807      347.847      108.503        0.436        0.077       84.008        6.590        0.006      339.832       13.436      859.024
04/16/2014  01:01:00      -18.272       58.615       -7.432       11.785       28.687       10.614      138.894      822.944      112.660        0.245        0.054       61.397       12.957        0.045      339.933       13.606      859.026
04/16/2014  01:02:00      -17.264       42.830        5.674       38.657       29.102       27.420     1494.384      846.952      751.864        0.263        0.155       46.178       18.358        0.158      339.909       13.564      859.028
04/16/2014  01:03:00       36.327       42.702      -10.235       22.139       31.245       20.959      490.116      976.253      439.270        0.258        0.095       56.064       20.094        0.128      339.691       13.199      859.043
04/16/2014  01:04:00       13.027       93.270      -17.660       27.142       23.569       12.298      736.710      555.503      151.242        0.531        0.072       94.175       10.769        0.013      339.745       13.288      859.067
04/16/2014  01:05:00       32.173       55.593       -7.288       29.442       35.022       23.375      866.806     1226.529      546.407        0.341        0.132       64.232       19.037        0.088      339.685       13.187      859.082
04/16/2014  01:06:00       -9.878      120.242      -19.088       36.820       38.626       21.091     1355.739     1491.941      444.841        0.911        0.165      120.647       15.268        0.016      339.718       13.245      859.093
04/16/2014  01:07:00      -51.628      101.450       -6.920       42.277       72.448       26.106     1787.334     5248.651      681.522        1.036        0.386      113.831       27.211        0.057      339.844       13.455      859.108
04/16/2014  01:08:00      -74.395      176.499      -24.081       40.289       56.843       25.372     1623.212     3231.097      643.758        2.138        0.275      191.537       26.221        0.019      339.749       13.294      859.117
04/16/2014  01:09:00      -65.717      118.813      -20.215       41.462       45.270       24.353     1719.086     2049.341      593.084        1.160        0.218      135.776       24.317        0.032      339.748       13.294      859.131
04/16/2014  01:10:00      -55.371      103.529      -12.793       46.913       56.086       27.352     2200.804     3145.633      748.120        1.002        0.305      117.406       27.685        0.056      339.747       13.292      859.143
04/16/2014  01:11:00      -94.784       84.184      -24.263       38.416       41.544       21.104     1475.756     1725.899      445.366        1.015        0.182      126.771       15.750        0.015      339.682       13.181      859.163
04/16/2014  01:12:00      -25.775       75.611      -13.963       38.495       28.129       24.380     1481.857      791.233      594.394        0.472        0.143       79.884       16.822        0.044      339.699       13.213      859.160
04/16/2014  01:13:00      -32.834      104.236      -12.365       38.849       52.513       23.635     1509.217     2757.625      558.610        0.846        0.241      109.285       27.437        0.063      339.651       13.131      859.145
04/16/2014  01:14:00      -54.966      101.637      -11.415       44.110       58.681       34.988     1945.684     3443.457     1224.179        1.005        0.331      115.548       35.475        0.094      339.665       13.153      859.135
04/16/2014  01:15:00      -23.941      213.115      -37.017       29.587       56.295       27.233      875.405     3169.161      741.629        2.607        0.239      214.456       30.515        0.020      339.584       13.014      859.146
04/16/2014  01:16:00      -41.169      215.391      -33.002       50.173       62.009       33.055     2517.302     3845.098     1092.647        2.831        0.373      219.290       32.048        0.021      339.650       13.125      859.157
04/16/2014  01:17:00      -56.688      230.069      -33.597       40.208       53.016       25.802     1616.668     2810.741      665.767        3.118        0.255      236.950       27.212        0.013      339.594       13.029      859.172
04/16/2014  01:18:00      -43.982      237.303      -43.798       37.168       32.230       22.547     1381.453     1038.741      508.357        3.155        0.146      241.344       17.204        0.005      339.599       13.038      859.181
04/16/2014  01:19:00      -47.133      225.688      -33.932       31.487       48.755       24.682      991.416     2377.039      609.180        2.914        0.199      230.557       23.800        0.011      339.583       13.012      859.190
04/16/2014  01:20:00       -9.764      190.582      -37.323       27.309       43.973       14.868      745.777     1933.668      221.058        2.035        0.145      190.831       14.496        0.006      339.569       12.989      859.188
04/16/2014  01:21:00       -6.772      195.849      -31.965       26.659       29.692       15.732      710.700      881.615      247.501        2.063        0.092      195.966       10.186        0.003      339.651       13.129      859.191
04/16/2014  01:22:00       12.594      169.726      -26.403       19.708       40.218       21.556      388.393     1617.455      464.656        1.607        0.124      170.192       22.007        0.017      339.607       13.056      859.191
04/16/2014  01:23:00       -0.991       91.677      -15.686       46.911       46.830       21.890     2200.669     2193.005      479.179        0.676        0.244       91.683       28.732        0.098      339.690       13.196      859.195
04/16/2014  01:24:00      -65.588      138.182      -24.371       38.131       60.750       25.991     1453.960     3690.574      675.526        1.490        0.291      152.958       30.149        0.039      339.775       13.340      859.182
04/16/2014  01:25:00      -34.742      117.860      -20.269       37.151       33.752       17.282     1380.195     1139.217      298.667        0.916        0.141      122.874       14.803        0.015      339.690       13.198      859.164
04/16/2014  01:26:00      -49.159       63.764       -3.669       47.501       43.037       28.963     2256.370     1852.218      838.867        0.572        0.247       80.514       33.891        0.177      339.648       13.125      859.137
04/16/2014  01:27:00        9.595       73.760      -19.481       18.912       20.878       13.437      357.676      435.904      180.565        0.344        0.049       74.381       12.762        0.029      339.533       12.929      859.081
04/16/2014  01:28:00       -3.635      109.878      -21.339       26.771       24.324       13.771      716.686      591.638      189.637        0.702        0.075      109.938       13.170        0.014      339.488       12.856      859.040
04/16/2014  01:29:00      -40.369      116.434      -21.910       26.617       32.099       13.731      708.486     1030.340      188.533        0.880        0.096      123.233        9.968        0.007      339.689       13.195      859.025
04/16/2014  01:30:00     -102.541       91.377      -25.622       34.668       40.877       23.271     1201.903     1670.935      541.530        1.147        0.171      137.348       20.762        0.023      339.834       13.440      859.023
04/16/2014  01:31:00      -81.483       40.832       -5.554       45.508       68.095       29.115     2071.001     4636.908      847.701        0.795        0.378       91.141       29.879        0.107      339.907       13.562      859.018
04/16/2014  01:32:00      -69.693       61.468       -9.065       41.645       35.808       23.214     1734.276     1282.182      538.873        0.614        0.178       92.927       26.577        0.082      339.861       13.485      859.011
04/16/2014  01:33:00     -104.882      -23.068      -18.325       39.694       29.790       28.201     1575.577      887.442      795.269        0.756        0.163      107.389       16.792        0.024      340.116       13.914      859.018
04/16/2014  01:34:00      -52.084      -43.031       -2.874       32.120       22.985       16.803     1031.706      528.319      282.346        0.321        0.092       67.561        5.465        0.007      339.963       13.658      859.036
04/16/2014  01:35:00      -75.692       65.385      -21.989       31.037       26.024       14.734      963.313      677.240      217.092        0.617        0.093      100.022       14.372        0.021      339.788       13.362      859.067
04/16/2014  01:36:00      -89.444       33.745      -10.390       34.557       23.307       18.538     1194.164      543.205      343.671        0.566        0.104       95.598       13.167        0.019      339.898       13.547      859.081
04/16/2014  01:37:00      -77.752       50.334      -13.772       36.114       22.739       18.590     1304.198      517.065      345.584        0.547        0.108       92.622       11.309        0.015      339.837       13.445      859.092
04/16/2014  01:38:00     -103.150       73.505      -20.963       66.006       42.809       23.209     4356.744     1832.610      538.663        1.160        0.336      126.660       24.838        0.038      339.803       13.387      859.094
04/16/2014  01:39:00      -80.542       48.421      -11.296       49.291       37.658       28.518     2429.618     1418.093      813.282        0.681        0.233       93.977       24.847        0.070      339.813       13.405      859.081
04/16/2014  01:40:00      -70.291       65.065       -5.810       26.035       34.416       25.351      677.798     1184.446      642.688        0.586        0.125       95.783       16.894        0.031      339.758       13.312      859.054
04/16/2014  01:41:00      -74.831      119.927      -20.278       46.199       57.243       34.021     2134.390     3276.730     1157.397        1.348        0.328      141.358       34.280        0.059      339.572       12.998      859.012
04/16/2014  01:42:00      -84.677       90.635       -8.269       44.625       49.285       33.666     1991.422     2428.989     1133.380        1.050        0.278      124.036       20.530        0.027      339.596       13.038      858.950
04/16/2014  01:43:00      -97.940       80.919       -9.549       55.731       49.260       33.630     3105.890     2426.550     1130.969        1.145        0.333      127.043       34.487        0.074      339.575       13.003      858.918
04/16/2014  01:44:00     -119.606      120.165      -27.859       46.696       39.645       30.605     2180.526     1571.704      936.691        1.710        0.234      169.544       22.851        0.018      339.608       13.057      858.914
04/16/2014  01:45:00      -97.877       96.686      -12.493       44.627       39.643       33.415     1991.577     1571.574     1116.552        1.188        0.234      137.580       22.898        0.028      339.632       13.097      858.930
04/16/2014  01:46:00      -96.010      146.713      -24.554       45.476       61.871       31.254     2068.069     3828.077      976.793        1.911        0.344      175.336       33.886        0.037      339.609       13.059      858.945
04/16/2014  01:47:00     -126.417      118.033      -30.357       47.403       50.284       32.730     2247.088     2528.433     1071.240        1.834        0.292      172.954       24.297        0.020      339.565       12.983      858.939
04/16/2014  01:48:00     -130.009       96.370      -20.322       50.410       44.898       34.930     2541.133     2015.859     1220.096        1.619        0.289      161.832       32.363        0.040      339.565       12.985      858.916
04/16/2014  01:49:00     -113.480      113.354      -23.658       43.036       45.601       25.816     1852.093     2079.465      666.483        1.544        0.230      160.396       22.900        0.020      339.569       12.992      858.880
04/16/2014  01:50:00     -142.423      109.444      -28.972       39.192       39.128       27.846     1536.024     1530.990      775.392        1.847        0.192      179.617       21.524        0.014      339.603       13.048      858.843
04/16/2014  01:51:00      -98.185       87.787      -24.944       62.139       40.365       23.996     3861.249     1629.336      575.816        1.202        0.303      131.708       29.568        0.050      339.510       12.889      858.806
04/16/2014  01:52:00     -159.761      107.887      -24.439       64.282       82.892       36.577     4132.240     6871.012     1337.871        2.505        0.617      192.778       32.346        0.028      339.523       12.911      858.783
04/16/2014  01:53:00     -128.651       55.405      -11.877       43.055       38.527       25.556     1853.725     1484.331      653.100        1.188        0.200      140.074       17.913        0.016      339.648       13.124      858.747
04/16/2014  01:54:00     -104.162       95.510      -17.333       57.682       71.777       33.417     3327.254     5151.903     1116.670        1.493        0.480      141.322       23.896        0.029      339.482       12.844      858.719
04/16/2014  01:55:00     -109.955       38.015       -8.209       66.361       76.193       35.744     4403.744     5805.336     1277.610        1.254        0.574      116.341       43.168        0.138      339.546       12.953      858.696
04/16/2014  01:56:00      -48.218       62.983       -2.759       37.191       55.756       30.655     1383.183     3108.702      939.713        0.586        0.272       79.321       27.880        0.124      339.546       12.953      858.681
04/16/2014  01:57:00     -131.944       93.257      -22.113       47.998      107.052       35.288     2303.789    11460.132     1245.276        2.080        0.750      161.574       38.836        0.058      339.615       13.069      858.691
04/16/2014  01:58:00     -129.378      153.644      -23.017       59.940       99.110       46.102     3592.825     9822.792     2125.427        2.820        0.777      200.861       42.302        0.044      339.536       12.935      858.714
04/16/2014  01:59:00     -139.795      159.132      -35.382       57.355       66.962       36.225     3289.553     4483.915     1312.245        2.760        0.454      211.815       22.655        0.011      339.531       12.925      858.727
04/16/2014  02:00:00     -135.847      145.359      -23.079       56.618       78.835       43.309     3205.653     6214.970     1875.639        2.570        0.565      198.957       27.469        0.019      339.532       12.927      858.747
04/16/2014  02:01:00     -183.425      168.561      -43.677       50.822       78.847       44.598     2582.869     6216.863     1988.988        3.738        0.539      249.114       36.685        0.022      339.535       12.930      858.757
04/16/2014  02:02:00     -173.923      182.931      -40.223       67.656       93.148       43.312     4577.380     8676.627     1875.955        4.023        0.756      252.414       45.985        0.033      339.535       12.932      858.763
04/16/2014  02:03:00     -162.766      168.003      -26.308       77.066       69.025       45.807     5939.134     4764.392     2098.269        3.410        0.640      233.918       34.751        0.022      339.556       12.966      858.779
04/16/2014  02:04:00     -182.317      271.528      -44.116       75.495       99.630       50.023     5699.444     9926.126     2502.346        6.352        0.906      327.058       44.819        0.019      339.558       12.970      858.786
04/16/2014  02:05:00     -187.242      250.076      -55.449       79.623       87.642       59.587     6339.874     7681.093     3550.593        5.912        0.879      312.406       62.438        0.040      339.563       12.978      858.788
04/16/2014  02:06:00     -191.007      229.495      -41.215       89.933      102.992       60.470     8087.962    10607.382     3656.620        5.660        1.118      298.583       61.258        0.042      339.604       13.048      858.782
04/16/2014  02:07:00     -131.370      106.068      -15.343       91.347       56.707       40.607     8344.208     3215.727     1648.923        2.097        0.660      168.845       38.839        0.053      339.706       13.222      858.788
04/16/2014  02:08:00     -141.851      157.246      -26.776       62.825       86.423       48.989     3947.025     7468.876     2399.898        2.969        0.691      211.774       45.083        0.045      339.688       13.191      858.782
04/16/2014  02:09:00     -164.593      189.399      -35.387       71.899       74.678       47.214     5169.432     5576.771     2229.208        3.859        0.649      250.924       41.436        0.027      339.659       13.140      858.773
04/16/2014  02:10:00     -176.786      222.017      -46.699       64.740      109.528       45.263     4191.211    11996.287     2048.709        5.048        0.912      283.805       47.058        0.027      339.681       13.177      858.781
04/16/2014  02:11:00     -165.364      152.832      -25.566       99.241       82.461       60.581     9848.777     6799.756     3670.083        3.583        1.016      225.173       65.566        0.085      339.704       13.216      858.799
04/16/2014  02:12:00     -152.241      145.540      -31.617       95.790      119.814       45.927     9175.722    14355.277     2109.283        3.549        1.282      210.616       32.795        0.024      339.719       13.243      858.806
04/16/2014  02:13:00     -145.838      160.018      -24.456       68.221       76.365       47.592     4654.137     5831.680     2264.994        3.011        0.638      216.505       40.841        0.036      339.687       13.189      858.791
04/16/2014  02:14:00     -156.903      241.299      -28.897      122.860      122.065       77.140    15094.489    14899.847     5950.516        5.980        1.797      287.826       76.304        0.070      339.681       13.177      858.778
04/16/2014  02:15:00     -138.614      116.017      -20.334       57.654       67.721       42.412     3323.972     4586.128     1798.813        2.140        0.485      180.759       33.251        0.034      339.716       13.238      858.782
04/16/2014  02:16:00     -194.478      191.888      -39.110       95.688       92.408       50.839     9156.225     8539.177     2584.636        4.822        1.014      273.208       41.932        0.024      339.728       13.257      858.791
04/16/2014  02:17:00     -184.958      252.872      -49.367       67.676       99.440       52.581     4580.036     9888.238     2764.786        5.891        0.862      313.295       44.077        0.020      339.648       13.122      858.809
04/16/2014  02:18:00     -185.177      215.597      -33.720       90.720       98.891       63.241     8230.197     9779.443     3999.422        5.196        1.100      284.206       60.304        0.045      339.604       13.047      858.825
04/16/2014  02:19:00     -159.009      139.904      -25.885       70.913      104.015       52.578     5028.628    10819.017     2764.470        3.207        0.931      211.795       53.291        0.063      339.660       13.143      858.845
04/16/2014  02:20:00     -218.343      273.684      -54.739      110.613      104.412       57.864    12235.323    10901.866     3348.206        7.602        1.324      350.109       55.179        0.025      339.608       13.054      858.860
04/16/2014  02:21:00     -203.961      257.329      -42.420      105.309      116.388       71.580    11090.023    13546.137     5123.735        6.968        1.488      328.357       67.269        0.042      339.601       13.044      858.875
04/16/2014  02:22:00     -181.067      215.449      -40.540       69.690      113.249       54.012     4856.722    12825.246     2917.290        5.072        1.030      281.431       55.826        0.039      339.599       13.040      858.865
04/16/2014  02:23:00     -157.826      160.950      -24.195       95.784      131.821       49.492     9174.601    17376.885     2449.472        4.019        1.450      225.420       47.111        0.044      339.580       13.006      858.836
04/16/2014  02:24:00     -135.245      133.724       -4.864      107.166       99.030       55.254    11484.522     9806.901     3052.959        3.027        1.217      190.192       65.291        0.118      339.574       12.998      858.814
04/16/2014  02:25:00     -122.628      199.018      -23.933       75.272      107.231       51.900     5665.877    11498.399     2693.575        3.753        0.993      233.764       42.118        0.032      339.603       13.046      858.776
04/16/2014  02:26:00     -162.940      217.300      -36.778       88.039      107.008       52.828     7750.943    11450.724     2790.764        4.855        1.100      271.604       37.810        0.019      339.600       13.041      858.756
04/16/2014  02:27:00     -174.011      140.873      -22.729       90.769       85.788       50.433     8238.949     7359.636     2543.531        3.439        0.907      223.886       39.052        0.030      339.623       13.083      858.754
04/16/2014  02:28:00     -119.524      198.905       -9.165       66.902      118.399       49.090     4475.937    14018.391     2409.854        3.741        1.045      232.054       42.289        0.033      339.573       12.996      858.741
04/16/2014  02:29:00     -227.074      106.185      -34.785      104.266      111.916       53.926    10871.455    12525.263     2908.067        4.517        1.315      250.675       52.002        0.043      339.565       12.981      858.737
04/16/2014  02:30:00     -155.378      184.205      -24.359       71.648       80.056       54.767     5133.386     6409.035     2999.451        3.660        0.727      240.985       42.296        0.031      339.555       12.966      858.721
04/16/2014  02:31:00     -135.642      132.723      -30.251       67.192       69.083       40.505     4514.796     4772.444     1640.676        2.393        0.546      189.774       39.620        0.044      339.571       12.994      858.706
04/16/2014  02:32:00     -201.565      145.346      -30.467      139.301       98.392       68.481    19404.860     9681.083     4689.645        4.822        1.689      248.503       71.619        0.083      339.600       13.041      858.718
04/16/2014  02:33:00     -169.280      241.923      -36.417       96.016      112.382       54.577     9219.122    12629.760     2978.634        5.666        1.241      295.267       45.953        0.024      339.587       13.019      858.741
04/16/2014  02:34:00     -173.114      200.689      -36.928       85.091      123.914       60.662     7240.412    15354.687     3679.906        4.894        1.314      265.036       53.630        0.041      339.631       13.093      858.771
04/16/2014  02:35:00     -260.147      288.777      -60.189       93.936      133.917       64.170     8823.989    17933.663     4117.747        9.278        1.544      388.675       64.870        0.028      339.598       13.037      858.827
04/16/2014  02:36:00     -234.371      305.891      -64.960      100.702      112.800       76.223    10140.961    12723.891     5809.968        9.069        1.434      385.356       67.260        0.030      339.591       13.025      858.883
04/16/2014  02:37:00     -175.623      233.338      -41.776      105.355      142.490       65.177    11099.613    20303.505     4248.046        6.134        1.783      292.044       80.844        0.077      339.605       13.051      858.901
04/16/2014  02:38:00     -203.442      209.891      -15.047      140.992      139.142       73.523    19878.643    19360.514     5405.696        6.515        2.232      292.306       82.396        0.079      339.557       12.969      858.894
04/16/2014  02:39:00     -249.244      220.906      -58.051      131.743       92.432       71.765    17356.210     8543.756     5150.262        7.266        1.553      333.049       75.143        0.051      339.586       13.017      858.901
04/16/2014  02:40:00     -243.471      286.584      -63.156       95.397      126.589       65.054     9100.604    16024.691     4232.008        8.737        1.468      376.043       65.099        0.030      339.525       12.912      858.916
04/16/2014  02:41:00     -173.459      182.930      -25.052      101.935      118.324       65.911    10390.831    14000.492     4344.275        4.645        1.437      252.094       70.314        0.078      339.516       12.900      858.909
04/16/2014  02:42:00     -147.976      246.673      -34.700      117.061      131.185       64.350    13703.239    17209.387     4140.970        5.949        1.753      287.653       72.669        0.064      339.466       12.815      858.878
04/16/2014  02:43:00     -215.967      235.317      -50.043       78.838      113.046       56.122     6215.351    12779.468     3149.623        6.333        1.107      319.399       55.772        0.030      339.453       12.791      858.856
04/16/2014  02:44:00     -152.760      222.160      -22.407       84.788      114.822       60.015     7188.922    13184.184     3601.767        4.858        1.199      269.612       59.454        0.049      339.391       12.689      858.828
04/16/2014  02:45:00      -97.331      159.725       -2.230       69.081      113.741       56.101     4772.119    12937.040     3147.363        2.792        1.043      187.044       51.523        0.076      339.394       12.694      858.811
04/16/2014  02:46:00     -204.678      208.428      -37.618      109.808      105.139       64.452    12057.858    11054.182     4154.041        5.700        1.363      292.122       64.394        0.049      339.357       12.632      858.819
04/16/2014  02:47:00     -185.589      165.557      -27.335      100.718       89.791       46.725    10144.089     8062.410     2183.238        4.149        1.019      248.701       51.467        0.043      339.384       12.676      858.848
04/16/2014  02:48:00     -156.560      175.559      -32.142       73.000       99.737       54.793     5328.932     9947.519     3002.309        3.732        0.914      235.227       46.139        0.038      339.350       12.618      858.860
04/16/2014  02:49:00     -217.662      204.747      -45.653      124.031      120.209       71.878    15383.641    14450.157     5166.398        6.318        1.750      298.828       83.854        0.079      339.413       12.727      858.878
04/16/2014  02:50:00     -254.098      241.621      -61.035      118.377      128.005       72.303    14013.144    16385.216     5227.696        8.114        1.781      350.637       77.671        0.049      339.389       12.686      858.894
04/16/2014  02:51:00     -171.635      214.545      -42.165       93.810      124.362       55.934     8800.402    15465.786     3128.640        5.233        1.370      274.751       61.759        0.051      339.374       12.658      858.893
04/16/2014  02:52:00     -203.505      222.291      -45.354       97.184       84.513       59.663     9444.764     7142.514     3559.678        5.651        1.007      301.376       55.249        0.034      339.360       12.635      858.895
04/16/2014  02:53:00     -200.745      209.530      -46.156       87.846       94.575       56.179     7716.884     8944.428     3156.105        5.307        0.991      290.175       53.388        0.034      339.376       12.662      858.904
04/16/2014  02:54:00     -236.503      245.612      -51.659       98.190      120.456       70.210     9641.297    14509.555     4929.507        7.400        1.454      340.967       72.388        0.045      339.347       12.615      858.920
04/16/2014  02:55:00     -269.225      312.697      -72.903      115.277      108.360       66.144    13288.796    11741.958     4375.026       10.249        1.470      412.627       72.182        0.031      339.334       12.593      858.947
04/16/2014  02:56:00     -237.776      237.602      -47.924      108.189      108.081       62.536    11704.821    11681.569     3910.805        7.129        1.365      336.143       52.870        0.025      339.310       12.551      858.984
04/16/2014  02:57:00     -240.599      266.130      -41.378       99.803      133.033       72.185     9960.587    17697.647     5210.637        8.164        1.643      358.766       70.155        0.038      339.268       12.481      858.999
04/16/2014  02:58:00     -235.820      257.012      -38.842       87.461      127.879       68.383     7649.469    16352.948     4676.199        7.592        1.434      348.807       64.897        0.035      339.224       12.409      859.025
04/16/2014  02:59:00     -215.319      218.866      -46.527      101.343      114.874       55.706    10270.482    13195.984     3103.105        6.149        1.328      307.026       62.261        0.041      339.183       12.339      859.043
04/16/2014  03:00:00     -230.221      244.823      -47.079       98.363      109.017       67.777     9675.306    11884.653     4593.721        7.065        1.308      336.066       64.567        0.037      339.153       12.287      859.045
04/16/2014  03:01:00     -188.909      212.849      -46.739       91.887      101.102       46.589     8443.174    10221.638     2170.539        5.200        1.042      284.590       37.930        0.018      339.131       12.251      859.052
04/16/2014  03:02:00     -194.346      185.697      -38.466       74.731       79.364       48.604     5584.784     6298.617     2362.344        4.399        0.712      268.801       44.434        0.027      339.090       12.182      859.077
04/16/2014  03:03:00     -225.464      289.619      -51.413       81.676      135.811       64.823     6671.039    18444.657     4202.085        8.333        1.466      367.033       55.091        0.023      339.121       12.233      859.094
04/16/2014  03:04:00     -251.896      227.422      -57.138       99.466      106.925       55.784     9893.455    11432.890     3111.839        7.143        1.222      339.371       56.782        0.028      339.122       12.235      859.099
04/16/2014  03:05:00     -229.322      240.906      -47.353       99.808       90.629       56.099     9961.617     8213.583     3147.075        6.709        1.066      332.602       42.697        0.016      339.122       12.237      859.088
04/16/2014  03:06:00     -182.453      182.850      -32.291       64.749       95.565       46.234     4192.467     9132.686     2137.571        4.161        0.773      258.308       43.285        0.028      339.137       12.260      859.099
04/16/2014  03:07:00     -221.247      209.104      -48.910       94.978       86.688       56.054     9020.765     7514.876     3142.062        5.737        0.984      304.425       55.565        0.033      339.034       12.088      859.138
04/16/2014  03:08:00     -191.054      151.675      -25.199       86.344       85.984       57.742     7455.341     7393.204     3334.172        3.916        0.909      243.941       58.475        0.057      339.041       12.100      859.185
04/16/2014  03:09:00     -168.260      165.416      -33.176       69.621       75.983       48.762     4847.030     5773.452     2377.754        3.488        0.650      235.953       47.906        0.041      338.978       11.993      859.199
04/16/2014  03:10:00     -138.258      155.657      -27.175       62.879       73.774       41.799     3953.728     5442.618     1747.184        2.761        0.557      208.193       41.024        0.039      338.939       11.928      859.193
04/16/2014  03:11:00     -168.097      100.711      -23.062       79.224       71.217       46.735     6276.467     5071.854     2184.132        2.623        0.677      195.957       46.000        0.055      338.989       12.012      859.183
04/16/2014  03:12:00     -190.673       82.125      -30.536       66.765       87.403       44.083     4457.583     7639.205     1943.286        2.903        0.702      207.607       42.837        0.043      338.931       11.915      859.155
04/16/2014  03:13:00     -140.500      108.718      -33.575       67.512       61.439       39.392     4557.824     3774.741     1551.731        2.128        0.494      177.650       30.000        0.029      338.872       11.817      859.157
04/16/2014  03:14:00     -114.619       33.094       -9.691       68.882       99.645       42.658     4744.777     9929.159     1819.682        1.541        0.825      119.301       28.006        0.055      338.918       11.895      859.158
04/16/2014  03:15:00     -182.373      -30.057      -26.636       55.199       50.436       30.318     3046.924     2543.783      919.154        2.069        0.325      184.833       28.546        0.024      338.845       11.771      859.160
04/16/2014  03:16:00     -160.304      -28.765      -16.999       46.005       36.738       28.705     2116.506     1349.688      823.960        1.555        0.215      162.864       21.421        0.017      338.794       11.688      859.146
04/16/2014  03:17:00     -154.503      -47.663       -5.082       54.198       47.715       32.030     2937.470     2276.729     1025.896        1.620        0.312      161.687       25.023        0.024      338.729       11.578      859.125
04/16/2014  03:18:00      -78.717      -17.058        4.031       62.336       50.828       44.956     3885.766     2583.512     2021.042        0.750        0.425       80.544       30.508        0.143      338.687       11.508      859.106
04/16/2014  03:19:00     -146.197      -24.814      -10.194       51.430       58.312       28.642     2645.073     3400.318      820.391        1.448        0.343      148.288       24.436        0.027      338.794       11.688      859.108
04/16/2014  03:20:00     -247.700      -28.785      -18.826       63.511       77.755       35.385     4033.619     6045.763     1252.117        3.693        0.567      249.367       30.493        0.015      338.749       11.608      859.093
04/16/2014  03:21:00     -156.369      -41.083       -8.804       89.542       66.468       40.486     8017.841     4418.045     1639.119        2.014        0.704      161.676       50.641        0.098      338.703       11.533      859.091
04/16/2014  03:22:00     -149.008      -42.083        0.056      116.223       60.566       43.874    13507.709     3668.256     1924.927        2.153        0.955      154.837       62.089        0.161      338.722       11.565      859.079
04/16/2014  03:23:00     -136.810      -59.743       -3.359       54.568       51.126       35.328     2977.677     2613.826     1248.061        1.457        0.342      149.286       34.013        0.052      338.711       11.547      859.080
04/16/2014  03:24:00      -67.933      -22.544       11.782       81.910       47.550       37.128     6709.194     2260.959     1378.512        0.780        0.517       71.576       39.539        0.305      338.722       11.567      859.068
04/16/2014  03:25:00      -90.646       -2.086        5.696       61.634       58.616       32.405     3798.758     3435.809     1050.094        0.827        0.414       90.670       36.948        0.166      338.703       11.533      859.066
04/16/2014  03:26:00     -137.746       15.650      -16.787       31.144       28.488       16.879      969.938      811.588      284.887        1.078        0.103      138.632       10.844        0.006      338.822       11.735      859.076
04/16/2014  03:27:00      -78.927      -25.268      -12.554       33.791       31.618       21.805     1141.843      999.668      475.438        0.482        0.131       82.873       18.615        0.050      338.751       11.615      859.062
04/16/2014  03:28:00      -91.034        4.248       -7.691       30.832       39.775       23.293      950.593     1582.021      542.576        0.572        0.154       91.133       17.539        0.037      338.862       11.801      859.071
04/16/2014  03:29:00     -135.540      -33.269       -5.739       51.314       35.029       29.447     2633.084     1227.023      867.136        1.212        0.236      139.563       26.229        0.035      338.667       11.474      859.075
04/16/2014  03:30:00     -111.404        5.611      -19.093       27.996       34.237       19.789      783.762     1172.206      391.591        0.758        0.117      111.545       16.406        0.022      338.951       11.953      859.076
04/16/2014  03:31:00      -81.295       -6.339      -10.757       35.540       59.661       24.832     1263.085     3559.451      616.632        0.610        0.272       81.542       11.115        0.019      338.824       11.738      859.074
04/16/2014  03:32:00     -109.847       46.489      -30.141       72.481       62.486       34.265     5253.456     3904.441     1174.105        1.273        0.517      119.280       24.720        0.043      338.795       11.690      859.068
04/16/2014  03:33:00      -72.360       34.206      -16.312       43.811       41.492       27.341     1919.435     1721.614      747.517        0.553        0.219       80.038       25.347        0.100      338.770       11.647      859.044
04/16/2014  03:34:00     -133.877      130.772      -29.130       65.858      106.519       41.904     4337.280    11346.257     1755.961        2.665        0.872      187.148       40.067        0.046      338.886       11.841      859.014
04/16/2014  03:35:00     -121.829      155.508      -31.747       57.122       67.425       38.067     3262.938     4546.154     1449.129        2.464        0.463      197.547       31.958        0.026      338.807       11.709      858.983
04/16/2014  03:36:00     -151.303      152.036      -32.600       50.994       53.498       35.204     2600.344     2862.033     1239.319        2.688        0.335      214.494       28.114        0.017      338.888       11.843      858.961
04/16/2014  03:37:00      -58.320      124.645      -11.869       54.479       61.410       32.646     2967.994     3771.153     1065.760        1.344        0.390      137.613       28.696        0.043      338.827       11.743      858.959
04/16/2014  03:38:00      -88.040       48.497      -28.027       54.952       48.957       29.099     3019.703     2396.806      846.733        0.857        0.313      100.514       22.385        0.050      338.943       11.937      858.952
04/16/2014  03:39:00      -68.796      -30.385       -3.084       79.923       47.465       22.089     6387.679     2252.898      487.934        0.740        0.456       75.207       30.053        0.160      338.848       11.779      858.946
04/16/2014  03:40:00      -93.828     -116.982       -5.389       41.024       48.185       25.795     1682.972     2321.814      665.399        1.359        0.234      149.962       20.376        0.018      338.686       11.506      858.935
04/16/2014  03:41:00      -60.974      -78.161       -6.972       32.390       40.528       19.697     1049.131     1642.555      387.984        0.648        0.154       99.131       13.449        0.018      338.657       11.456      858.915
04/16/2014  03:42:00      -26.802      -87.256       -7.840       45.600       29.364       22.569     2079.356      862.229      509.378        0.592        0.173       91.280       20.325        0.050      338.674       11.486      858.904
04/16/2014  03:43:00      -11.401      -15.599       10.298       31.556       33.765       20.051      995.765     1140.082      402.033        0.151        0.127       19.321       17.690        0.838      338.638       11.425      858.904
04/16/2014  03:44:00      -46.506      -27.764        6.622       37.590       21.992       19.589     1412.994      483.650      383.714        0.263        0.114       54.163       15.193        0.079      338.690       11.513      858.918
04/16/2014  03:45:00      -38.187      -52.565        0.213       29.418       46.662       18.392      865.439     2177.321      338.268        0.380        0.169       64.972       19.439        0.090      338.707       11.542      858.937
04/16/2014  03:46:00      -22.670     -120.290        1.358       38.605       47.080       26.687     1490.381     2216.535      712.200        0.970        0.221      122.408       16.910        0.019      338.705       11.538      858.943
04/16/2014  03:47:00      -15.865      -42.447       -6.283       30.157       36.143       19.415      909.450     1306.284      376.946        0.234        0.130       45.315       19.232        0.180      338.699       11.527      858.950
04/16/2014  03:48:00      -52.733       17.796       -3.227       34.645       21.897       15.333     1200.280      479.475      235.112        0.251        0.096       55.655       16.355        0.086      338.683       11.502      858.975
04/16/2014  03:49:00      -55.763       10.438       -3.223       26.083       22.524       13.613      680.313      507.335      185.317        0.230        0.069       56.731       14.994        0.070      338.727       11.576      859.002
04/16/2014  03:50:00      -56.802       37.387      -12.410       17.575       18.608       13.033      308.864      346.241      169.847        0.280        0.041       68.002        5.326        0.006      338.807       11.708      859.031
04/16/2014  03:51:00      -74.166      -10.697      -10.678       28.565       25.383       11.986      815.985      644.310      143.669        0.367        0.080       74.933        6.096        0.007      338.855       11.789      859.041
04/16/2014  03:52:00     -122.009      -16.444      -12.499       36.241       30.878       19.493     1313.441      953.422      379.976        0.898        0.132      123.112       19.534        0.025      338.792       11.684      859.058
04/16/2014  03:53:00     -146.448      -58.661       -6.670       22.533       26.907       14.238      507.743      723.971      202.724        1.318        0.072      157.760       12.502        0.006      338.598       11.357      859.070
04/16/2014  03:54:00     -151.915      -87.212       -6.684       39.160       33.572       22.719     1533.517     1127.095      516.170        1.695        0.159      175.168       21.343        0.015      338.440       11.093      859.079
04/16/2014  03:55:00     -107.910      -42.445       -5.286       50.117       41.313       21.949     2511.728     1706.784      481.776        0.909        0.235      115.958       18.427        0.025      338.396       11.020      859.085
04/16/2014  03:56:00      -96.358      -49.923       -4.386       28.879       27.279       21.525      833.991      744.161      463.334        0.692        0.102      108.523       14.629        0.018      338.440       11.091      859.085
04/16/2014  03:57:00      -79.278      -31.003        3.103       45.069       34.970       25.932     2031.220     1222.919      672.446        0.559        0.196       85.124       29.182        0.118      338.504       11.200      859.066
04/16/2014  03:58:00      -84.650      -36.117       -3.842       28.314       27.062       13.519      801.672      732.339      182.767        0.510        0.086       92.033       11.493        0.016      338.447       11.106      859.035
04/16/2014  03:59:00     -104.981      -16.826       -9.309       23.968       28.553       13.652      574.487      815.265      186.370        0.648        0.079      106.320        8.829        0.007      338.437       11.086      859.005
04/16/2014  04:00:00      -63.204      -20.970       -9.123       16.147       21.050       12.893      260.715      443.097      166.235        0.269        0.044       66.592        9.043        0.018      338.562       11.299      858.983
04/16/2014  04:01:00      -83.822      -27.372      -11.567       28.052       17.720       16.506      786.897      313.991      272.454        0.464        0.069       88.178       18.004        0.042      338.475       11.151      858.959
04/16/2014  04:02:00      -70.267      -32.050       -6.271       18.218       14.026       10.549      331.900      196.721      111.284        0.332        0.032       77.231        9.434        0.015      338.448       11.106      858.943
04/16/2014  04:03:00      -51.674      -27.316       -6.413       15.188        8.880        8.471      230.661       78.846       71.763        0.192        0.019       58.450        6.776        0.013      338.525       11.234      858.932
04/16/2014  04:04:00      -23.766      -30.041        3.006       18.826       15.938       11.855      354.418      254.029      140.540        0.111        0.037       38.305       11.292        0.087      338.591       11.348      858.937
04/16/2014  04:05:00      -17.354      -23.248        7.555       19.603       14.748        9.982      384.274      217.494       99.633        0.080        0.035       29.011        6.521        0.051      338.592       11.349      858.937
04/16/2014  04:06:00       -8.247      -37.849       -2.064       12.311       13.385        8.709      151.552      179.146       75.851        0.096        0.020       38.737        4.245        0.012      338.631       11.414      858.946
04/16/2014  04:07:00      -10.036        3.998       11.865        8.333       11.166        8.406       69.443      124.680       70.655        0.026        0.013       10.803        6.699        0.385      338.482       11.164      858.956
04/16/2014  04:08:00      -13.998        6.083       10.522       12.515       16.473       14.086      156.618      271.347      198.417        0.048        0.031       15.263       11.855        0.603      338.462       11.131      858.973
04/16/2014  04:09:00      -13.899        3.402        6.014       10.666       13.467       10.629      113.756      181.359      112.974        0.032        0.020       14.310        9.693        0.459      338.378       10.988      858.982
04/16/2014  04:10:00       -9.349      -72.545        6.070       31.616       41.672       25.938      999.549     1736.540      672.792        0.440        0.170       73.145        7.156        0.010      338.532       11.247      858.969
04/16/2014  04:11:00        1.742      -25.412       26.531       18.958       33.893       21.432      359.391     1148.765      459.320        0.166        0.098       25.472       17.074        0.449      338.518       11.223      858.943
04/16/2014  04:12:00       -4.420      -29.459       23.139       15.530       26.508       16.068      241.169      702.676      258.167        0.131        0.060       29.789        9.481        0.101      338.529       11.242      858.918
04/16/2014  04:13:00      -30.439      -15.256       -1.467       14.729       13.480        8.539      216.934      181.713       72.910        0.082        0.024       34.048        6.047        0.032      338.431       11.077      858.910
04/16/2014  04:14:00      -48.244      -13.750        1.082       28.353       17.862        9.962      803.905      319.040       99.235        0.187        0.061       50.166       11.056        0.049      338.307       10.869      858.904
04/16/2014  04:15:00      -87.936      -53.175        1.980       25.633       26.276       14.585      657.071      690.429      212.726        0.606        0.078      102.764       11.014        0.011      338.335       10.916      858.910
04/16/2014  04:16:00      -56.930      -43.916       10.499       50.139       25.729       21.494     2513.956      661.986      461.982        0.446        0.182       71.900       22.308        0.096      338.320       10.891      858.905
04/16/2014  04:17:00      -78.777      -72.694       -3.422       41.950       37.067       23.051     1759.765     1373.946      531.340        0.758        0.183      107.192       22.206        0.043      338.346       10.934      858.903
04/16/2014  04:18:00      -87.659      -61.600       -2.497       26.402       23.430       17.062      697.061      548.981      291.117        0.651        0.077      107.138       13.819        0.017      338.379       10.991      858.892
04/16/2014  04:19:00      -94.982      -48.676       -4.973       18.699       23.018       17.367      349.647      529.840      301.621        0.630        0.059      106.729       11.413        0.011      338.333       10.914      858.894
04/16/2014  04:20:00      -80.069      -47.606        1.693       33.885       17.354       12.871     1148.192      301.166      165.668        0.515        0.081       93.153       11.433        0.015      338.331       10.910      858.886
04/16/2014  04:21:00      -50.429      -15.943        1.458       33.329       26.439       13.648     1110.847      698.997      186.260        0.240        0.100       52.889       12.492        0.056      338.196       10.684      858.886
04/16/2014  04:22:00      -55.336       -9.527       -0.107       22.091       15.518       11.677      487.999      240.822      136.357        0.201        0.043       56.151       11.292        0.040      338.027       10.400      858.895
04/16/2014  04:23:00      -55.704      -20.971       -3.201       18.712       21.311       13.572      350.149      454.148      184.207        0.227        0.049       59.521        8.525        0.021      337.953       10.277      858.918
04/16/2014  04:24:00      -56.505      -12.335       -0.422       32.121       24.727       14.247     1031.763      611.425      202.991        0.260        0.092       57.836       12.622        0.048      337.851       10.103      858.951
04/16/2014  04:25:00     -115.816      -48.720       -8.223       29.772       24.707       15.008      886.401      610.455      225.231        0.879        0.086      125.646       16.146        0.017      337.781        9.986      858.985
04/16/2014  04:26:00     -134.300      -22.632       -9.209       23.709       19.808       12.055      562.101      392.354      145.330        0.987        0.055      136.194       10.725        0.006      337.784        9.991      859.002
04/16/2014  04:27:00      -69.334      -18.052       -7.361       31.326       11.460        9.642      981.330      131.322       92.969        0.320        0.060       71.646       11.154        0.024      337.928       10.232      859.011
04/16/2014  04:28:00      -45.082      -16.392        2.519       21.180       13.766       12.429      448.580      189.509      154.473        0.155        0.040       47.970       13.205        0.076      338.112       10.542      859.017
04/16/2014  04:29:00      -35.818      -21.401        1.315       15.969       18.503       12.623      255.001      342.347      159.333        0.125        0.038       41.724        8.226        0.039      337.999       10.353      859.031
04/16/2014  04:30:00      -63.413        1.228       -7.724       15.753       16.117       10.507      248.143      259.773      110.403        0.235        0.031       63.425        5.254        0.007      337.811       10.037      859.039
04/16/2014  04:31:00      -50.793      -30.595       -6.203       13.181       12.593        8.608      173.741      158.595       74.095        0.198        0.020       59.296        4.599        0.006      337.767        9.965      859.036
04/16/2014  04:32:00      -37.433      -21.265      -11.400       10.210        9.387        6.840      104.253       88.110       46.788        0.111        0.012       43.051        6.105        0.020      337.870       10.136      859.030
04/16/2014  04:33:00      -13.183      -23.525       -1.183       17.239       10.599       11.557      297.183      112.339      133.571        0.064        0.027       26.967       11.516        0.182      337.919       10.217      859.029
04/16/2014  04:34:00      -55.014      -35.569       -9.330       16.000       11.464        9.839      255.993      131.420       96.808        0.243        0.024       65.511        4.783        0.005      337.882       10.157      859.039
04/16/2014  04:35:00      -35.984      -25.222        3.698       28.007       15.705       11.191      784.401      246.639      125.233        0.155        0.058       43.943       14.773        0.113      337.860       10.119      859.037
04/16/2014  04:36:00      -63.570      -31.465       -6.954        8.072        8.608        6.442       65.161       74.091       41.502        0.263        0.009       70.931        5.503        0.006      337.903       10.191      859.025
04/16/2014  04:37:00      -68.904      -34.193       -7.152       13.191       10.805        8.003      173.996      116.739       64.040        0.316        0.018       76.922        5.872        0.006      337.953       10.273      859.023
04/16/2014  04:38:00      -66.494      -31.190       -4.478       15.829       10.332        6.860      250.551      106.742       47.061        0.291        0.020       73.446        4.164        0.003      337.953       10.275      859.028
04/16/2014  04:39:00      -60.147      -32.360       -4.016       11.959       11.476        4.033      143.023      131.698       16.269        0.249        0.015       68.299        3.237        0.002      338.040       10.419      859.033
04/16/2014  04:40:00      -55.040      -12.873       -6.223        6.802        7.682        5.083       46.268       59.012       25.840        0.168        0.007       56.525        2.701        0.002      338.148       10.604      859.029
04/16/2014  04:41:00      -52.359       -8.179       -5.857        6.891        7.907        6.028       47.489       62.522       36.343        0.149        0.007       52.994        3.907        0.005      338.284       10.831      859.027
04/16/2014  04:42:00      -54.544      -28.142       -2.464       19.998       10.452        9.039      399.925      109.249       81.711        0.218        0.030       61.376        7.807        0.016      338.105       10.530      859.041
04/16/2014  04:43:00      -65.991      -31.140       -5.395       39.351       17.575       13.245     1548.480      308.876      175.435        0.369        0.102       72.969       19.073        0.068      337.937       10.249      859.049
04/16/2014  04:44:00     -104.354      -15.865       -6.337       22.166       17.305       12.007      491.334      299.455      144.175        0.606        0.047      105.553        8.964        0.007      337.815       10.044      859.051
04/16/2014  04:45:00      -98.760        2.250       -6.913       52.834       45.095       29.874     2791.418     2033.590      892.477        0.776        0.286       98.786       25.058        0.064      337.386        9.325      859.064
04/16/2014  04:46:00     -115.664       25.968      -16.157       56.936       43.831       26.340     3241.693     1921.168      693.808        1.008        0.293      118.543       22.840        0.037      337.327        9.227      859.081
04/16/2014  04:47:00     -161.263       47.170      -13.959       33.242       26.533       18.830     1105.050      703.992      354.557        1.529        0.108      168.020       12.077        0.005      337.593        9.672      859.099
04/16/2014  04:48:00     -130.724       30.975      -15.916       30.025       25.546       19.361      901.501      652.584      374.841        1.011        0.096      134.343       12.775        0.009      337.615        9.710      859.103
04/16/2014  04:49:00     -114.275        7.315      -10.093       21.056       29.586       14.741      443.370      875.355      217.293        0.737        0.077      114.509       10.526        0.008      337.662        9.788      859.099
04/16/2014  04:50:00      -83.206        2.221      -13.461       20.845       28.108       22.404      434.505      790.084      501.923        0.442        0.086       83.236       15.256        0.034      337.699        9.849      859.091
04/16/2014  04:51:00     -119.693       -6.274      -12.519       32.319       26.821       18.017     1044.522      719.392      324.615        0.831        0.104      119.858       16.551        0.019      337.679        9.816      859.083
04/16/2014  04:52:00     -178.131       41.791      -24.397       47.588       41.011       20.015     2264.637     1681.900      400.589        1.921        0.217      182.968       20.862        0.013      337.476        9.474      859.084
04/16/2014  04:53:00     -154.740       13.833      -23.913       55.833       64.179       26.796     3117.275     4118.912      718.013        1.633        0.398      155.357       24.954        0.026      337.351        9.265      859.061
04/16/2014  04:54:00     -140.719      -23.336      -14.500       37.155       33.995       27.059     1380.507     1155.685      732.197        1.191        0.163      142.641       24.357        0.029      337.291        9.167      859.030
04/16/2014  04:55:00     -111.536      -25.741       -5.558       39.662       40.456       23.113     1573.070     1636.719      534.198        0.844        0.187      114.468       18.812        0.027      337.259        9.111      859.012
04/16/2014  04:56:00     -144.648        6.587      -13.250       30.280       30.898       18.181      916.874      954.693      330.557        1.167        0.110      144.798       14.750        0.010      337.300        9.181      859.003
04/16/2014  04:57:00     -128.014       42.170       -6.152       40.017       19.590       14.936     1601.357      383.783      223.092        1.021        0.110      134.781       10.404        0.006      337.529        9.566      858.992
04/16/2014  04:58:00      -85.032       -1.690        0.085       34.687       19.821       16.496     1203.196      392.884      272.102        0.455        0.093       85.048       18.155        0.046      337.548        9.596      858.991
04/16/2014  04:59:00      -53.070      -43.122       -2.104       23.226       18.445       10.162      539.434      340.234      103.258        0.283        0.049       68.381       10.662        0.024      337.606        9.695      858.994
04/16/2014  05:00:00      -79.745      -18.512       -4.490       33.811       38.609       20.802     1143.182     1490.681      432.727        0.489        0.153       81.866       17.218        0.044      337.461        9.451      859.000
04/16/2014  05:01:00     -120.138       20.619      -15.880       44.454       39.889       22.316     1976.155     1591.162      498.015        0.959        0.203      121.895       21.496        0.031      337.466        9.460      858.992
04/16/2014  05:02:00      -33.898      -47.054        6.787       27.090       18.198       17.139      733.888      331.153      293.759        0.238        0.068       57.992       15.174        0.068      337.573        9.638      858.976
04/16/2014  05:03:00      -55.221      -45.638        3.934       20.561       23.092       14.065      422.740      533.225      197.836        0.315        0.058       71.639       11.347        0.025      337.671        9.803      858.935
04/16/2014  05:04:00      -78.639      -29.858        0.714       22.758       20.480       12.554      517.906      419.434      157.608        0.409        0.055       84.117       10.193        0.015      337.723        9.890      858.903
04/16/2014  05:05:00      -92.244      -50.936       -0.951       24.998       25.906       13.045      624.905      671.134      170.163        0.628        0.073      105.373        9.939        0.009      337.695        9.843      858.901
04/16/2014  05:06:00      -72.293      -15.705       -3.230       21.682       20.621       12.426      470.099      425.213      154.402        0.327        0.052       73.979       12.128        0.027      337.434        9.404      858.907
04/16/2014  05:07:00      -65.203        2.298       -6.951       14.205        9.822        7.940      201.790       96.474       63.048        0.233        0.018       65.243        5.931        0.008      337.418        9.379      858.908
04/16/2014  05:08:00      -97.936      -26.411       -9.652       16.224       16.911       10.570      263.215      285.999      111.723        0.552        0.033      101.435        4.133        0.002      337.599        9.682      858.916
04/16/2014  05:09:00      -59.669      -66.829       -1.156       31.976       39.774       16.204     1022.470     1581.989      262.558        0.545        0.143       89.590       18.203        0.041      337.614        9.707      858.901
04/16/2014  05:10:00      -39.304      -59.770       -0.792       17.364       23.102       11.376      301.521      533.682      129.424        0.304        0.048       71.535        8.726        0.015      337.752        9.938      858.885
04/16/2014  05:11:00      -15.450      -59.542        0.650       14.488       12.356        9.973      209.898      152.672       99.465        0.212        0.023       61.514        6.604        0.012      337.838       10.081      858.881
04/16/2014  05:12:00      -16.633      -18.791       -3.642       11.414       29.108       11.109      130.276      847.296      123.399        0.087        0.055       25.095       12.147        0.234      337.790       10.002      858.872
04/16/2014  05:13:00      -21.954        0.710       -1.743       13.689       14.902        5.003      187.391      222.082       25.027        0.046        0.022       21.966        5.810        0.070      337.719        9.883      858.884
04/16/2014  05:14:00        0.429       -1.448        6.399        6.415       13.528        6.028       41.157      183.012       36.342        0.015        0.013        1.511        3.941        6.805      337.678        9.813      858.909
04/16/2014  05:15:00       -8.341      -37.281      -17.592       11.366       16.809       12.367      129.193      282.532      152.940        0.117        0.028       38.202        8.343        0.048      337.845       10.094      858.920
04/16/2014  05:16:00       11.014      -29.886        3.862       17.610       16.152       15.548      310.123      260.895      241.732        0.092        0.041       31.851        8.748        0.075      337.994       10.345      858.933
04/16/2014  05:17:00       11.055       -0.675       -0.225       17.221       21.242       19.209      296.548      451.242      368.984        0.062        0.056       11.075       15.464        1.950      337.835       10.076      858.953
04/16/2014  05:18:00        9.189       23.191        3.504       10.788       26.007       14.206      116.378      676.339      201.820        0.081        0.050       24.945        9.459        0.144      337.574        9.639      858.973
04/16/2014  05:19:00        6.147       47.939       -3.097       13.215       32.542       12.868      174.630     1058.973      165.581        0.187        0.070       48.332        8.353        0.030      337.312        9.203      858.985
04/16/2014  05:20:00       -3.403      -10.152       -6.725       17.140        7.736        4.277      293.763       59.851       18.289        0.027        0.019       10.708        3.613        0.114      337.377        9.310      858.994
04/16/2014  05:21:00      -45.352       -2.631       -5.930       18.209        6.306        7.272      331.551       39.764       52.880        0.126        0.021       45.428        6.244        0.019      337.486        9.493      858.996
04/16/2014  05:22:00      -79.033      -38.693       -9.160       10.917       18.486        7.210      119.185      341.742       51.989        0.417        0.026       87.996        3.773        0.002      337.592        9.670      859.009
04/16/2014  05:23:00      -39.208      -35.434        5.043       32.990       21.512       15.920     1088.363      462.771      253.451        0.231        0.090       52.847       16.177        0.094      337.546        9.593      859.023
04/16/2014  05:24:00     -103.319      -53.306       -0.074       43.883       16.901       16.193     1925.756      285.643      262.224        0.799        0.124      116.260       20.455        0.031      337.572        9.635      859.037
04/16/2014  05:25:00     -110.742      -26.421        1.388       30.500       33.620       19.582      930.272     1130.287      383.440        0.770        0.122      113.850       14.722        0.017      337.440        9.416      859.037
04/16/2014  05:26:00     -120.851      -20.874       -6.395       33.941       27.934       21.531     1151.960      780.306      463.595        0.874        0.120      122.640       19.114        0.024      337.350        9.265      859.035
04/16/2014  05:27:00     -115.006      -13.886       -7.051       33.763       24.598       19.404     1139.934      605.062      376.527        0.779        0.106      115.842       17.921        0.024      337.249        9.093      859.025
04/16/2014  05:28:00     -110.323      -65.029       -1.559       31.898       21.732       16.100     1017.471      472.283      259.195        0.908        0.087      128.063       16.554        0.017      337.416        9.374      859.019
04/16/2014  05:29:00      -84.959      -89.495        0.824       43.618       30.038       25.297     1902.495      902.252      639.950        0.934        0.172      123.400       27.499        0.050      337.521        9.550      859.013
04/16/2014  05:30:00      -91.776      -99.940        0.506       48.812       38.164       30.548     2382.610     1456.486      933.186        1.159        0.239      135.686       32.270        0.057      337.521        9.551      859.005
04/16/2014  05:31:00     -117.610     -106.243        0.759       49.195       33.959       27.545     2420.102     1153.194      758.731        1.473        0.217      158.492       25.594        0.026      337.553        9.604      859.000
04/16/2014  05:32:00     -171.828     -104.260       -3.678       53.372       40.386       22.381     2848.538     1631.033      500.920        2.269        0.249      200.985       22.558        0.013      337.525        9.555      859.001
04/16/2014  05:33:00      -69.552      -67.742       11.966       52.544       47.327       32.964     2760.924     2239.811     1086.612        0.783        0.304       97.090       28.977        0.089      337.435        9.407      859.009
04/16/2014  05:34:00      -95.217      -56.110        4.592       49.430       47.641       31.369     2443.344     2269.693      984.020        0.897        0.285      110.520       30.193        0.075      337.446        9.426      859.019
04/16/2014  05:35:00     -135.493       10.356      -18.093       46.517       38.991       21.182     2163.842     1520.315      448.690        1.146        0.207      135.888       18.150        0.018      337.236        9.074      859.038
04/16/2014  05:36:00     -104.266      -63.346        6.289       48.764       25.985       24.047     2377.949      675.236      578.277        0.928        0.182      122.001       25.763        0.045      337.301        9.184      859.020
04/16/2014  05:37:00      -71.718      -40.300        4.568       63.860       30.895       27.868     4078.138      954.498      776.598        0.630        0.290       82.265       35.916        0.191      337.408        9.362      859.005
04/16/2014  05:38:00      -79.663      -19.518       -2.051       55.158       31.244       23.872     3042.402      976.192      569.880        0.566        0.229       82.019       28.651        0.122      337.279        9.146      859.027
04/16/2014  05:39:00      -72.288      -13.543        1.996       32.697       25.355       20.322     1069.063      642.851      412.966        0.377        0.106       73.546       18.924        0.066      337.199        9.013      859.043
04/16/2014  05:40:00      -79.852      -18.851        1.074       39.002       29.386       20.478     1521.133      863.518      419.331        0.477        0.140       82.047       19.267        0.055      337.094        8.835      859.043
04/16/2014  05:41:00     -152.393      -25.330       -9.240       50.609       37.156       21.375     2561.295     1380.549      456.895        1.417        0.220      154.484       24.333        0.025      337.040        8.745      859.050
04/16/2014  05:42:00     -113.774      -45.288        1.672       58.909       25.070       25.371     3470.246      628.516      643.666        0.987        0.237      122.456       26.370        0.046      337.010        8.695      859.058
04/16/2014  05:43:00      -58.892      -28.734        7.357       38.411       29.641       16.298     1475.386      878.566      265.627        0.348        0.131       65.528       15.328        0.055      337.150        8.931      859.073
04/16/2014  05:44:00     -113.403      -35.218       -3.120       49.797       27.285       24.238     2479.749      744.459      587.494        0.896        0.191      118.746       25.534        0.046      337.252        9.101      859.078
04/16/2014  05:45:00      -80.127      -29.364        1.980       34.225       25.506       19.666     1171.347      650.542      386.761        0.475        0.110       85.338       19.953        0.055      337.120        8.880      859.071
04/16/2014  05:46:00      -73.517      -39.971       -6.805       20.091       19.269       15.468      403.647      371.314      239.263        0.403        0.051       83.681        9.742        0.014      337.239        9.078      859.074
04/16/2014  05:47:00      -74.999      -25.676       -0.679       25.276       23.059       14.349      638.887      531.717      205.901        0.383        0.069       79.272       13.561        0.029      337.307        9.192      859.079
04/16/2014  05:48:00      -64.036      -40.064        0.137       37.642       21.640       13.448     1416.946      468.276      180.841        0.389        0.103       75.536       14.226        0.035      337.259        9.113      859.080
04/16/2014  05:49:00      -38.189      -34.892       -1.497       29.079       12.949       12.611      845.602      167.676      159.038        0.192        0.059       51.729        9.098        0.031      337.321        9.216      859.064
04/16/2014  05:50:00      -11.081      -15.669       -0.327       14.912       13.418        9.151      222.380      180.046       83.732        0.043        0.024       19.192        7.508        0.153      337.319        9.211      859.071
04/16/2014  05:51:00       31.572       41.987       -1.792       19.552       34.592       16.969      382.290     1196.616      287.961        0.231        0.093       52.533       12.318        0.055      337.234        9.071      859.077
04/16/2014  05:52:00      121.776       60.766       12.444       39.057       26.776       31.323     1525.479      716.938      981.125        1.095        0.161      136.095       17.038        0.016      336.973        8.633      859.081
04/16/2014  05:53:00       49.120       53.514       52.626       42.008       23.591       27.149     1764.670      556.515      737.043        0.555        0.153       72.640       24.632        0.115      336.931        8.565      859.080
04/16/2014  05:54:00       56.306       35.852       57.144       44.510       31.344       27.039     1981.105      982.431      731.090        0.571        0.185       66.751       28.982        0.189      337.109        8.860      859.096
04/16/2014  05:55:00       27.154      -21.521       23.109       31.378       44.315       25.571      984.552     1963.810      653.882        0.267        0.180       34.648       27.626        0.636      337.154        8.938      859.100
04/16/2014  05:56:00       28.845      -27.601       -2.406       25.012       25.772       20.100      625.617      664.181      403.997        0.165        0.085       39.923       13.313        0.111      337.277        9.143      859.096
04/16/2014  05:57:00       25.195      -60.216      -17.815       25.546       28.008       16.411      652.590      784.449      269.313        0.314        0.085       65.275       11.686        0.032      337.377        9.310      859.095
04/16/2014  05:58:00      -17.106      -21.913       -0.556       30.216       17.264       15.397      912.985      298.048      237.062        0.111        0.072       27.799        6.842        0.061      337.325        9.222      859.099
04/16/2014  05:59:00      -47.540      -31.641        5.644       32.740       20.753       14.856     1071.894      430.693      220.702        0.251        0.086       57.107       14.699        0.066      337.258        9.112      859.086
04/16/2014  06:00:00      -20.093      -35.678       11.633       33.894       28.185       23.413     1148.801      794.377      548.170        0.215        0.125       40.947       23.575        0.331      337.279        9.147      859.063
04/16/2014  06:01:00      -76.922      -80.057       -1.195       43.411       49.463       26.779     1884.548     2446.617      717.110        0.869        0.252      111.023       17.646        0.025      337.238        9.077      859.045
04/16/2014  06:02:00     -117.251     -106.083       -5.513       50.905       35.135       31.172     2591.320     1234.462      971.664        1.491        0.240      158.118       32.036        0.041      337.307        9.192      859.048
04/16/2014  06:03:00      -88.371      -82.975        6.156       42.640       40.618       29.247     1818.138     1649.862      855.391        0.953        0.216      121.220       27.623        0.052      337.273        9.136      859.050
04/16/2014  06:04:00      -93.105      -91.723        4.766       33.620       31.257       18.006     1130.332      976.984      324.230        0.977        0.122      130.697       15.364        0.014      337.273        9.136      859.049
04/16/2014  06:05:00      -94.992      -54.453       -0.338       38.939       23.787       19.695     1516.229      565.842      387.911        0.723        0.123      109.493       16.064        0.022      337.312        9.201      859.049
04/16/2014  06:06:00      -43.610      -43.129       13.261       56.128       29.426       23.205     3150.309      865.887      538.472        0.425        0.228       61.334       26.684        0.189      337.299        9.179      859.060
04/16/2014  06:07:00      -36.570      -48.299        6.704       37.296       21.189       16.912     1390.982      448.956      286.001        0.292        0.106       60.582       15.566        0.066      337.301        9.183      859.074
04/16/2014  06:08:00      -76.870      -72.284       -5.922       30.800       38.578       16.494      948.642     1488.283      272.051        0.694        0.135      105.518        9.882        0.009      337.235        9.072      859.078
04/16/2014  06:09:00     -104.129      -83.918      -15.637       21.336       22.474       13.575      455.239      505.074      184.278        0.964        0.057      133.735        9.756        0.005      337.171        8.966      859.076
04/16/2014  06:10:00      -87.859      -45.881        0.090       47.994       28.494       19.536     2303.444      811.934      381.652        0.666        0.175       99.117       25.307        0.065      337.167        8.957      859.091
04/16/2014  06:11:00      -91.767      -57.769       -1.412       32.854       30.473       19.899     1079.373      928.609      395.952        0.708        0.120      108.436       15.033        0.019      337.118        8.876      859.096
04/16/2014  06:12:00      -16.986      -31.857        8.672       33.577       33.158       22.899     1127.422     1099.480      524.368        0.206        0.138       36.103       20.364        0.318      337.107        8.856      859.103
04/16/2014  06:13:00      -53.054      -43.385        0.373       38.495       23.839       18.057     1481.883      568.287      326.055        0.354        0.119       68.535       18.511        0.073      337.043        8.750      859.105
04/16/2014  06:14:00     -100.820      -49.925       -6.466       25.793       18.032       15.375      665.304      325.156      236.399        0.696        0.061      112.504       10.422        0.009      337.033        8.734      859.121
04/16/2014  06:15:00      -99.456      -37.647       -1.632       35.921       24.581       20.567     1290.309      604.226      423.010        0.681        0.116      106.343       14.315        0.018      336.976        8.638      859.148
04/16/2014  06:16:00     -108.519      -42.817       -2.311       26.517       29.505       16.074      703.128      870.528      258.366        0.772        0.092      116.660        9.781        0.007      336.952        8.598      859.164
04/16/2014  06:17:00     -106.576      -56.241       -1.052       38.361       21.854       18.410     1471.569      477.616      338.936        0.840        0.114      120.505       20.579        0.029      336.890        8.495      859.176
04/16/2014  06:18:00      -36.697      -50.477        4.863       37.958       26.331       20.489     1440.845      693.338      419.814        0.324        0.128       62.407       11.464        0.034      336.999        8.678      859.185
04/16/2014  06:19:00      -67.636      -38.773        2.635       52.762       25.907       20.661     2783.805      671.198      426.874        0.498        0.194       77.961       21.776        0.078      336.997        8.674      859.208
04/16/2014  06:20:00     -117.015      -63.683        1.893       27.863       26.176       18.526      776.374      685.199      343.204        0.978        0.090      133.222       13.614        0.010      336.910        8.530      859.242
04/16/2014  06:21:00      -69.082      -56.159       -1.362       36.026       29.855       14.102     1297.884      891.312      198.873        0.516        0.119       89.029       19.058        0.046      336.920        8.545      859.258
04/16/2014  06:22:00      -65.846      -60.325       -9.351       13.536       19.259       10.997      183.213      370.923      120.941        0.437        0.034       89.302        9.264        0.011      336.999        8.676      859.274
04/16/2014  06:23:00      -49.616      -42.967       -7.727       21.150       23.274        9.271      447.334      541.663       85.943        0.272        0.054       65.635        4.479        0.005      337.029        8.725      859.289
04/16/2014  06:24:00      -35.833      -56.834       -2.235       32.948       16.778       15.463     1085.567      281.511      239.104        0.306        0.080       67.187       11.643        0.030      337.015        8.702      859.301
04/16/2014  06:25:00      -18.192      -27.919        6.428       27.735       20.491       12.924      769.257      419.870      167.028        0.125        0.068       33.323       13.786        0.171      336.962        8.615      859.301
04/16/2014  06:26:00      -45.624      -30.996        3.588       42.385       25.288       19.996     1796.482      639.480      399.832        0.294        0.142       55.157       21.151        0.147      336.915        8.536      859.297
04/16/2014  06:27:00      -82.337      -48.063       -5.037       30.022       23.449       18.243      901.311      549.865      332.800        0.545        0.089       95.338       13.864        0.021      336.872        8.464      859.289
04/16/2014  06:28:00      -96.675      -27.097       -8.289       14.187       20.140       13.595      201.258      405.613      184.819        0.547        0.040      100.400        8.408        0.007      336.797        8.342      859.296
04/16/2014  06:29:00     -103.106      -15.714       -2.936       38.202       20.997       16.979     1459.369      440.864      288.289        0.654        0.109      104.296       19.004        0.033      336.691        8.164      859.302
04/16/2014  06:30:00     -115.176      -17.211       -4.369       26.966       20.918       14.378      727.177      437.545      206.727        0.748        0.069      116.455       11.065        0.009      336.719        8.211      859.306
04/16/2014  06:31:00      -70.522      -12.025       -3.738       33.396       23.756       19.462     1115.307      564.339      378.785        0.359        0.103       71.540       20.277        0.080      336.732        8.232      859.317
04/16/2014  06:32:00     -102.094      -12.014      -10.870       26.656       23.726       15.052      710.538      562.940      226.551        0.609        0.075      102.799       13.093        0.016      336.738        8.242      859.333
04/16/2014  06:33:00     -105.999      -20.867       -4.941       26.531       29.360       16.950      703.870      861.987      287.309        0.677        0.093      108.033       13.888        0.017      336.723        8.217      859.351
04/16/2014  06:34:00      -92.494      -17.565       -4.260       29.844       22.910       15.385      890.675      524.872      236.709        0.527        0.083       94.147       10.958        0.014      336.756        8.272      859.360
04/16/2014  06:35:00      -96.228       -2.087        1.313       41.526       27.583       14.650     1724.446      760.812      214.635        0.598        0.135       96.251       15.546        0.026      336.673        8.135      859.364
04/16/2014  06:36:00      -74.279      -31.596        2.596       31.351       38.720       18.246      982.913     1499.263      332.927        0.467        0.141       80.719       21.717        0.072      336.709        8.194      859.376
04/16/2014  06:37:00      -59.243      -39.837       -1.463       35.623       25.155       16.615     1268.981      632.759      276.054        0.364        0.109       71.391       16.094        0.051      336.729        8.228      859.379
04/16/2014  06:38:00      -71.115       -9.366       -9.368       21.615       23.299       14.629      467.201      542.847      214.019        0.323        0.061       71.729        9.554        0.018      336.711        8.198      859.397
04/16/2014  06:39:00      -23.333      -49.139       -0.892       25.929       21.828       14.612      672.334      476.468      213.514        0.216        0.068       54.397       12.477        0.053      336.838        8.409      859.407
04/16/2014  06:40:00      -38.398      -48.404       -2.753       24.527       22.624       13.768      601.576      511.826      189.566        0.256        0.065       61.784       12.725        0.042      336.864        8.452      859.412
04/16/2014  06:41:00      -24.189      -34.075        5.410       14.766       17.803       11.709      218.045      316.946      137.106        0.122        0.034       41.788        9.152        0.048      336.867        8.458      859.417
04/16/2014  06:42:00      -29.131      -36.964       -2.550       23.402       13.229       15.851      547.673      175.000      251.254        0.160        0.049       47.064       10.111        0.046      336.912        8.530      859.409
04/16/2014  06:43:00      -26.436      -36.028       -2.059       26.633       18.805       15.697      709.310      353.643      246.411        0.165        0.065       44.687       14.625        0.107      336.873        8.466      859.395
04/16/2014  06:44:00       -1.420       -0.934        5.645       19.081       12.098       17.696      364.080      146.356      313.133        0.043        0.041        1.699        6.812       16.068      336.911        8.531      859.389
04/16/2014  06:45:00      -16.331       -7.457       -1.187       10.288        8.158        7.413      105.837       66.560       54.954        0.028        0.011       17.953        4.060        0.051      336.795        8.336      859.382
04/16/2014  06:46:00      -64.838      -41.469        5.038       42.295       30.048       25.238     1788.903      902.864      636.968        0.464        0.166       76.965       24.334        0.100      336.737        8.241      859.378
04/16/2014  06:47:00     -107.915      -94.575       -5.990       36.170       37.587       28.839     1308.288     1412.759      831.702        1.209        0.178      143.492       21.629        0.023      336.624        8.052      859.381
04/16/2014  06:48:00     -117.095     -127.039      -11.388       41.235       29.130       23.627     1700.331      848.544      558.242        1.654        0.155      172.772       24.757        0.021      336.644        8.085      859.393
04/16/2014  06:49:00     -109.308     -108.357       -7.528       34.788       34.769       24.396     1210.207     1208.880      595.153        1.338        0.151      153.913       19.661        0.016      336.685        8.153      859.405
04/16/2014  06:50:00     -122.300      -63.921       -6.615       34.905       29.675       21.049     1218.338      880.601      443.080        1.081        0.127      137.997       17.405        0.016      336.789        8.327      859.412
04/16/2014  06:51:00     -124.219      -51.765       -2.041       49.224       26.794       22.688     2423.004      717.914      514.729        1.088        0.183      134.573       23.491        0.030      336.754        8.270      859.414
04/16/2014  06:52:00      -84.367      -68.471       -0.418       36.726       28.339       20.554     1348.833      803.109      422.477        0.719        0.129      108.656       19.725        0.033      336.811        8.363      859.413
04/16/2014  06:53:00     -104.364      -62.418      -14.833       26.692       24.194       17.654      712.451      585.342      311.672        0.831        0.080      121.606       12.008        0.010      336.825        8.387      859.407
04/16/2014  06:54:00      -65.741      -26.183        9.248       38.845       36.700       21.451     1508.910     1346.883      460.154        0.420        0.166       70.763       22.585        0.102      336.864        8.452      859.412
04/16/2014  06:55:00      -65.573      -51.786       -7.956       59.653       37.880       34.713     3558.430     1434.862     1205.008        0.662        0.310       83.556       38.298        0.210      336.835        8.404      859.413
04/16/2014  06:56:00      -29.656      -44.082       14.080       44.492       33.019       25.901     1979.582     1090.249      670.866        0.338        0.187       53.129       28.124        0.280      336.846        8.422      859.413
04/16/2014  06:57:00      -39.147      -55.158        7.221       47.095       27.227       22.772     2217.943      741.320      518.586        0.405        0.174       67.638       23.555        0.121      336.892        8.499      859.403
04/16/2014  06:58:00      -66.144      -84.839       -3.704       44.638       36.517       25.259     1992.547     1333.473      637.997        0.777        0.198      107.577       18.976        0.031      336.830        8.395      859.405
04/16/2014  06:59:00      -82.935      -76.247       -9.598       34.140       30.068       22.763     1165.528      904.059      518.145        0.769        0.129      112.658       12.313        0.012      336.777        8.307      859.403
04/16/2014  07:00:00       -5.239      -45.837        7.633       26.523       33.989       30.136      703.455     1155.282      908.168        0.248        0.138       46.135       19.785        0.184      336.808        8.361      859.410
04/16/2014  07:01:00      -30.337      -30.308        6.074       36.053       45.048       27.938     1299.837     2029.324      780.543        0.299        0.205       42.882       26.737        0.389      336.735        8.236      859.424
04/16/2014  07:02:00      -48.775      -47.802        7.394       44.745       34.614       26.521     2002.076     1198.162      703.385        0.431        0.195       68.294       26.631        0.152      336.599        8.010      859.446
04/16/2014  07:03:00     -106.041     -100.637       -4.819       33.714       32.728       22.976     1136.610     1071.117      527.882        1.207        0.137      146.194       16.451        0.013      336.555        7.936      859.480
04/16/2014  07:04:00      -88.995      -84.440       -4.887       37.952       31.506       18.224     1440.358      992.617      332.109        0.892        0.138      122.680       19.452        0.025      336.621        8.046      859.502
04/16/2014  07:05:00      -86.260      -82.713       -3.531       28.140       23.851       21.214      791.854      568.870      450.037        0.805        0.091      119.509       19.645        0.027      336.644        8.085      859.520
04/16/2014  07:06:00      -70.323      -62.683      -12.183       15.997       18.623       11.593      255.889      346.817      134.399        0.488        0.037       94.204        7.713        0.007      336.704        8.184      859.523
04/16/2014  07:07:00      -70.901      -84.119       -7.785       25.277       28.012       19.044      638.947      784.648      362.677        0.697        0.089      110.014       13.613        0.015      336.749        8.261      859.521
04/16/2014  07:08:00      -41.000      -55.751       13.066       38.354       24.264       23.784     1471.058      588.738      565.690        0.379        0.131       69.203       24.229        0.123      336.853        8.432      859.518
04/16/2014  07:09:00      -80.126      -87.256       -2.415       24.226       20.935       16.727      586.894      438.284      279.797        0.767        0.065      118.464       15.779        0.018      336.751        8.265      859.509
04/16/2014  07:10:00      -77.576      -70.731       -0.611       48.096       32.771       21.937     2313.265     1073.957      481.236        0.744        0.193      104.981       28.375        0.073      336.870        8.462      859.505
04/16/2014  07:11:00      -43.991      -39.281       10.156       43.568       33.030       22.366     1898.198     1090.960      500.252        0.353        0.174       58.976       22.772        0.149      336.935        8.571      859.513
04/16/2014  07:12:00      -79.519      -47.352        4.691       55.083       26.508       19.069     3034.141      702.688      363.629        0.634        0.205       92.549       27.564        0.089      337.018        8.709      859.513
04/16/2014  07:13:00      -79.971      -68.304        4.520       32.942       33.337       24.119     1085.175     1111.388      581.710        0.693        0.139      105.170       23.362        0.049      336.973        8.633      859.533
04/16/2014  07:14:00      -92.891      -31.036       -4.351       41.057       36.998       21.911     1685.704     1368.851      480.102        0.657        0.177       97.939       20.315        0.043      336.968        8.622      859.551
04/16/2014  07:15:00      -73.067      -18.162       -7.143       32.968       18.839       19.943     1086.911      354.898      397.713        0.378        0.092       75.291       18.883        0.063      337.099        8.844      859.561
04/16/2014  07:16:00      -53.719      -40.036       -1.924       30.827       26.310       16.654      950.292      692.201      277.358        0.321        0.096       66.998       17.526        0.068      337.130        8.895      859.570
04/16/2014  07:17:00       -3.894      -28.073        3.467       25.611       21.478       15.521      655.898      461.296      240.905        0.109        0.068       28.342       14.667        0.268      337.259        9.111      859.598
04/16/2014  07:18:00       -6.954      -16.158        7.364       14.489       17.505       15.718      209.930      306.426      247.067        0.056        0.038       17.591       11.537        0.430      337.394        9.338      859.630
04/16/2014  07:19:00      -37.066      -43.821       -0.993       11.241       27.150        8.431      126.356      737.119       71.087        0.211        0.047       57.394        7.342        0.016      337.219        9.046      859.654
04/16/2014  07:20:00      -53.680      -46.556        9.731       16.212       28.690       13.540      262.816      823.096      183.321        0.321        0.063       71.057       11.852        0.028      337.214        9.038      859.671
04/16/2014  07:21:00      -33.253      -43.516        6.403       19.420       22.033       10.768      377.153      485.437      115.954        0.201        0.049       54.767        8.812        0.026      337.270        9.131      859.683
04/16/2014  07:22:00      -42.746      -32.861        3.134       21.004       21.951       13.486      441.159      481.857      181.885        0.201        0.055       53.917       10.971        0.041      337.324        9.222      859.702
04/16/2014  07:23:00      -49.268      -19.308       -2.038       28.387       21.948       16.049      805.821      481.721      257.586        0.217        0.077       52.917       13.135        0.062      337.344        9.255      859.706
04/16/2014  07:24:00      -27.704      -25.212        8.381       31.694       24.759       19.367     1004.491      613.001      375.072        0.173        0.100       37.459       18.970        0.256      337.461        9.451      859.711
04/16/2014  07:25:00      -56.055      -53.842        1.037       42.095       37.061       19.969     1771.973     1373.537      398.761        0.479        0.177       77.725       20.998        0.073      337.372        9.300      859.710
04/16/2014  07:26:00      -48.612      -45.716        6.100       31.931       33.998       20.841     1019.618     1155.863      434.346        0.355        0.130       66.731       18.061        0.073      337.357        9.274      859.715
04/16/2014  07:27:00      -47.775      -48.284        9.254       39.071       32.925       22.038     1526.575     1084.058      485.689        0.390        0.155       67.925       20.826        0.094      337.369        9.295      859.716
04/16/2014  07:28:00      -87.351      -78.413       -0.072       40.794       49.026       22.946     1664.181     2403.532      526.537        0.919        0.230      117.383       27.760        0.056      337.276        9.140      859.711
04/16/2014  07:29:00      -90.934      -75.269        1.475       40.902       35.461       24.298     1672.957     1257.463      590.407        0.873        0.176      118.045       23.220        0.039      337.288        9.161      859.726
04/16/2014  07:30:00      -87.597      -68.166       -1.896       36.611       26.537       19.656     1340.351      704.228      386.364        0.738        0.122      110.995       16.146        0.021      337.306        9.191      859.734
04/16/2014  07:31:00      -80.547      -80.091       -6.415       21.113       19.960       13.586      445.760      398.411      184.571        0.699        0.051      113.589       12.223        0.012      337.344        9.255      859.742
04/16/2014  07:32:00      -37.274      -60.024        7.336       26.402       32.035       18.263      697.080     1026.246      333.546        0.355        0.103       70.656       20.753        0.086      337.525        9.557      859.750
04/16/2014  07:33:00      -39.750      -53.749       -6.755       26.322       20.235       13.131      692.873      409.469      172.427        0.289        0.064       66.850        7.819        0.014      337.538        9.580      859.758
04/16/2014  07:34:00      -51.199      -54.833        3.703       37.669       27.832       17.444     1418.964      774.635      304.307        0.407        0.125       75.020       14.038        0.035      337.601        9.685      859.766
04/16/2014  07:35:00      -47.956      -50.250        1.104       28.119       26.960       17.202      790.681      726.862      295.903        0.332        0.091       69.461       12.089        0.030      337.600        9.683      859.768
04/16/2014  07:36:00      -39.324      -42.421        8.691       35.432       21.057       22.616     1255.426      443.380      511.481        0.282        0.111       57.844       24.332        0.177      337.744        9.924      859.750
04/16/2014  07:37:00     -121.184     -104.858       -6.478       33.970       28.377       18.108     1153.930      805.251      327.899        1.400        0.114      160.252       16.135        0.010      337.536        9.574      859.749
04/16/2014  07:38:00      -81.813      -94.200       -5.778       50.868       49.733       26.849     2587.551     2473.367      720.859        1.069        0.289      124.768       31.642        0.064      337.585        9.659      859.754
04/16/2014  07:39:00      -81.225      -95.467       -2.351       41.089       36.538       26.198     1688.265     1335.034      686.312        0.971        0.185      125.345       26.426        0.044      337.604        9.691      859.759
04/16/2014  07:40:00      -88.105      -77.609        1.927       49.857       36.801       27.412     2485.696     1354.315      751.423        0.919        0.230      117.413       24.550        0.044      337.642        9.755      859.756
04/16/2014  07:41:00      -87.052     -109.626       -4.054       36.618       32.827       23.665     1340.884     1077.644      560.016        1.129        0.149      139.986       19.972        0.020      337.652        9.770      859.744
04/16/2014  07:42:00      -75.326     -101.550       -8.836       34.924       29.075       23.770     1219.711      845.366      565.023        0.935        0.132      126.437       12.259        0.009      337.713        9.873      859.735
04/16/2014  07:43:00      -22.032     -131.924       -4.706       17.778       19.841       20.169      316.062      393.658      406.805        0.951        0.056      133.751       14.617        0.012      337.780        9.985      859.738
04/16/2014  07:44:00      -20.782      -43.032        1.747       35.509       32.732       25.078     1260.863     1071.352      628.919        0.262        0.148       47.787       11.762        0.061      337.904       10.194      859.739
04/16/2014  07:45:00      -38.161      -69.778        6.852       21.458       47.232       26.250      460.440     2230.909      689.082        0.488        0.169       79.531       21.403        0.072      337.937       10.249      859.742
04/16/2014  07:46:00      -44.644     -132.198       -7.317       16.292       26.301       12.672      265.432      691.718      160.587        1.032        0.056      139.533        9.234        0.004      337.938       10.253      859.744
04/16/2014  07:47:00      -21.224      -53.098        5.171       19.608       50.103       15.478      384.458     2510.356      239.555        0.321        0.157       57.182       10.355        0.033      338.161       10.625      859.748
04/16/2014  07:48:00      -19.228       -8.683       -4.213       19.782       20.777       11.883      391.335      431.682      141.198        0.071        0.048       21.098        9.768        0.214      338.236       10.750      859.767
04/16/2014  07:49:00      -35.455       11.060       23.540       19.961       15.050       23.252      398.441      226.495      540.647        0.155        0.058       37.140       10.676        0.083      338.321       10.892      859.780
04/16/2014  07:50:00      -39.442       14.312       19.352       15.525       12.730       18.581      241.032      162.051      345.264        0.144        0.037       41.958        8.341        0.040      338.282       10.828      859.791
04/16/2014  07:51:00      -20.255       31.947        0.937       20.811       17.983       23.272      433.101      323.392      541.602        0.136        0.065       37.826       12.782        0.114      338.373       10.980      859.804
04/16/2014  07:52:00      -37.980       28.613        5.084       17.799       17.782       20.675      316.803      316.188      427.472        0.167        0.053       47.552        7.337        0.024      338.298       10.854      859.821
04/16/2014  07:53:00      -29.438        6.892        7.119       15.547       11.887       13.123      241.697      141.294      172.205        0.076        0.028       30.234        7.844        0.067      338.405       11.034      859.829
04/16/2014  07:54:00      -21.030      -12.850       -5.625       16.930       13.853        9.987      286.633      191.918       99.747        0.061        0.029       24.645        6.253        0.064      338.347       10.938      859.838
04/16/2014  07:55:00      -32.860      -20.542       12.890       34.949       34.196       24.529     1221.426     1169.365      601.679        0.233        0.150       38.753       22.272        0.330      338.442       11.098      859.848
04/16/2014  07:56:00      -36.875      -37.789        0.300       31.679       34.839       15.648     1003.538     1213.774      244.873        0.262        0.123       52.800       13.061        0.061      338.328       10.905      859.855
04/16/2014  07:57:00      -74.155      -57.849       -3.591       51.677       50.120       33.582     2670.539     2511.968     1127.739        0.758        0.316       94.051       37.977        0.163      338.254       10.780      859.851
04/16/2014  07:58:00      -51.817      -38.883       -7.765       38.597       42.569       23.634     1489.762     1812.157      558.547        0.406        0.193       64.784       13.232        0.042      338.205       10.698      859.862
04/16/2014  07:59:00      -87.634      -30.860        5.342       54.059       39.792       24.672     2922.362     1583.428      608.722        0.689        0.256       92.909       25.801        0.077      338.241       10.760      859.876
04/16/2014  08:00:00      -16.396      -23.866       -4.748       20.151       18.347       15.892      406.050      336.605      252.560        0.093        0.050       28.955        9.198        0.101      338.245       10.765      859.890
04/16/2014  08:01:00      -36.408      -40.002        1.558       28.764       37.409       20.309      827.379     1399.462      412.455        0.278        0.132       54.089       22.686        0.176      338.239       10.756      859.882
04/16/2014  08:02:00      -15.377       13.118       26.558       24.366       16.628       15.366      593.688      276.476      236.109        0.111        0.055       20.212       14.720        0.530      338.790       11.681      859.875
04/16/2014  08:03:00      -11.467       11.904       18.570       29.060       30.297       31.308      844.507      917.917      980.183        0.168        0.137       16.529       22.175        1.800      338.716       11.558      859.875
04/16/2014  08:04:00       40.097        0.022       32.731       51.796       56.254       41.749     2682.824     3164.555     1743.005        0.513        0.380       40.097       44.084        1.209      338.883       11.838      859.874
04/16/2014  08:05:00       16.924       21.051       30.655       33.705       25.247       29.152     1136.025      637.411      849.811        0.215        0.131       27.010       26.184        0.940      338.980       12.002      859.885
04/16/2014  08:06:00       25.307       -1.004       30.825       35.536       23.917       20.520     1262.824      572.010      421.071        0.192        0.113       25.327       22.510        0.790      339.097       12.198      859.878
04/16/2014  08:07:00      -44.777       17.773       25.983       27.091       16.467       29.358      733.907      271.171      861.916        0.243        0.093       48.175       18.306        0.144      338.714       11.555      859.872
04/16/2014  08:08:00      -46.240      -41.918        3.702       19.571       26.074       14.910      383.010      679.853      222.302        0.260        0.064       62.412       12.545        0.040      338.442       11.097      859.866
04/16/2014  08:09:00      -21.012      -39.829        7.263       27.899       18.833       17.888      778.377      354.691      319.980        0.177        0.073       45.032       16.977        0.142      338.593       11.350      859.852
04/16/2014  08:10:00      -27.232      -41.162        2.385       20.631       21.430       13.940      425.635      459.247      194.315        0.176        0.054       49.354       10.052        0.041      338.561       11.296      859.852
04/16/2014  08:11:00      -38.148       -9.439       -3.645       10.584       19.210       13.817      112.024      369.022      190.901        0.111        0.034       39.299        5.452        0.019      338.642       11.432      859.853
04/16/2014  08:12:00      -43.636        2.972       -0.921       12.931       11.441       10.126      167.212      130.905      102.542        0.116        0.020       43.737        4.837        0.012      338.550       11.278      859.858
04/16/2014  08:13:00      -19.051      -18.885        9.789       14.575       17.083       16.676      212.444      291.826      278.074        0.080        0.039       26.825        8.493        0.100      338.933       11.923      859.867
04/16/2014  08:14:00      -50.430       -5.258       -2.195       22.910       23.562       13.829      524.868      555.185      191.253        0.192        0.064       50.703       11.369        0.050      338.727       11.576      859.880
04/16/2014  08:15:00       -2.454      -16.776       -3.865       57.960       25.596       22.690     3359.358      655.135      514.846        0.241        0.226       16.954        8.355        0.243      338.762       11.634      859.888
04/16/2014  08:16:00       61.798       37.430       14.804       54.932       48.631       51.593     3017.470     2364.998     2661.802        0.674        0.402       72.250       32.365        0.201      338.936       11.928      859.885
04/16/2014  08:17:00      139.388       68.928       32.749       80.119       58.795       41.226     6419.023     3456.850     1699.619        1.841        0.579      155.500       38.001        0.060      339.068       12.147      859.873
04/16/2014  08:18:00       19.223      258.413      -31.456       60.445       81.871       38.266     3653.587     6702.787     1464.262        3.998        0.591      259.127       39.030        0.023      338.955       11.955      859.879
04/16/2014  08:19:00       55.612       67.065        7.914       63.889       70.864       30.936     4081.818     5021.689      957.017        0.885        0.503       87.123       28.091        0.104      339.440       12.774      859.893
04/16/2014  08:20:00       44.856       68.469        2.878       56.286       40.312       33.438     3168.147     1625.033     1118.105        0.631        0.296       81.854       26.695        0.106      339.459       12.806      859.904
04/16/2014  08:21:00       36.411       46.787       19.861       43.482       43.891       35.528     1890.712     1926.391     1262.250        0.449        0.254       59.286       26.530        0.200      339.325       12.581      859.927
04/16/2014  08:22:00       47.514       27.299       23.327       72.008       57.515       54.748     5185.120     3307.946     2997.393        0.752        0.575       54.798       33.322        0.370      339.196       12.365      859.932
04/16/2014  08:23:00      101.832       57.337       -4.775       35.832       31.428       28.190     1283.897      987.719      794.699        0.837        0.153      116.865       16.446        0.020      338.810       11.714      859.952
04/16/2014  08:24:00       38.869       78.139        3.962       43.379       51.731       33.151     1881.750     2676.143     1099.017        0.664        0.283       87.272       29.810        0.117      339.052       12.122      859.953
04/16/2014  08:25:00      -38.895      162.731       -9.481       35.652       71.200       35.563     1271.096     5069.398     1264.701        1.784        0.380      167.315       42.067        0.063      339.147       12.282      859.965
04/16/2014  08:26:00      -34.181      192.140      -19.075       57.243       59.110       38.465     3276.760     3494.020     1479.537        2.335        0.413      195.156       32.054        0.027      339.281       12.506      859.967
04/16/2014  08:27:00     -104.207      149.873      -20.789       48.913       92.610       33.991     2392.454     8576.577     1155.412        2.294        0.606      182.540       27.157        0.022      339.205       12.377      859.972
04/16/2014  08:28:00     -108.466      142.741      -31.399       40.957       47.100       34.864     1677.505     2218.407     1215.512        1.912        0.256      179.276       31.384        0.031      339.214       12.392      859.963
04/16/2014  08:29:00      -53.615      151.354      -18.805       65.416       50.446       42.618     4279.275     2544.847     1816.327        1.739        0.432      160.569       37.808        0.055      339.526       12.920      859.951
04/16/2014  08:30:00        9.054       25.815       23.133       59.126       32.906       37.170     3495.909     1082.809     1381.638        0.362        0.298       27.356       29.593        1.170      339.584       13.018      859.946
04/16/2014  08:31:00       14.076      108.747       -6.979       52.680       73.408       37.535     2775.170     5388.673     1408.881        1.082        0.479      109.654       38.061        0.120      339.663       13.151      859.960
04/16/2014  08:32:00      -39.339      222.334      -25.459       53.578       51.446       32.200     2870.648     2646.679     1036.841        2.909        0.328      225.787       23.933        0.011      339.426       12.749      859.960
04/16/2014  08:33:00      -69.024      220.330      -18.629       91.010      119.901       56.765     8282.859    14376.236     3222.312        3.976        1.294      230.889       63.575        0.076      339.364       12.645      859.973
04/16/2014  08:34:00      -57.306      216.838      -15.925       41.462       82.035       40.752     1719.078     6729.762     1660.709        3.033        0.505      224.283       43.834        0.038      339.350       12.620      859.972
04/16/2014  08:35:00     -123.887      174.570      -32.682       60.788       60.970       40.981     3695.150     3717.367     1679.447        2.799        0.455      214.062       35.154        0.027      339.140       12.267      859.967
04/16/2014  08:36:00     -124.863      247.766      -24.221       58.139       94.906       39.783     3380.148     9007.185     1582.680        4.576        0.699      277.451       43.189        0.024      339.207       12.380      859.962
04/16/2014  08:37:00      -29.402      242.622      -22.577       50.887      123.873       40.247     2589.475    15344.639     1619.795        3.989        0.978      244.397       53.757        0.048      339.209       12.384      859.967
04/16/2014  08:38:00      -34.175      393.718      -41.827       52.584       62.912       41.407     2765.098     3957.907     1714.565        8.318        0.422      395.198       29.693        0.006      339.101       12.202      859.959
04/16/2014  08:39:00      -32.128      338.334      -34.229       43.063       61.519       32.286     1854.419     3784.607     1042.397        6.168        0.334      339.856       30.072        0.008      339.084       12.171      859.970
04/16/2014  08:40:00      -30.861      256.966      -19.057       49.673       69.994       43.531     2467.455     4899.123     1894.953        3.830        0.463      258.813       41.863        0.026      339.335       12.593      859.971
04/16/2014  08:41:00      -20.962      266.629      -22.918       48.816       63.198       41.969     2382.954     3994.006     1761.400        4.010        0.407      267.451       31.618        0.014      339.386       12.678      859.967
04/16/2014  08:42:00       -2.370      198.433      -11.938       64.346       74.793       43.308     4140.357     5593.964     1875.587        2.556        0.580      198.447       46.892        0.056      339.535       12.933      859.975
04/16/2014  08:43:00      -29.408       83.701       15.705       45.988       64.035       32.412     2114.910     4100.474     1050.565        0.769        0.363       88.716       29.354        0.109      339.880       13.517      859.964
04/16/2014  08:44:00      -36.389       19.093       10.971       38.723       64.171       35.559     1499.500     4117.924     1264.468        0.434        0.344       41.094       34.910        0.722      339.646       13.122      859.962
04/16/2014  08:45:00      -35.493       55.895        9.574       59.441       37.299       36.212     3533.197     1391.250     1311.336        0.535        0.312       66.212       36.289        0.300      339.715       13.239      859.952
04/16/2014  08:46:00       16.985       80.764       -6.721       58.728       62.641       41.933     3449.026     3923.911     1758.412        0.799        0.457       82.531       33.647        0.166      339.613       13.066      859.947
04/16/2014  08:47:00      -39.346      154.539       -8.387       54.339       78.696       46.168     2952.701     6193.094     2131.486        1.839        0.564      159.469       44.382        0.077      339.515       12.900      859.935
04/16/2014  08:48:00      -12.611      174.444      -11.505       38.896       56.548       38.528     1512.915     3197.672     1484.391        1.846        0.310      174.899       35.298        0.041      339.717       13.241      859.933
04/16/2014  08:49:00       13.244      170.698      -25.236       49.500       79.023       36.785     2450.277     6244.557     1353.141        2.000        0.502      171.211       38.476        0.051      339.721       13.246      859.929
04/16/2014  08:50:00      -41.431      164.602      -25.651       63.602       91.138       34.074     4045.248     8306.197     1161.029        2.149        0.676      169.737       42.378        0.062      339.555       12.965      859.939
04/16/2014  08:51:00     -102.883        7.971        1.786       58.018       48.027       38.982     3366.062     2306.572     1519.626        0.892        0.360      103.191       31.322        0.092      339.632       13.099      859.927
04/16/2014  08:52:00     -135.206      110.725      -17.301       63.146       93.099       35.876     3987.397     8667.473     1287.072        2.239        0.697      174.759       32.123        0.034      339.376       12.664      859.941
04/16/2014  08:53:00      -95.287       54.795      -12.710       50.141       68.229       33.533     2514.135     4655.159     1124.454        1.027        0.415      109.919       30.848        0.079      339.457       12.802      859.917
04/16/2014  08:54:00      -78.743      158.559      -13.608       58.324       76.729       39.282     3401.633     5887.399     1543.114        2.118        0.542      177.035       33.322        0.035      339.532       12.928      859.943
04/16/2014  08:55:00      -40.558      227.903      -14.822       48.768       56.074       36.942     2378.347     3144.274     1364.711        3.034        0.344      231.484       26.780        0.013      339.514       12.895      859.929
04/16/2014  08:56:00      -25.319      106.331       13.152       48.812       62.877       53.286     2382.598     3953.489     2839.438        1.065        0.459      109.303       45.120        0.170      340.046       13.798      859.935
04/16/2014  08:57:00      -57.712      101.269        8.679       91.890       69.051       54.239     8443.780     4767.992     2941.881        1.490        0.808      116.560       43.056        0.136      339.965       13.659      859.923
04/16/2014  08:58:00       22.702      165.632       10.878       71.572       89.400       59.254     5122.516     7992.351     3511.024        2.234        0.831      167.181       55.033        0.108      339.760       13.313      859.917
04/16/2014  08:59:00      -51.297      206.689       -7.586       58.307       87.445       50.450     3399.718     7646.557     2545.182        2.950        0.680      212.959       47.601        0.050      339.798       13.376      859.904
04/16/2014  09:00:00     -103.012      107.044       -4.988       50.167       95.133       41.047     2516.687     9050.301     1684.877        1.767        0.663      148.559       39.135        0.069      339.660       13.145      859.892
04/16/2014  09:01:00      -96.869      106.306      -20.562       61.778       65.941       42.093     3816.539     4348.162     1771.835        1.552        0.497      143.821       36.545        0.065      339.723       13.251      859.880
04/16/2014  09:02:00      -28.500       93.224        7.279       60.292       72.366       44.362     3635.072     5236.908     1968.013        1.020        0.542       97.483       35.356        0.132      339.984       13.691      859.850
04/16/2014  09:03:00      -48.935      177.424      -10.567       42.876       97.469       45.263     1838.369     9500.141     2048.781        2.368        0.669      184.048       52.306        0.081      339.757       13.306      859.857
04/16/2014  09:04:00       -6.331      133.245        3.628       30.339       72.156       41.440      920.451     5206.556     1717.234        1.282        0.392      133.395       42.380        0.101      340.003       13.725      859.842
04/16/2014  09:05:00       -4.545       75.512        0.481       27.909       64.511       30.897      778.913     4161.697      954.602        0.581        0.295       75.649       35.797        0.224      340.140       13.955      859.817
04/16/2014  09:06:00      -38.490       42.772       -3.462       41.927       59.728       27.624     1757.862     3567.389      763.083        0.470        0.304       57.541       24.160        0.176      339.998       13.717      859.807
04/16/2014  09:07:00      -32.982      160.005       13.324       68.710       93.549       60.166     4721.118     8751.345     3619.992        2.198        0.855      163.369       58.956        0.130      340.151       13.971      859.809
04/16/2014  09:08:00      -64.051      117.866        3.995       77.423       61.844       43.170     5994.289     3824.709     1863.642        1.484        0.584      134.146       36.419        0.074      340.074       13.843      859.816
04/16/2014  09:09:00      -89.865      138.422      -12.588       60.275      105.741       48.222     3633.111    11181.122     2325.344        2.226        0.857      165.034       48.493        0.086      339.687       13.190      859.823
04/16/2014  09:10:00     -133.827       72.577      -29.591       59.765       58.119       28.044     3571.799     3377.786      786.474        1.589        0.387      152.240       31.921        0.044      339.533       12.930      859.811
04/16/2014  09:11:00      -37.764       50.112       -3.417       64.473       64.700       35.227     4156.781     4186.068     1240.951        0.676        0.479       62.748       34.361        0.300      339.877       13.512      859.797
04/16/2014  09:12:00      -26.494      144.935       -2.734       54.149      116.161       43.336     2932.074    13493.451     1878.011        2.001        0.915      147.337       58.597        0.158      340.157       13.983      859.810
04/16/2014  09:13:00      -28.581      153.665      -11.529       28.000       74.701       30.859      783.982     5580.312      952.273        1.594        0.366      156.300       32.617        0.044      339.823       13.419      859.809
04/16/2014  09:14:00      -26.685       48.096       -2.961       53.262       74.447       31.090     2836.793     5542.364      966.593        0.619        0.467       55.003       24.998        0.207      340.119       13.920      859.770
04/16/2014  09:15:00     -111.562       12.309      -25.988       21.189       25.446       17.058      448.973      647.492      290.976        0.733        0.069      112.239       10.884        0.009      339.607       13.055      859.761
04/16/2014  09:16:00      -35.435       17.288        9.805       66.429       34.443       27.627     4412.876     1186.325      763.272        0.401        0.318       39.428       28.176        0.511      340.152       13.976      859.751
04/16/2014  09:17:00       18.355       92.268        9.140       49.713       65.163       48.848     2471.377     4246.232     2386.111        0.902        0.455       94.076       45.357        0.232      340.569       14.681      859.741
04/16/2014  09:18:00      113.861      115.486        9.413       77.828       64.816       56.408     6057.147     4201.129     3181.808        1.991        0.672      162.177       50.941        0.099      340.153       13.976      859.732
04/16/2014  09:19:00       57.775       85.362        7.848       56.227       53.458       39.295     3161.444     2857.766     1544.116        0.912        0.378      103.075       23.270        0.051      340.209       14.073      859.732
04/16/2014  09:20:00       61.726       71.964       38.989       81.036       36.301       44.103     6566.775     1317.784     1945.116        1.017        0.491       94.810       36.247        0.146      340.103       13.894      859.726
04/16/2014  09:21:00      -40.899       73.301       12.887       60.790       64.016       43.531     3695.425     4098.042     1894.936        0.845        0.484       83.939       32.301        0.148      340.145       13.962      859.750
04/16/2014  09:22:00      -76.581       27.608      -12.606       55.165       55.535       29.859     3043.181     3084.118      891.537        0.690        0.351       81.406       24.474        0.090      339.858       13.480      859.750
04/16/2014  09:23:00      -14.043       83.560      -12.497       49.006       88.383       34.189     2401.562     7811.517     1168.855        0.936        0.569       84.732       38.360        0.205      340.287       14.202      859.752
04/16/2014  09:24:00       35.362      149.723        5.991       70.744       98.866       62.551     5004.676     9774.440     3912.643        2.119        0.935      153.842       55.031        0.128      340.386       14.371      859.747
04/16/2014  09:25:00      123.591      103.259        2.965       80.876       64.207       58.822     6540.962     4122.511     3460.055        2.003        0.706      161.050       45.717        0.081      340.210       14.073      859.741
04/16/2014  09:26:00       27.558       61.705        5.259       32.423       35.845       33.921     1051.256     1284.876     1150.621        0.404        0.174       67.579       22.282        0.109      340.135       13.947      859.734
04/16/2014  09:27:00       24.625      100.615       -1.912       42.950       65.711       36.198     1844.737     4317.920     1310.308        0.910        0.374      103.585       33.797        0.106      340.123       13.926      859.722
04/16/2014  09:28:00       52.060       40.303       21.104       59.238       63.583       38.424     3509.082     4042.829     1476.411        0.690        0.451       65.838       34.228        0.270      340.490       14.547      859.727
04/16/2014  09:29:00       55.487      106.410       16.184       97.160       79.345       60.648     9440.105     6295.641     3678.160        1.703        0.971      120.008       51.602        0.185      340.457       14.489      859.748
04/16/2014  09:30:00       75.613      114.365       -5.381       39.897       44.943       34.001     1591.757     2019.869     1156.091        1.180        0.238      137.101       27.275        0.040      340.014       13.743      859.743
04/16/2014  09:31:00       58.854      -31.942       -5.436       51.892       89.806       32.494     2692.807     8065.149     1055.849        0.816        0.591       66.963       11.007        0.027      340.280       14.191      859.727
04/16/2014  09:32:00       13.873       14.033       41.313       34.857       65.426       47.600     1215.037     4280.569     2265.796        0.493        0.388       19.733       40.610        4.235      340.567       14.677      859.730
04/16/2014  09:33:00       33.256       49.336       52.224       70.808       42.140       56.550     5013.828     1775.748     3197.909        0.813        0.499       59.497       54.047        0.825      340.342       14.297      859.745
04/16/2014  09:34:00       88.482       67.634       18.327       77.152       69.741       48.968     5952.423     4863.745     2397.894        1.297        0.661      111.370       27.343        0.060      340.028       13.764      859.754
04/16/2014  09:35:00        2.521       60.318        3.632       39.664       44.971       27.067     1573.261     2022.357      732.619        0.399        0.216       60.370       23.574        0.152      340.204       14.064      859.747
04/16/2014  09:36:00      -26.736       70.014        0.063       66.791       51.263       30.588     4460.976     2627.946      935.596        0.682        0.401       74.945       26.704        0.127      340.326       14.270      859.740
04/16/2014  09:37:00      -20.969       26.045       18.394       18.537       22.086       24.852      343.620      487.803      617.611        0.145        0.072       33.437       14.953        0.200      340.754       14.994      859.724
04/16/2014  09:38:00       10.286       38.202       18.211       29.195       33.432       24.201      852.329     1117.668      585.696        0.223        0.128       39.563       23.002        0.338      340.644       14.807      859.718
04/16/2014  09:39:00       62.157       79.206       57.144       58.118       56.474       52.876     3377.653     3189.339     2795.911        1.138        0.468      100.683       29.428        0.085      340.276       14.186      859.731
04/16/2014  09:40:00      203.990     -124.879       41.876      112.948       99.588       71.625    12757.263     9917.768     5130.115        4.338        1.390      239.180       67.636        0.080      340.080       13.849      859.699
04/16/2014  09:41:00       50.244      109.944      166.611      106.540      122.484       70.863    11350.699    15002.383     5021.565        3.687        1.569      120.881       81.116        0.450      340.393       14.380      859.640
04/16/2014  09:42:00      151.088       81.266       43.367       92.997       55.148       77.165     8648.510     3041.323     5954.447        2.447        0.882      171.557       34.091        0.039      339.970       13.666      859.667
04/16/2014  09:43:00       47.717       44.635       33.405       43.462       51.497       48.687     1888.982     2651.945     2370.393        0.615        0.346       65.339       22.891        0.123      340.370       14.344      859.671
04/16/2014  09:44:00       31.528       63.392       45.636       57.412       90.358       83.372     3296.118     8164.624     6950.927        1.275        0.921       70.800       74.109        1.096      340.784       15.042      859.663
04/16/2014  09:45:00       45.723       54.565      104.619       63.196      113.024       59.467     3993.714    12774.345     3536.330        1.815        1.015       71.189       65.118        0.837      340.698       14.897      859.663
04/16/2014  09:46:00       43.164       11.331       72.999       55.675       98.579       53.879     3099.723     9717.746     2902.912        1.152        0.786       44.627       37.515        0.707      340.934       15.298      859.662
04/16/2014  09:47:00      174.888      101.780       89.897      127.102       97.574       85.593    16154.908     9520.611     7326.232        4.101        1.650      202.349       69.714        0.119      340.202       14.057      859.663
04/16/2014  09:48:00      152.673      181.849      129.193      117.783       67.673       84.900    13872.779     4579.602     7207.926        4.936        1.283      237.441       80.661        0.115      339.968       13.661      859.661
04/16/2014  09:49:00       62.081       26.417       81.615       60.183      137.011       67.003     3622.036    18772.082     4489.428        1.904        1.344       67.468       73.832        1.198      340.131       13.938      859.649
04/16/2014  09:50:00       86.245       42.095       44.510       54.922       62.779       47.530     3016.473     3941.146     2259.095        1.020        0.461       95.970       36.499        0.145      340.315       14.252      859.649
04/16/2014  09:51:00       77.124       67.122       52.796       47.542       57.768       42.254     2260.270     3337.152     1785.436        1.031        0.369      102.243       27.388        0.072      340.484       14.538      859.641
04/16/2014  09:52:00      165.838      102.091       29.081       83.159       63.452       60.181     6915.426     4026.214     3621.747        2.666        0.728      194.743       48.422        0.062      340.159       13.984      859.647
04/16/2014  09:53:00      134.878       73.884       26.274       39.022       50.178       36.966     1522.682     2517.822     1366.495        1.487        0.270      153.789       11.548        0.006      340.291       14.210      859.645
04/16/2014  09:54:00       95.414       64.077       88.922       91.157       88.652       69.614     8309.591     7859.230     4846.062        2.106        1.051      114.933       44.745        0.152      340.552       14.650      859.660
04/16/2014  09:55:00      135.590      161.734       90.654      158.815      153.722      117.840    25222.238    23630.481    13886.153        5.774        3.137      211.051       66.077        0.098      340.431       14.443      859.627
04/16/2014  09:56:00      217.550      150.325       20.308      135.949       85.673       78.252    18482.013     7339.924     6123.373        5.114        1.597      264.434       51.068        0.037      340.674       14.854      859.684
04/16/2014  09:57:00      273.480      171.587       32.996      105.282       76.324       68.356    11084.292     5825.371     4672.501        6.345        1.079      322.852       36.268        0.013      340.329       14.270      859.731
04/16/2014  09:58:00      161.714      131.253       18.460       70.017       61.185       53.778     4902.348     3743.582     2892.033        2.763        0.577      208.276       26.014        0.016      340.097       13.881      859.751
04/16/2014  09:59:00      178.244      111.000       47.128       82.842       59.322       71.032     6862.717     3519.123     5045.607        3.087        0.771      209.981       54.710        0.068      340.314       14.245      859.755
04/16/2014  10:00:00      196.934      106.520       35.686      110.953       81.697       56.288    12310.467     6674.375     3168.287        3.677        1.108      223.896       25.043        0.013      340.450       14.475      859.754
04/16/2014  10:01:00      120.466      102.636       86.994       96.247       74.219       61.356     9263.571     5508.437     3764.561        2.557        0.927      158.260       51.325        0.105      340.174       14.009      859.760
04/16/2014  10:02:00       35.873       26.760       67.578       45.911       88.083       42.593     2107.855     7758.636     1814.138        0.912        0.584       44.755       17.762        0.158      340.469       14.512      859.767
04/16/2014  10:03:00       67.544       67.820       65.301       65.377       69.247       39.565     4274.130     4795.112     1565.362        1.203        0.532       95.717       37.019        0.150      340.435       14.453      859.785
04/16/2014  10:04:00       79.398       36.540       41.017       65.816       43.548       38.950     4331.697     1896.405     1517.080        0.853        0.387       87.402       25.305        0.084      340.516       14.590      859.771
04/16/2014  10:05:00       82.943       64.789       74.002      118.653       55.512       41.602    14078.646     3081.599     1730.741        1.772        0.945      105.248       27.331        0.067      340.860       15.172      859.777
04/16/2014  10:06:00      110.346       10.601       14.613      142.862       89.956       57.278    20409.609     8092.076     3280.727        2.214        1.589      110.854       30.330        0.075      340.382       14.362      859.791
04/16/2014  10:07:00      -32.154       30.070       -4.893       42.843       47.533       34.686     1835.563     2259.418     1203.117        0.363        0.265       44.024       12.723        0.084      340.284       14.198      859.811
04/16/2014  10:08:00      -25.411       83.475       20.611       28.113       49.608       37.732      790.329     2460.907     1423.732        0.636        0.234       87.257       33.828        0.150      340.601       14.735      859.814
04/16/2014  10:09:00       31.747       52.143       70.415       62.178       50.545       37.860     3866.088     2554.821     1433.387        0.827        0.393       61.047       33.602        0.303      340.760       15.003      859.803
04/16/2014  10:10:00       96.112       90.714       80.920       83.277       55.809       49.656     6935.066     3114.685     2465.729        1.826        0.626      132.161       36.360        0.076      340.443       14.465      859.811
04/16/2014  10:11:00       -2.154       48.124       41.155       36.002       47.037       36.228     1296.168     2212.500     1312.447        0.442        0.241       48.172       20.588        0.183      341.272       15.871      859.819
04/16/2014  10:12:00       12.445        0.097       51.792       35.537       66.117       41.588     1262.847     4371.512     1729.562        0.510        0.368       12.445       26.809        4.640      340.885       15.214      859.815
04/16/2014  10:13:00       68.802       58.898       31.990       81.097       52.400       38.409     6576.664     2745.726     1475.224        1.001        0.540       90.569       16.979        0.035      340.700       14.901      859.817
04/16/2014  10:14:00       75.091       70.425       91.764       87.580      110.540       54.846     7670.284    12219.165     3008.080        2.095        1.145      102.948       55.056        0.286      340.797       15.064      859.840
04/16/2014  10:15:00       79.783       75.633      100.977      102.144       72.486       60.779    10433.295     5254.195     3694.132        2.083        0.969      109.935       59.815        0.296      340.910       15.256      859.820
04/16/2014  10:16:00      126.932       82.731       85.900      101.707       70.725       63.537    10344.362     5002.023     4036.960        2.486        0.969      151.513       55.304        0.133      340.779       15.033      859.819
04/16/2014  10:17:00       93.529       61.499       43.642      128.935      106.789       66.208    16624.173    11403.939     4383.558        2.342        1.621      111.936       58.682        0.275      341.026       15.453      859.810
04/16/2014  10:18:00      206.973      144.386       14.021       67.195       75.345       55.958     4515.104     5676.878     3131.332        3.860        0.666      252.359       38.525        0.023      340.416       14.418      859.848
04/16/2014  10:19:00       61.703      123.833      -10.834       48.500       89.726       54.673     2352.256     8050.772     2989.107        1.632        0.670      138.354       60.073        0.189      340.599       14.730      859.856
04/16/2014  10:20:00      110.431       93.473        2.357       68.767       50.392       39.759     4728.863     2539.382     1580.810        1.489        0.442      144.679       28.642        0.039      341.005       15.416      859.862
04/16/2014  10:21:00       54.770       48.629       12.291       63.831       50.570       40.022     4074.422     2557.326     1601.769        0.687        0.412       73.243       14.473        0.039      341.049       15.492      859.884
04/16/2014  10:22:00       98.530       94.998       45.838       76.091       48.641       51.106     5789.845     2365.952     2611.830        1.580        0.538      136.868       46.653        0.116      340.684       14.874      859.871
04/16/2014  10:23:00        6.170       78.449       -2.897       36.883       52.665       34.188     1360.334     2773.573     1168.849        0.575        0.265       78.691       34.542        0.193      340.794       15.061      859.877
04/16/2014  10:24:00       -1.404       16.114       27.448       32.115       31.068       19.168     1031.342      965.194      367.422        0.169        0.118       16.175       17.274        1.141      341.140       15.646      859.850
04/16/2014  10:25:00       77.030       97.781       54.088       78.137       69.337       64.004     6105.381     4807.650     4096.478        1.671        0.750      124.478       34.372        0.076      340.887       15.217      859.838
04/16/2014  10:26:00       51.169      181.053      -21.121       88.967       84.588       61.577     7915.104     7155.088     3791.785        2.735        0.943      188.145       55.545        0.087      340.687       14.877      859.820
04/16/2014  10:27:00      -24.473       97.887      -40.189       44.229       54.346       23.959     1956.192     2953.531      574.024        0.864        0.274      100.900       16.484        0.027      340.628       14.780      859.807
04/16/2014  10:28:00      -20.552        9.886       23.331       41.942       18.247       22.393     1759.133      332.957      501.442        0.183        0.130       22.806       23.673        1.077      341.397       16.082      859.795
04/16/2014  10:29:00       97.506       93.105        4.438       77.682       51.678       50.550     6034.512     2670.565     2555.257        1.473        0.563      134.818       31.339        0.054      340.870       15.188      859.775
04/16/2014  10:30:00      -12.640      105.742       -8.797       69.235       73.831       41.241     4793.425     5451.064     1700.801        1.168        0.597      106.495       30.573        0.082      340.940       15.307      859.762
04/16/2014  10:31:00      -90.930      137.898      -28.402       71.801       60.655       35.654     5155.313     3678.983     1271.192        1.910        0.505      165.179       23.057        0.019      340.853       15.160      859.759
04/16/2014  10:32:00      -24.884       66.917       14.224      105.694       65.425       39.445    11171.144     4280.408     1555.889        1.115        0.850       71.394       53.102        0.553      341.046       15.488      859.759
04/16/2014  10:33:00      170.008      132.469        7.671      108.833       73.543       58.134    11844.653     5408.560     3379.596        3.357        1.032      215.524       39.955        0.034      340.937       15.301      859.747
04/16/2014  10:34:00      158.582      129.329       18.303       78.143       72.392       54.693     6106.403     5240.600     2991.331        2.827        0.717      204.632       42.015        0.042      340.891       15.221      859.749
04/16/2014  10:35:00      124.938      103.903        3.983       91.757       52.471       48.731     8419.393     2753.212     2374.731        1.998        0.677      162.497       27.537        0.029      340.646       14.808      859.736
04/16/2014  10:36:00        6.683      107.854       -6.106       33.480       73.715       30.866     1120.879     5433.939      952.740        0.961        0.375      108.061       29.601        0.075      340.834       15.129      859.735
04/16/2014  10:37:00      -51.815       89.701       -9.064       49.897       42.529       38.069     2489.744     1808.687     1449.283        0.828        0.287      103.591       32.900        0.101      340.760       15.003      859.731
04/16/2014  10:38:00      -58.907       43.452       -2.979       55.265       39.358       36.619     3054.259     1549.062     1340.921        0.565        0.297       73.199       45.625        0.388      340.909       15.256      859.748
04/16/2014  10:39:00       -9.323       40.658       19.851       30.173       45.688       30.822      910.433     2087.418      949.978        0.304        0.197       41.713       28.676        0.473      341.722       16.633      859.771
04/16/2014  10:40:00      -50.629       33.957        1.103       37.718       63.115       28.523     1422.639     3983.461      813.588        0.497        0.311       60.962       32.647        0.287      340.829       15.120      859.791
04/16/2014  10:41:00        6.971      -17.228        8.785       29.844       27.356       22.567      890.689      748.353      509.291        0.129        0.107       18.585        7.553        0.165      341.367       16.030      859.774
04/16/2014  10:42:00      -73.491      -17.763       13.215       82.770       60.059       32.995     6850.816     3607.107     1088.679        0.872        0.577       75.607       37.360        0.244      341.464       16.194      859.761
04/16/2014  10:43:00      -25.804       -9.635       10.184       84.156       43.957       42.772     7082.291     1932.240     1829.462        0.585        0.542       27.544       43.929        2.544      341.487       16.236      859.739
04/16/2014  10:44:00     -107.880      -31.041       -8.936       49.030       39.021       23.975     2403.920     1522.654      574.821        0.859        0.225      112.257       19.136        0.029      340.708       14.915      859.735
04/16/2014  10:45:00      -37.277       37.287      -15.473       57.827       49.017       37.148     3343.987     2402.628     1379.974        0.507        0.356       52.724       29.152        0.306      341.211       15.768      859.719
04/16/2014  10:46:00       82.787       22.895       19.312       58.739       47.006       38.848     3450.251     2209.588     1509.148        0.746        0.358       85.894       19.505        0.052      341.500       16.256      859.725
04/16/2014  10:47:00       -0.179      -46.613       25.903       35.124       93.745       34.049     1233.725     8788.209     1159.351        0.701        0.559       46.613       46.360        0.989      341.460       16.188      859.734
04/16/2014  10:48:00       40.439       24.201       31.116       47.550       71.320       43.113     2261.010     5086.529     1858.755        0.620        0.460       47.127       36.288        0.593      341.400       16.087      859.747
04/16/2014  10:49:00       14.018      -37.696       42.619       48.183       80.232       53.615     2321.591     6437.242     2874.518        0.753        0.582       40.218       40.797        1.029      341.459       16.185      859.741
04/16/2014  10:50:00       41.141      -26.252       27.323       51.990       86.009       43.010     2703.004     7397.499     1849.820        0.754        0.598       48.804        7.667        0.025      341.229       15.797      859.748
04/16/2014  10:51:00      -14.945       10.960        9.458       25.530       43.744       25.115      651.777     1913.514      630.738        0.181        0.160       18.533       22.074        1.419      341.391       16.073      859.754
04/16/2014  10:52:00       48.540       54.414       16.207       44.354       68.264       44.919     1967.259     4659.907     2017.694        0.711        0.432       72.918       38.230        0.275      341.120       15.612      859.741
04/16/2014  10:53:00       79.360       77.483        9.709       47.667       64.760       35.597     2272.111     4193.909     1267.111        1.006        0.387      110.912       28.175        0.065      341.193       15.737      859.743
04/16/2014  10:54:00       48.165       61.643       21.493       65.290       51.659       46.429     4262.790     2668.645     2155.689        0.783        0.454       78.229       28.800        0.136      341.500       16.256      859.720
04/16/2014  10:55:00       93.437       36.312       47.463       86.217       84.354       60.869     7433.381     7115.662     3705.018        1.527        0.913      100.244       44.506        0.197      341.353       16.005      859.719
04/16/2014  10:56:00       54.611       56.120       43.080       99.117       68.373       55.171     9824.117     4674.830     3043.844        1.276        0.877       78.306       37.085        0.224      341.468       16.202      859.717
04/16/2014  10:57:00       34.862      -21.464       22.550       59.602       80.665       42.071     3552.447     6506.799     1769.966        0.700        0.591       40.940       33.547        0.671      341.428       16.134      859.726
04/16/2014  10:58:00       50.822       29.760       24.137       60.452       50.123       42.044     3654.393     2512.265     1767.675        0.599        0.397       58.894       29.219        0.246      341.666       16.538      859.718
04/16/2014  10:59:00      117.599       98.372      104.938      104.023       79.294       59.368    10820.801     6287.562     3524.517        2.757        1.032      153.319       57.925        0.143      341.324       15.955      859.705
04/16/2014  11:00:00      131.979       87.897       37.324       89.788       81.708       85.568     8061.956     6676.167     7321.837        2.429        1.103      158.570       68.134        0.185      341.396       16.078      859.705
04/16/2014  11:01:00      120.457      125.713      109.617      124.140       70.042       73.600    15410.645     4905.830     5417.016        3.403        1.287      174.108       48.211        0.077      341.580       16.389      859.701
04/16/2014  11:02:00       78.258      101.210       92.845       59.305       65.228       67.996     3517.088     4254.739     4623.457        1.869        0.620      127.937       24.304        0.036      341.403       16.089      859.708
04/16/2014  11:03:00      106.051      170.157      123.088       98.529       58.993       78.173     9707.979     3480.222     6111.073        3.732        0.965      200.499       67.957        0.115      340.708       14.912      859.700
04/16/2014  11:04:00      109.699      100.853       68.948       87.510       48.655       59.053     7658.049     2367.336     3487.246        2.023        0.676      149.014       52.794        0.126      340.586       14.707      859.696
04/16/2014  11:05:00       18.252       57.428       68.823       56.568       59.659       50.725     3199.941     3559.206     2573.057        0.885        0.467       60.259       43.277        0.516      341.113       15.600      859.669
04/16/2014  11:06:00      130.781       94.610        4.478       83.431       56.486       45.843     6960.772     3190.641     2101.536        1.916        0.613      161.414       32.000        0.039      341.149       15.660      859.662
04/16/2014  11:07:00      105.032       76.916       -0.374       34.602       40.260       31.500     1197.300     1620.905      992.245        1.038        0.191      130.183       28.567        0.048      340.872       15.192      859.674
04/16/2014  11:08:00       22.559       19.941        2.250       32.380       20.920       29.849     1048.440      437.663      890.961        0.164        0.119       30.109       23.573        0.613      341.303       15.923      859.642
04/16/2014  11:09:00      -17.155       87.492       -4.067       44.607       55.728       28.672     1989.743     3105.612      822.080        0.694        0.296       89.158       29.221        0.107      341.328       15.965      859.637
04/16/2014  11:10:00       44.510      132.823       -9.930       53.173       70.980       46.781     2827.337     5038.136     2188.470        1.489        0.503      140.083       39.611        0.080      341.552       16.345      859.630
04/16/2014  11:11:00      -21.825       20.588       36.632       35.154       17.545       19.270     1235.786      307.843      371.320        0.208        0.096       30.003       16.333        0.296      341.504       16.262      859.644
04/16/2014  11:12:00       21.888       46.925       39.338       48.457       66.325       31.582     2348.129     4398.987      997.443        0.598        0.387       51.779       31.576        0.372      341.825       16.809      859.631
04/16/2014  11:13:00       51.280       40.948        9.729       68.061       44.383       29.110     4632.264     1969.825      847.420        0.592        0.372       65.622       20.784        0.100      341.013       15.432      859.642
04/16/2014  11:14:00      -13.660      -28.507        4.894       22.732       32.899       38.594      516.726     1082.362     1489.498        0.206        0.154       31.610       30.335        0.921      341.352       16.007      859.637
04/16/2014  11:15:00       64.403       35.579       55.019       44.972       53.998       30.418     2022.495     2915.835      925.265        0.715        0.293       73.577       15.111        0.042      341.257       15.844      859.621
04/16/2014  11:16:00       60.071      -50.857       11.567       51.018       43.592       41.824     2602.847     1900.278     1749.212        0.629        0.313       78.708       29.778        0.143      340.948       15.322      859.614
04/16/2014  11:17:00       -2.827       20.498       52.451       17.322       33.972       20.759      300.064     1154.119      430.945        0.253        0.094       20.692       19.938        0.929      341.962       17.041      859.606
04/16/2014  11:18:00       -8.713        7.488       22.388       18.287       26.045       24.412      334.413      678.326      595.936        0.112        0.080       11.489       14.639        1.624      341.880       16.901      859.591
04/16/2014  11:19:00      -49.361      105.982       -5.923       49.090       61.967       34.751     2409.869     3839.910     1207.637        1.058        0.373      116.913       35.161        0.090      341.466       16.199      859.594
04/16/2014  11:20:00      -50.942      101.764       -5.637       62.916       70.904       46.912     3958.483     5027.419     2200.702        1.208        0.559      113.803       27.730        0.059      341.391       16.071      859.580
04/16/2014  11:21:00      -38.967      -99.626        0.534       51.686       62.944       29.721     2671.490     3961.970      883.336        0.948        0.376      106.976       28.717        0.072      341.340       15.985      859.592
04/16/2014  11:22:00      -12.918      -52.174       16.611       46.081       65.044       38.044     2123.463     4230.673     1447.380        0.548        0.390       53.750       38.915        0.524      341.635       16.486      859.590
04/16/2014  11:23:00      -47.434      -70.176      -25.661       42.099       51.758       24.586     1772.313     2678.877      604.495        0.644        0.253       84.703        9.397        0.012      340.961       15.346      859.593
04/16/2014  11:24:00      -10.794       27.278       40.375       51.289       58.507       41.314     2630.529     3423.025     1706.806        0.512        0.388       29.336       34.770        1.405      341.648       16.505      859.563
04/16/2014  11:25:00       63.352       29.653       39.274       33.217       31.810       45.546     1103.394     1011.854     2074.419        0.531        0.209       69.949        5.872        0.007      341.677       16.557      859.563
04/16/2014  11:26:00      138.140       86.365       22.260       56.838       35.291       43.628     3230.519     1245.445     1903.361        1.671        0.319      162.916       37.839        0.054      341.161       15.682      859.539
04/16/2014  11:27:00      156.812      112.055        7.123       91.458       67.730       59.335     8364.564     4587.330     3520.621        2.683        0.824      192.734       32.219        0.028      341.622       16.459      859.525
04/16/2014  11:28:00      108.955       76.419       16.939       89.109       70.743       44.224     7940.421     5004.565     1955.730        1.645        0.745      133.083       22.510        0.029      341.658       16.522      859.519
04/16/2014  11:29:00      107.171       28.196       23.136       95.608      111.835       70.890     9140.909    12507.167     5025.353        1.974        1.334      110.818       82.428        0.553      341.327       15.963      859.492
04/16/2014  11:30:00      101.736       71.966       50.751       99.775       75.973       43.717     9955.143     5771.863     1911.190        1.787        0.882      124.616       33.613        0.073      341.494       16.245      859.473
04/16/2014  11:31:00       30.080       65.626       33.112       51.454       73.980       51.645     2647.528     5473.089     2667.239        0.855        0.539       72.192       48.864        0.458      341.665       16.535      859.460
04/16/2014  11:32:00       17.091       90.243        5.082       40.626       41.398       37.818     1650.472     1713.769     1430.230        0.663        0.240       91.848       30.915        0.113      341.659       16.526      859.447
04/16/2014  11:33:00       13.951       57.898        9.710       31.390       39.771       33.795      985.356     1581.716     1142.074        0.367        0.185       59.555       22.962        0.149      341.836       16.827      859.429
04/16/2014  11:34:00       23.707       10.940       21.855       49.103       52.726       30.066     2411.127     2780.080      903.987        0.363        0.305       26.110       17.688        0.459      341.666       16.538      859.411
04/16/2014  11:35:00      -63.159      -22.999       15.855       54.609       59.674       30.816     2982.094     3560.933      949.642        0.613        0.375       67.217       29.160        0.188      342.192       17.431      859.372
04/16/2014  11:36:00      -76.901      -82.116        7.716       86.897       53.871       38.371     7551.110     2902.078     1472.334        1.232        0.596      112.502       41.097        0.133      341.714       16.620      859.362
04/16/2014  11:37:00      -72.789      -71.526       11.232       49.195       58.324       36.161     2420.142     3401.695     1307.626        0.883        0.356      102.051       28.616        0.079      341.437       16.149      859.338
04/16/2014  11:38:00      -15.169      -36.128       11.691       41.950       58.136       26.574     1759.769     3379.808      706.154        0.376        0.292       39.183       23.424        0.357      341.672       16.548      859.346
04/16/2014  11:39:00       77.721       84.916       15.079      102.013       61.250       50.237    10406.615     3751.562     2523.788        1.508        0.834      115.114       34.412        0.089      341.816       16.790      859.328
04/16/2014  11:40:00      127.076      108.936       10.053       91.361       65.744       54.819     8346.775     4322.339     3005.115        2.189        0.784      167.379       42.673        0.065      341.601       16.425      859.335
04/16/2014  11:41:00      169.327      227.222       -8.229       99.891       94.795       75.215     9978.233     8986.098     5657.230        5.249        1.231      283.375       66.685        0.055      341.373       16.036      859.311
04/16/2014  11:42:00      164.195      147.248       14.956      103.119       87.044       66.637    10633.576     7576.731     4440.455        3.575        1.133      220.549       32.454        0.022      341.583       16.393      859.312
04/16/2014  11:43:00      210.772      176.799        8.800      114.754       87.661       67.785    13168.460     7684.376     4594.773        5.060        1.272      275.105       40.477        0.022      341.560       16.354      859.308
04/16/2014  11:44:00      186.562      101.865       24.493       61.685       52.919       51.728     3805.083     2800.442     2675.754        2.753        0.464      212.561       23.540        0.012      341.423       16.122      859.306
04/16/2014  11:45:00       12.347      153.146       -6.645       84.109       79.109       48.612     7074.275     6258.287     2363.129        1.967        0.785      153.643       44.998        0.086      341.790       16.748      859.304
04/16/2014  11:46:00      -77.134      151.383      -21.541       37.023       51.383       36.143     1370.739     2640.229     1306.327        1.732        0.266      169.901       29.039        0.029      341.527       16.302      859.298
04/16/2014  11:47:00      -18.386       53.190      -10.597       34.888       45.027       35.726     1217.170     2027.387     1276.332        0.390        0.226       56.278       20.715        0.135      341.704       16.604      859.285
04/16/2014  11:48:00      -38.148      137.738      -15.591       48.520       56.969       34.558     2354.200     3245.432     1194.286        1.373        0.340      142.923       21.228        0.022      341.472       16.209      859.246
04/16/2014  11:49:00      -23.012       45.897       19.825       45.215       43.395       34.577     2044.421     1883.164     1195.559        0.408        0.256       51.342       27.576        0.288      342.129       17.323      859.238
04/16/2014  11:50:00      -75.156      135.487        3.974      119.318       92.049       63.684    14236.792     8473.003     4055.703        2.539        1.338      154.936       47.473        0.094      342.056       17.195      859.211
04/16/2014  11:51:00     -107.451      133.225      -17.035       88.767       72.963       50.387     7879.513     5323.569     2538.857        2.266        0.787      171.157       61.353        0.128      341.817       16.793      859.193
04/16/2014  11:52:00       16.975      134.565        8.176       49.061       99.891       52.122     2406.993     9978.140     2716.742        1.678        0.755      135.632       60.430        0.199      342.156       17.368      859.199
04/16/2014  11:53:00        8.239      116.466        7.872       40.528       79.118       46.836     1642.486     6259.623     2193.572        1.189        0.505      116.757       41.137        0.124      342.280       17.578      859.198
04/16/2014  11:54:00       40.840      138.559      -11.778       57.401      105.225       37.788     3294.861    11072.371     1427.902        1.840        0.790      144.453       45.746        0.100      341.981       17.071      859.201
04/16/2014  11:55:00       59.528      147.875       -1.571       93.607      115.433       53.968     8762.336    13324.848     2912.525        2.520        1.250      159.407       56.347        0.125      342.241       17.512      859.191
04/16/2014  11:56:00      107.188       90.140       -2.705       82.319       74.150       44.407     6776.416     5498.149     1971.957        1.693        0.712      140.052       42.129        0.090      341.941       17.002      859.176
04/16/2014  11:57:00       64.137      106.221       -6.077       61.539       63.140       48.455     3787.040     3986.673     2347.879        1.278        0.506      124.083       36.417        0.086      341.922       16.972      859.178
04/16/2014  11:58:00      -11.168       45.478        7.717       44.680       28.481       35.541     1996.337      811.170     1263.149        0.316        0.204       46.829       23.510        0.252      342.160       17.376      859.156
04/16/2014  11:59:00       66.373       22.002        9.127       69.363       34.844       31.850     4811.270     1214.134     1014.451        0.600        0.352       69.924       19.957        0.081      342.007       17.115      859.123
04/16/2014  12:00:00       60.207       57.372        7.758       51.417       47.141       42.026     2643.663     2222.299     1766.174        0.680        0.332       83.165       28.013        0.113      341.890       16.917      859.103
04/16/2014  12:01:00       21.028       86.000        7.589       89.665      100.874       38.006     8039.727    10175.610     1444.477        1.377        0.983       88.533       49.033        0.307      342.203       17.448      859.082
04/16/2014  12:02:00      -46.661      254.231      -16.709       63.776       76.124       40.886     4067.440     5794.836     1671.630        3.931        0.577      258.478       35.029        0.018      341.759       16.693      859.074
04/16/2014  12:03:00      -28.201      117.830       11.145       40.835       63.889       43.120     1667.522     4081.852     1859.328        1.120        0.380      121.158       37.293        0.095      342.300       17.614      859.071
04/16/2014  12:04:00      -33.895       14.630       19.607       47.785       37.724       32.415     2283.402     1423.074     1050.749        0.325        0.238       36.918       30.846        0.698      342.615       18.149      859.057
04/16/2014  12:05:00     -148.681      -51.715       -3.483       61.838       52.802       33.219     3823.944     2788.028     1103.502        1.625        0.386      157.418       25.914        0.027      341.855       16.858      859.027
04/16/2014  12:06:00      -62.293      -10.879       -0.911       76.361       33.940       33.300     5830.932     1151.953     1108.871        0.604        0.405       63.236       30.508        0.233      342.379       17.748      859.027
04/16/2014  12:07:00       -4.853      -20.426       23.525       40.091       51.271       30.754     1607.261     2628.712      945.794        0.309        0.259       20.995       21.701        1.068      342.632       18.177      859.021
04/16/2014  12:08:00      -13.803      -28.028       18.560       33.974       26.523       24.674     1154.225      703.493      608.818        0.189        0.123       31.242       18.506        0.351      342.356       17.708      859.002
04/16/2014  12:09:00        9.373       35.195       75.192       43.432       72.749       57.032     1886.324     5292.442     3252.650        0.870        0.522       36.422       53.283        2.140      342.541       18.023      858.981
04/16/2014  12:10:00       59.621       89.441       72.333       50.955       50.969       44.531     2596.414     2597.811     1983.048        1.198        0.359      107.492       29.483        0.075      341.940       17.002      858.961
04/16/2014  12:11:00      170.979      104.907       36.969      112.186      103.066       71.193    12585.798    10622.605     5068.454        3.494        1.414      200.598       50.654        0.064      342.095       17.263      858.953
04/16/2014  12:12:00      164.809      111.133       74.033      118.366       70.804       49.892    14010.441     5013.211     2489.209        3.325        1.076      198.778       32.175        0.026      342.118       17.301      858.944
04/16/2014  12:13:00       64.523       85.690       60.357       68.392       59.081       48.630     4677.475     3490.619     2364.893        1.284        0.527      107.266       27.776        0.067      342.238       17.508      858.948
04/16/2014  12:14:00       74.497      -23.935       58.243       74.988      116.470       70.044     5623.257    13565.270     4906.219        1.680        1.205       78.248       82.026        1.099      342.223       17.482      858.948
04/16/2014  12:15:00       96.377      -37.372       46.866       85.657       84.835       62.101     7337.121     7197.058     3856.559        1.563        0.920      103.370       55.421        0.287      342.142       17.344      858.946
04/16/2014  12:16:00       60.189      -24.899       31.221       70.630       62.101       31.630     4988.632     3856.565     1000.483        0.753        0.492       65.136       40.775        0.392      341.985       17.081      858.946
04/16/2014  12:17:00       14.528     -127.437       -9.057       52.113       34.204       28.764     2715.788     1169.901      827.352        1.062        0.236      128.263        8.417        0.004      342.007       17.116      858.928
04/16/2014  12:18:00        4.579      -81.541      -13.416       51.711       51.645       42.898     2674.031     2667.240     1840.219        0.701        0.359       81.669       30.984        0.144      342.759       18.393      858.889
04/16/2014  12:19:00     -135.340      -71.870      -21.523       78.790       59.519       35.308     6207.939     3542.569     1246.637        1.747        0.550      153.238       26.382        0.030      341.777       16.725      858.875
04/16/2014  12:20:00      -50.675      -16.164       15.213       48.367       37.136       33.440     2339.321     1379.068     1118.245        0.395        0.242       53.190       29.393        0.305      342.079       17.237      858.870
04/16/2014  12:21:00       -8.358      -19.994       22.739       39.064       54.056       34.626     1525.962     2922.077     1198.972        0.332        0.282       21.671       32.374        2.232      342.330       17.664      858.873
04/16/2014  12:22:00       37.199      -98.377        0.684       81.875       74.547       47.324     6703.568     5557.307     2239.541        1.278        0.725      105.176       48.100        0.209      342.391       17.767      858.866
04/16/2014  12:23:00       44.710       32.979       94.082       71.363       77.461       62.020     5092.619     6000.170     3846.442        1.344        0.747       55.557       58.918        1.125      342.548       18.034      858.873
04/16/2014  12:24:00       82.908       51.342       38.774      116.754      109.480       70.791    13631.419    11985.925     5011.324        2.081        1.531       97.518       85.439        0.768      341.936       16.994      858.861
04/16/2014  12:25:00      128.943      -42.721       36.907      129.283      115.001       72.001    16714.063    13225.240     5184.167        2.746        1.756      135.836       82.670        0.370      342.344       17.685      858.830
04/16/2014  12:26:00       42.913      -98.153       44.268       81.559      115.046       67.992     6651.924    13235.506     4622.979        1.897        1.226      107.124       67.791        0.400      342.490       17.937      858.834
04/16/2014  12:27:00       61.873      -16.096       65.451       79.949      111.275       61.778     6391.815    12382.072     3816.554        1.548        1.130       63.933       46.713        0.534      342.540       18.021      858.826
04/16/2014  12:28:00       69.728       32.393       71.713       72.146       78.249       54.903     5205.074     6122.930     3014.321        1.270        0.717       76.885       45.504        0.350      342.305       17.622      858.845
04/16/2014  12:29:00       59.875      -33.912       18.444       62.407       87.626       57.167     3894.587     7678.303     3268.082        0.996        0.742       68.811       50.090        0.530      342.366       17.725      858.866
04/16/2014  12:30:00       78.691       80.843        3.979       86.138       81.900       48.009     7419.706     6707.593     2304.896        1.458        0.822      112.818       46.865        0.173      342.405       17.793      858.884
04/16/2014  12:31:00      107.048      263.963      -41.811       53.297       87.008       50.041     2840.591     7570.453     2504.132        4.790        0.646      284.844       51.018        0.032      341.790       16.745      858.890
04/16/2014  12:32:00       66.128       27.100      -13.889       40.875       62.908       34.746     1670.783     3957.399     1207.296        0.607        0.342       71.466       21.833        0.093      341.659       16.525      858.906
04/16/2014  12:33:00      -40.284       12.532      -34.239      123.540       92.312       59.190    15262.252     8521.428     3503.405        1.511        1.364       42.188       57.398        1.851      341.765       16.705      858.898
04/16/2014  12:34:00     -100.976      -99.347       11.587      122.726       71.985       46.883    15061.659     5181.821     2197.995        2.132        1.122      141.655       56.716        0.160      341.906       16.941      858.843
04/16/2014  12:35:00        8.883      -67.620       -2.825       39.973       34.667       33.804     1597.871     1201.802     1142.740        0.430        0.197       68.201       27.491        0.162      341.843       16.836      858.842
04/16/2014  12:36:00       49.593      -78.233       10.324       46.971       58.877       39.638     2206.321     3466.533     1571.154        0.796        0.362       92.627       28.523        0.095      342.147       17.353      858.818
04/16/2014  12:37:00       44.250        3.897       16.465       44.704       53.172       43.981     1998.444     2827.270     1934.302        0.450        0.338       44.421       20.159        0.206      342.402       17.786      858.809
04/16/2014  12:38:00       58.882       84.760       50.061       82.977       73.777       69.582     6885.121     5443.009     4841.705        1.516        0.858      103.206       41.523        0.162      342.860       18.566      858.795
04/16/2014  12:39:00      107.978      170.144       15.814       92.288       92.643       69.531     8517.060     8582.713     4834.609        3.139        1.097      201.514       68.955        0.117      342.092       17.256      858.794
04/16/2014  12:40:00      -45.962       80.770      -25.553       52.372       80.329       46.957     2742.836     6452.709     2204.997        1.034        0.570       92.932       54.942        0.350      342.195       17.436      858.785
04/16/2014  12:41:00       50.445      146.569       -2.378       94.215      116.786       58.261     8876.385    13638.925     3394.344        2.497        1.295      155.007       62.447        0.162      342.549       18.035      858.758
04/16/2014  12:42:00       21.031      253.858      -15.558      120.895       84.561       45.283    14615.720     7150.591     2050.582        4.447        1.191      254.728       45.549        0.032      342.050       17.186      858.751
04/16/2014  12:43:00      258.944      137.126       33.850       84.146       68.048       69.514     7080.506     4630.517     4832.234        5.177        0.827      293.011       31.664        0.012      342.084       17.242      858.726
04/16/2014  12:44:00      260.374      147.258       20.995      103.699       72.621       62.260    10753.567     5273.815     3876.306        5.491        0.995      299.131       49.774        0.028      342.135       17.329      858.712
04/16/2014  12:45:00      194.759      146.311       10.800       92.178       71.485       56.280     8496.756     5110.072     3167.432        3.811        0.839      243.594       24.223        0.010      342.023       17.139      858.709
04/16/2014  12:46:00      155.139      103.668       13.995       62.245       44.565       40.412     3874.382     1985.995     1633.116        2.125        0.375      186.589       30.199        0.026      342.010       17.118      858.702
04/16/2014  12:47:00      121.648       56.657        8.851       72.030       52.874       42.963     5188.380     2795.672     1845.853        1.396        0.491      134.195       33.371        0.062      342.038       17.168      858.691
04/16/2014  12:48:00        4.641      -21.233       18.454       38.878       43.085       36.423     1511.530     1856.344     1326.667        0.275        0.235       21.735       39.027        3.224      342.135       17.333      858.669
04/16/2014  12:49:00      -11.509       92.332       -4.421       30.190       73.001       28.063      911.441     5329.191      787.513        0.785        0.351       93.046       37.053        0.159      342.404       17.790      858.643
04/16/2014  12:50:00      -11.229        3.062       25.403       21.646       37.140       22.698      468.529     1379.388      515.213        0.157        0.118       11.639       18.754        2.596      343.293       19.303      858.621
04/16/2014  12:51:00       -6.505      -18.449       27.809       34.634       32.941       32.227     1199.529     1085.139     1038.563        0.224        0.166       19.562       16.374        0.701      343.316       19.342      858.602
04/16/2014  12:52:00      -87.854       36.667        7.871       67.121       26.630       42.246     4505.265      709.166     1784.759        0.806        0.350       95.199       45.259        0.226      342.739       18.361      858.563
04/16/2014  12:53:00     -185.016      -26.356      -20.730       69.815       76.791       39.952     4874.144     5896.915     1596.123        2.386        0.618      186.884       37.139        0.039      342.470       17.900      858.555
04/16/2014  12:54:00     -199.798       20.052       -8.862       62.581       78.270       43.404     3916.423     6126.236     1883.889        2.616        0.596      200.802       40.673        0.041      342.156       17.366      858.578
04/16/2014  12:55:00     -178.185       48.610       -2.446      111.344       54.272       44.572    12397.544     2945.480     1986.662        2.572        0.866      184.697       53.409        0.084      342.509       17.967      858.553
04/16/2014  12:56:00     -244.518        3.901      -22.907      117.432       60.125       45.519    13790.355     3614.959     2071.987        3.990        0.974      244.549       62.442        0.065      342.499       17.949      858.541
04/16/2014  12:57:00     -211.955      -55.012      -20.037       84.096       54.528       36.010     7072.180     2973.333     1296.692        2.985        0.567      218.978       32.037        0.021      342.338       17.675      858.543
04/16/2014  12:58:00     -226.590      -46.243      -23.127       61.040       49.795       34.457     3725.826     2479.528     1187.288        3.070        0.370      231.260       18.596        0.006      342.340       17.678      858.537
04/16/2014  12:59:00     -246.317      -17.947      -22.867       81.920       56.020       41.001     6710.805     3138.245     1681.072        3.652        0.577      246.970       42.382        0.029      342.282       17.579      858.532
04/16/2014  13:00:00     -215.356        5.951      -15.449       92.689       60.861       39.964     8591.328     3704.094     1597.084        3.027        0.695      215.438       36.788        0.029      342.460       17.881      858.496
04/16/2014  13:01:00     -100.462      107.002        7.402       75.011       74.071       62.305     5626.667     5486.444     3881.882        1.829        0.750      146.772       56.821        0.150      342.986       18.779      858.483
04/16/2014  13:02:00      -25.143      108.530       11.057       67.417      141.154       63.124     4545.077    19924.588     3984.674        2.049        1.423      111.404       62.926        0.319      343.215       19.170      858.478
04/16/2014  13:03:00      -47.022      159.932        0.753       69.855       70.892       53.711     4879.709     5025.624     2884.890        2.029        0.640      166.701       41.145        0.061      342.563       18.059      858.482
04/16/2014  13:04:00       20.136       30.744       23.465       39.065       43.458       25.711     1526.094     1888.626      661.044        0.299        0.204       36.751       23.750        0.418      343.173       19.099      858.470
04/16/2014  13:05:00      -24.467       33.065       26.273       39.022       23.451       28.406     1522.705      549.950      806.906        0.263        0.144       41.133       24.838        0.365      343.351       19.403      858.457
04/16/2014  13:06:00      -27.855      -14.499       -1.276       46.341       41.000       42.512     2147.516     1681.026     1807.286        0.331        0.282       31.403       26.988        0.739      343.108       18.990      858.447
04/16/2014  13:07:00       18.079      -57.604       20.337       26.768       35.696       27.307      716.538     1274.206      745.682        0.340        0.137       60.375       23.026        0.145      342.551       18.040      858.441
04/16/2014  13:08:00      -48.176      -22.427        1.657       38.117       24.131       24.095     1452.910      582.314      580.560        0.272        0.131       53.141       17.688        0.111      342.751       18.380      858.445
04/16/2014  13:09:00     -166.558       -1.784      -18.428       71.773       60.884       39.651     5151.336     3706.830     1572.209        1.926        0.522      166.568       37.688        0.051      342.260       17.544      858.429
04/16/2014  13:10:00      -59.810      -67.800        6.162      108.961       39.073       37.351    11872.590     1526.703     1395.077        1.150        0.740       90.410       32.713        0.131      342.557       18.050      858.398
04/16/2014  13:11:00       47.291       -8.247       31.021       65.210       89.649       57.425     4252.359     8037.030     3297.579        0.942        0.779       48.005       60.240        1.575      342.650       18.208      858.385
04/16/2014  13:12:00       11.434       -3.363       18.068       46.139       31.800       31.348     2128.801     1011.220      982.668        0.229        0.206       11.918       29.080        5.953      342.962       18.741      858.354
04/16/2014  13:13:00      -67.441      -32.351        6.644       67.995       63.992       41.115     4623.332     4095.016     1690.403        0.802        0.520       74.799       40.733        0.297      343.153       19.066      858.337
04/16/2014  13:14:00      -32.951        8.838       21.723       35.859       55.825       43.933     1285.871     3116.423     1930.130        0.398        0.317       34.115       37.750        1.224      343.149       19.058      858.331
04/16/2014  13:15:00       28.540       -9.300       68.960       56.130       57.695       41.274     3150.585     3328.709     1703.581        0.692        0.409       30.017       32.527        1.174      343.311       19.334      858.316
04/16/2014  13:16:00       -0.353       24.486       18.425       42.212       26.517       24.012     1781.862      703.145      576.591        0.200        0.153       24.489       18.249        0.555      343.531       19.709      858.303
04/16/2014  13:17:00        0.185       39.287        4.779       42.761       31.985       30.258     1828.523     1023.054      915.538        0.267        0.188       39.287       27.345        0.484      343.377       19.447      858.302
04/16/2014  13:18:00       55.779       72.915        8.660       55.462       30.943       31.497     3076.064      957.456      992.053        0.676        0.251       91.803       21.404        0.054      343.133       19.030      858.294
04/16/2014  13:19:00       44.305       74.212        0.624       60.022       54.977       34.601     3602.627     3022.484     1197.251        0.764        0.391       86.431       27.236        0.099      343.309       19.330      858.281
04/16/2014  13:20:00       45.082      -37.472       15.896       48.846       85.898       37.199     2385.952     7378.497     1383.746        0.742        0.557       58.622       46.141        0.620      343.576       19.786      858.246
04/16/2014  13:21:00       18.779       50.102        7.260       69.249       63.531       30.601     4795.464     4036.151      936.426        0.634        0.488       53.505       34.706        0.421      343.781       20.134      858.250
04/16/2014  13:22:00       86.851      126.672       12.790       80.010       94.496       63.848     6401.626     8929.452     4076.626        2.158        0.970      153.587       57.942        0.142      343.373       19.438      858.245
04/16/2014  13:23:00       50.929      147.464      -10.378       96.501      104.383       65.959     9312.382    10895.852     4350.616        2.450        1.228      156.011       55.483        0.126      343.155       19.066      858.246
04/16/2014  13:24:00       78.653      171.439      -23.061       71.252      107.964       60.948     5076.796    11656.232     3714.618        2.827        1.022      188.620       57.167        0.092      343.010       18.819      858.263
04/16/2014  13:25:00      115.818       82.606       10.539       67.239       46.212       42.400     4521.110     2135.557     1797.742        1.440        0.423      142.259       22.066        0.024      343.168       19.089      858.277
04/16/2014  13:26:00       98.838       75.782       29.381       81.268       59.030       38.875     6604.515     3484.597     1511.231        1.399        0.580      124.547       19.825        0.025      342.740       18.361      858.299
04/16/2014  13:27:00       59.724      -24.780       38.584       51.781       56.942       44.662     2681.295     3242.443     1994.660        0.679        0.396       64.661       37.423        0.335      342.914       18.658      858.287
04/16/2014  13:28:00       14.885      -21.253       31.646       29.795       43.725       34.098      887.752     1911.846     1162.647        0.282        0.198       25.947       17.988        0.481      343.326       19.360      858.255
04/16/2014  13:29:00       37.729       -5.027       49.706       50.522       50.593       33.903     2552.494     2559.663     1149.444        0.509        0.313       38.062       26.932        0.501      343.172       19.096      858.248
04/16/2014  13:30:00       48.976      -50.020       24.242       55.730       76.234       53.751     3105.827     5811.561     2889.202        0.865        0.590       70.005       45.413        0.421      343.208       19.159      858.235
04/16/2014  13:31:00        1.650      -80.399        3.747       46.001       62.659       29.313     2116.105     3926.168      859.271        0.669        0.345       80.416       27.759        0.119      342.970       18.753      858.237
04/16/2014  13:32:00      -23.945        9.272       -1.478       87.197       94.326       41.331     7603.241     8897.331     1708.268        0.943        0.910       25.678       40.117        2.441      343.367       19.429      858.213
04/16/2014  13:33:00     -166.803      166.205      -44.667       64.899      115.038       50.931     4211.838    13233.850     2593.956        3.874        1.002      235.473       37.640        0.026      342.844       18.536      858.212
04/16/2014  13:34:00      -19.097      159.093      -18.513       61.346      153.398       58.460     3763.295    23530.879     3417.591        2.836        1.536      160.235       75.103        0.220      343.342       19.385      858.222
04/16/2014  13:35:00      -70.859      309.248      -25.343       56.189       74.532       42.486     3157.224     5555.047     1805.027        5.591        0.526      317.262       39.467        0.015      342.815       18.484      858.220
04/16/2014  13:36:00      -10.857      132.398       -2.708       79.254       78.105       49.362     6281.134     6100.431     2436.618        1.623        0.741      132.843       51.350        0.149      343.300       19.315      858.214
04/16/2014  13:37:00       -4.846       82.900       -4.167       54.466       55.034       50.242     2966.519     3028.720     2524.296        0.771        0.426       83.042       39.154        0.222      343.358       19.413      858.206
04/16/2014  13:38:00       41.538       35.696        3.021       38.488       29.102       32.846     1481.340      846.898     1078.886        0.321        0.170       54.769       18.094        0.109      343.470       19.604      858.190
04/16/2014  13:39:00       38.852      178.531       -4.368       69.308      133.366       65.164     4803.636    17786.576     4246.391        3.011        1.342      182.710       70.755        0.150      343.354       19.404      858.194
04/16/2014  13:40:00      151.978      117.754       40.643       75.722       51.149       56.468     5733.768     2616.252     3188.607        2.507        0.577      192.258       31.296        0.026      343.281       19.279      858.177
04/16/2014  13:41:00       56.408       55.877       46.532       59.869       64.729       43.664     3584.329     4189.819     1906.540        0.907        0.484       79.399       10.177        0.016      343.248       19.224      858.160
04/16/2014  13:42:00       95.403       81.417        0.943       96.547       72.280       52.411     9321.370     5224.468     2746.949        1.651        0.865      125.421       23.714        0.036      343.245       19.218      858.158
04/16/2014  13:43:00      -72.745      320.458      -37.302       54.922      114.135       35.953     3016.451    13026.867     1292.594        6.335        0.867      328.611       42.182        0.016      342.875       18.589      858.172
04/16/2014  13:44:00      -40.571      243.121      -25.772       78.320       89.735       54.731     6134.037     8052.403     2995.505        3.930        0.859      246.483       59.027        0.057      342.991       18.785      858.171
04/16/2014  13:45:00       75.280      197.238      -16.210       83.252      139.705       82.547     6930.911    19517.503     6813.946        3.904        1.663      211.116       83.889        0.158      343.295       19.303      858.134
04/16/2014  13:46:00      -26.715      152.994      -26.595       63.041       90.297       44.112     3974.151     8153.570     1945.906        1.945        0.704      155.309       43.532        0.079      343.405       19.492      858.144
04/16/2014  13:47:00       -7.153       46.045       38.117       38.055       41.372       29.772     1448.183     1711.653      886.399        0.383        0.202       46.597       25.404        0.297      343.976       20.467      858.124
04/16/2014  13:48:00     -151.919      -26.348      -23.747       94.385       98.877       37.389     8908.467     9776.687     1397.922        2.221        1.004      154.187       37.050        0.058      343.354       19.405      858.099
04/16/2014  13:49:00      -41.743      -69.145       26.898       92.654       98.097       58.686     8584.726     9623.066     3444.043        1.445        1.083       80.769       71.567        0.785      343.712       20.017      858.087
04/16/2014  13:50:00      -68.471      -45.966       10.581       71.831       48.302       37.010     5159.763     2333.064     1369.727        0.789        0.443       82.469       42.549        0.266      343.198       19.141      858.077
04/16/2014  13:51:00       24.741       53.646      -11.693       62.542       86.055       30.292     3911.553     7405.430      917.595        0.793        0.612       59.076       31.747        0.289      343.095       18.965      858.086
04/16/2014  13:52:00       83.994      125.893       -5.052       84.031       71.307       39.934     7061.197     5084.690     1594.730        1.833        0.687      151.341       39.900        0.070      343.073       18.925      858.069
04/16/2014  13:53:00      -57.688      165.884      -25.943       57.860       73.058       34.675     3347.763     5337.435     1202.374        2.070        0.494      175.628       37.202        0.045      343.243       19.216      858.056
04/16/2014  13:54:00      -95.164       54.445      -23.847       25.706       78.670       28.285      660.783     6188.948      800.013        1.012        0.382      109.638       19.968        0.033      342.892       18.620      858.044
04/16/2014  13:55:00      -83.451       48.376      -13.935       38.576       36.695       39.012     1488.131     1346.503     1521.913        0.693        0.218       96.459       29.203        0.092      343.234       19.204      857.993
04/16/2014  13:56:00      -77.999      -22.385      -20.895       29.603       38.585       35.933      876.324     1488.768     1291.200        0.534        0.183       81.148       29.961        0.136      343.047       18.884      857.967
04/16/2014  13:57:00      -24.512      -23.847        9.361       54.153       53.842       38.775     2932.548     2898.949     1503.529        0.429        0.367       34.198       43.076        1.587      343.321       19.350      857.949
04/16/2014  13:58:00       68.123       48.386       24.581       44.502       34.684       36.228     1980.440     1202.991     1312.446        0.604        0.225       83.558       24.835        0.088      343.489       19.637      857.949
04/16/2014  13:59:00      -46.495      122.676       -9.461       40.286       67.168       37.540     1622.934     4511.561     1409.247        1.242        0.377      131.191       32.318        0.061      343.316       19.341      857.936
04/16/2014  14:00:00      -53.476       62.981       12.085       78.836       44.099       41.367     6215.089     1944.685     1711.266        0.842        0.494       82.622       42.911        0.270      343.939       20.405      857.918
04/16/2014  14:01:00       60.035       36.620       60.848       75.955       65.901       55.265     5769.200     4342.935     3054.249        1.090        0.658       70.322       43.658        0.385      343.477       19.616      857.913
04/16/2014  14:02:00       59.918      -43.820        6.389       55.444       52.122       34.461     3073.991     2716.727     1187.569        0.626        0.349       74.231       24.838        0.112      343.055       18.898      857.906
04/16/2014  14:03:00      144.480       96.519       57.842      124.974       85.949       68.318    15618.615     7387.175     4667.301        3.060        1.384      173.753       67.683        0.152      343.640       19.893      857.857
04/16/2014  14:04:00      297.732      156.757       30.332      107.627      109.424       78.090    11583.489    11973.700     6098.066        7.189        1.483      336.477       51.704        0.024      343.531       19.703      857.877
04/16/2014  14:05:00      205.145      140.813       34.488      103.591       89.029       57.022    10731.017     7926.117     3251.481        4.250        1.095      248.823       43.982        0.031      343.521       19.688      857.903
04/16/2014  14:06:00      215.855      125.422        9.489      110.263       91.992       62.164    12157.862     8462.555     3864.337        4.344        1.224      249.648       18.784        0.006      343.273       19.266      857.898
04/16/2014  14:07:00      284.291      152.518       23.807      137.929       96.270       79.028    19024.297     9267.872     6245.419        6.959        1.727      322.619       70.459        0.048      343.521       19.686      857.878
04/16/2014  14:08:00      193.212       99.715       33.039      122.255       88.131       69.652    14946.387     7767.111     4851.344        3.796        1.378      217.426       43.938        0.041      343.550       19.739      857.885
04/16/2014  14:09:00      115.711      147.597       -1.888      106.293      106.237       68.654    11298.120    11286.270     4713.428        3.123        1.365      187.547       60.459        0.104      343.246       19.220      857.917
04/16/2014  14:10:00       57.616       56.911       -4.099       48.415       67.346       46.498     2343.969     4535.438     2162.030        0.781        0.452       80.984       28.578        0.125      343.130       19.024      857.934
04/16/2014  14:11:00       10.804       62.934        6.049       63.688       63.094       40.698     4056.117     3980.794     1656.362        0.690        0.485       63.854       37.500        0.345      343.357       19.413      857.916
04/16/2014  14:12:00      -37.096       18.566       -2.894       37.615       42.391       30.954     1414.907     1796.965      958.163        0.295        0.209       41.482       24.709        0.355      343.254       19.236      857.884
04/16/2014  14:13:00      -15.209     -127.150       -7.931       45.621       57.228       40.385     2081.249     3275.042     1630.981        1.172        0.349      128.056       30.973        0.059      343.371       19.434      857.836
04/16/2014  14:14:00       11.700      -37.607       29.167       58.491       40.818       30.688     3421.230     1666.121      941.774        0.421        0.301       39.385       28.746        0.533      343.548       19.738      857.829
04/16/2014  14:15:00       22.212       16.264        9.638       29.896       39.029       24.270      893.766     1523.289      589.051        0.193        0.150       27.530       16.625        0.365      343.493       19.643      857.816
04/16/2014  14:16:00       14.146       56.909       -7.232       21.982       31.664       25.951      483.228     1002.590      673.480        0.282        0.108       58.641       13.004        0.049      343.327       19.361      857.806
04/16/2014  14:17:00       26.051        6.327       17.309       25.293       24.235       18.280      639.745      587.355      334.146        0.129        0.078       26.809       10.275        0.147      343.608       19.841      857.789
04/16/2014  14:18:00       80.600       51.280       55.722       94.228       84.965       50.017     8878.960     7219.038     2501.674        1.541        0.930       95.530       52.101        0.297      343.443       19.557      857.786
04/16/2014  14:19:00       40.284       16.815       94.835       66.665       97.545       58.806     4444.187     9514.991     3458.114        1.415        0.871       43.653       54.496        1.558      343.892       20.323      857.771
04/16/2014  14:20:00       63.110       55.849       48.661       82.108       71.153       60.125     6741.663     5062.683     3615.026        1.244        0.771       84.273       41.255        0.240      343.866       20.278      857.774
04/16/2014  14:21:00      128.442       87.470       36.245       72.161       67.598       56.354     5207.143     4569.529     3175.796        1.920        0.648      155.397       26.578        0.029      344.282       20.988      857.773
04/16/2014  14:22:00       60.644      173.053       -9.281       93.642       77.103       48.642     8768.906     5944.943     2366.010        2.539        0.854      183.371       40.476        0.049      343.958       20.434      857.777
04/16/2014  14:23:00       -7.061      118.636       -8.998       44.014       75.989       37.130     1937.248     5774.389     1378.620        1.165        0.455      118.846       41.157        0.120      343.561       19.760      857.770
04/16/2014  14:24:00       86.311       33.431       17.651       98.616       85.500       49.002     9725.187     7310.226     2401.206        1.415        0.972       92.559       27.524        0.088      343.963       20.443      857.746
04/16/2014  14:25:00       40.749       42.123       18.097       62.540       76.437       36.631     3911.243     5842.682     1341.853        0.743        0.555       58.608       29.468        0.253      343.419       19.517      857.755
04/16/2014  14:26:00       72.103       13.506        2.072       24.970       30.029       36.207      623.520      901.723     1310.911        0.411        0.142       73.357       16.814        0.053      343.176       19.102      857.742
04/16/2014  14:27:00       58.538        1.923       19.645       30.548       34.448       23.841      933.210     1186.660      568.384        0.325        0.134       58.569       21.466        0.134      343.315       19.341      857.732
04/16/2014  14:28:00       96.169       91.054       70.914       82.911       44.975       62.228     6874.217     2022.745     3872.341        1.767        0.638      132.436       55.974        0.179      343.282       19.283      857.721
04/16/2014  14:29:00       92.388       65.715       47.459       59.291       39.821       40.948     3515.422     1585.724     1676.754        1.094        0.339      113.375       32.860        0.084      343.717       20.024      857.708
04/16/2014  14:30:00       54.825      -25.279       15.659       67.663       90.446       54.435     4578.342     8180.547     2963.164        0.980        0.786       60.372       56.754        0.884      343.804       20.174      857.696
04/16/2014  14:31:00      110.278       89.866       39.749      119.942       63.087       54.996    14386.151     3980.031     3024.556        2.160        1.070      142.257       50.952        0.128      343.675       19.953      857.695
04/16/2014  14:32:00      126.199       89.068        2.811       93.244       59.129       53.863     8694.523     3496.221     2901.217        1.948        0.755      154.465       39.094        0.064      343.644       19.899      857.682
04/16/2014  14:33:00      183.279      148.507       49.798      109.571       76.274       52.299    12005.871     5817.736     2735.175        3.934        1.028      235.893       18.850        0.006      343.996       20.500      857.675
04/16/2014  14:34:00      180.207      106.883        3.643       96.829       82.161       56.686     9375.906     6750.371     3213.344        3.162        0.967      209.520       21.650        0.011      344.097       20.671      857.684
04/16/2014  14:35:00       46.777      125.478       -8.746       75.542       62.419       49.632     5706.569     3896.080     2463.337        1.504        0.603      133.914       42.703        0.102      343.851       20.255      857.678
04/16/2014  14:36:00       64.126      120.192       43.269      133.302       89.812       67.240    17769.471     8066.212     4521.240        2.539        1.518      136.229       54.496        0.160      343.799       20.164      857.658
04/16/2014  14:37:00       74.228       26.827       57.447       77.753       91.993       61.346     6045.523     8462.663     3763.281        1.390        0.914       78.927       57.391        0.529      343.573       19.779      857.625
04/16/2014  14:38:00       83.663      -71.669        7.170       73.495       76.613       49.009     5401.550     5869.618     2401.859        1.293        0.684      110.164       22.262        0.041      343.370       19.433      857.607
04/16/2014  14:39:00       65.400        5.803       21.668       59.169       53.592       35.717     3501.005     2872.128     1275.679        0.621        0.382       65.657       34.759        0.280      343.595       19.817      857.584
04/16/2014  14:40:00       87.874       53.229       45.435       74.223       81.627       55.590     5509.040     6663.048     3090.269        1.394        0.763      102.738       43.827        0.182      343.704       20.003      857.561
04/16/2014  14:41:00       92.828      134.746      121.304      121.343      100.300       83.591    14724.149    10060.135     6987.429        3.662        1.589      163.626       73.884        0.204      343.897       20.329      857.554
04/16/2014  14:42:00      190.304      148.020       21.146      112.815       88.861       68.003    12727.145     7896.294     4624.432        4.191        1.262      241.092       37.462        0.024      343.877       20.295      857.562
04/16/2014  14:43:00      219.368      117.890       45.095      135.046       87.165       74.132    18237.514     7597.713     5495.592        4.769        1.567      249.039       57.620        0.054      343.781       20.132      857.558
04/16/2014  14:44:00      249.851      171.990       18.866       99.744       77.638       58.828     9948.838     6027.620     3460.755        5.590        0.972      303.325       32.406        0.011      343.385       19.455      857.595
04/16/2014  14:45:00       52.432       57.778       18.343      102.298       44.467       56.468    10464.818     1977.289     3188.602        1.102        0.782       78.022       16.210        0.043      343.434       19.542      857.586
04/16/2014  14:46:00     -218.481       -5.702      -31.954       78.748       83.422       39.527     6201.295     6959.249     1562.413        3.175        0.736      218.555       27.800        0.016      343.801       20.165      857.521
04/16/2014  14:47:00     -120.520      -48.684        2.940      114.789       62.427       61.449    13176.492     3897.164     3776.037        1.887        1.042      129.981       71.915        0.306      343.563       19.761      857.485
04/16/2014  14:48:00     -134.707      -24.139       10.533       67.856       65.546       36.995     4604.492     4296.334     1368.605        1.455        0.513      136.853       35.859        0.069      343.605       19.835      857.462
04/16/2014  14:49:00       15.171       50.050       55.572       62.960       95.363       85.859     3963.947     9094.192     7371.692        1.312        1.021       52.299       84.407        2.605      343.803       20.172      857.480
04/16/2014  14:50:00      163.758       63.240       85.234      111.069      119.266       71.266    12336.395    14224.370     5078.869        3.485        1.582      175.545       57.736        0.108      343.510       19.670      857.461
04/16/2014  14:51:00      255.421      181.655       49.613      130.105       94.430       87.532    16927.297     8916.964     7661.796        6.710        1.675      313.430       11.032        0.001      343.760       20.094      857.430
04/16/2014  14:52:00      193.546      160.023       19.778      136.319       93.651       76.256    18582.791     8770.577     5814.950        4.831        1.658      251.132       51.783        0.043      343.617       19.853      857.412
04/16/2014  14:53:00      186.413      120.727       22.586      106.462       65.454       64.847    11334.162     4284.270     4205.175        3.483        0.991      222.092       34.797        0.025      343.999       20.502      857.397
04/16/2014  14:54:00      220.706      156.831       22.190      112.486       92.099       75.095    12653.037     8482.254     5639.314        5.028        1.339      270.753       46.618        0.030      343.707       20.005      857.417
04/16/2014  14:55:00      151.601      124.477       86.059      112.328      102.177       98.917    12617.581    10440.133     9784.573        3.936        1.642      196.157       84.037        0.184      344.062       20.610      857.411
04/16/2014  14:56:00      173.043      170.672      150.725      134.345      105.417       97.472    18048.619    11112.788     9500.756        6.022        1.933      243.049       73.378        0.091      343.685       19.967      857.404
04/16/2014  14:57:00      185.254      192.403      148.261      114.278       99.960       92.217    13059.415     9992.030     8503.925        6.243        1.578      267.091       74.596        0.078      343.289       19.292      857.421
04/16/2014  14:58:00       93.330       53.203      152.824      125.061      135.906       84.134    15640.344    18470.560     7078.496        3.803        2.059      107.429       82.849        0.595      343.868       20.281      857.399
04/16/2014  14:59:00      115.863     -126.535       24.735      142.659      209.338      129.457    20351.725    43822.304    16759.152        5.547        4.047      171.568      152.489        0.790      343.733       20.050      857.387
04/16/2014  15:00:00      209.365     -308.549      -33.874       68.189       66.518       40.832     4649.679     4424.656     1667.264        7.546        0.537      372.876       37.261        0.010      343.136       19.030      857.440
04/16/2014  15:01:00       38.264      -78.127        7.050       50.397       89.757       45.745     2539.862     8056.229     2092.574        1.015        0.634       86.994       30.640        0.124      343.891       20.323      857.441
04/16/2014  15:02:00     -141.688      -75.356       -1.791       85.301       55.115       41.804     7276.344     3037.613     1747.581        1.891        0.603      160.481       41.886        0.068      343.682       19.964      857.402
04/16/2014  15:03:00     -136.412      -77.524       -0.739      127.388       65.332       43.835    16227.590     4268.282     1921.467        2.351        1.121      156.902       32.375        0.043      343.774       20.121      857.353
04/16/2014  15:04:00      -21.637      -16.275       12.603       36.892       33.380       28.940     1361.043     1114.210      837.542        0.210        0.166       27.075       22.614        0.698      344.294       21.011      857.365
04/16/2014  15:05:00       80.667       95.562        5.271      131.031       84.999       60.953    17169.205     7224.816     3715.310        2.188        1.405      125.056       40.685        0.106      344.008       20.521      857.402
04/16/2014  15:06:00      286.210      158.342       31.638       97.799       75.493       70.992     9564.658     5699.179     5039.837        6.414        1.015      327.091       52.871        0.026      343.477       19.612      857.400
04/16/2014  15:07:00      -11.339       15.275       -6.653      152.563       61.057       32.449    23275.361     3727.897     1052.907        1.423        1.403       19.024       25.443        1.789      343.515       19.678      857.424
04/16/2014  15:08:00     -122.437      -97.730      -17.366      153.644       86.841       53.792    23606.491     7541.324     2893.584        2.944        1.702      156.659       45.075        0.083      343.761       20.096      857.343
04/16/2014  15:09:00      -18.013      -24.299       36.831       45.733       85.326       47.472     2091.501     7280.450     2253.597        0.695        0.581       30.247       60.098        3.948      344.122       20.717      857.345
04/16/2014  15:10:00        1.640        4.225       44.012       35.203       49.004       32.777     1239.286     2401.412     1074.357        0.334        0.236        4.533       30.840       46.293      344.221       20.886      857.329
04/16/2014  15:11:00       30.030      -52.425       31.503       55.594       82.550       59.613     3090.673     6814.547     3553.756        0.905        0.673       60.417       64.492        1.139      344.179       20.815      857.327
04/16/2014  15:12:00       59.859      -42.924       28.086       87.290      107.305       59.418     7619.533    11514.422     3530.459        1.443        1.133       73.659       66.614        0.818      344.234       20.906      857.317
04/16/2014  15:13:00      160.364      111.363       62.581      118.143       69.090       64.719    13957.786     4773.373     4188.527        3.247        1.146      195.239       56.593        0.084      344.104       20.682      857.321
04/16/2014  15:14:00      163.546      102.499       16.321       85.054       69.229       50.598     7234.192     4792.652     2560.113        2.605        0.729      193.011       30.211        0.024      343.483       19.624      857.343
04/16/2014  15:15:00      187.213      117.091       39.566       99.211       75.032       42.011     9842.739     5629.750     1764.904        3.378        0.862      220.814       18.296        0.007      343.624       19.865      857.332
04/16/2014  15:16:00      193.325      110.915       18.100      109.382       85.089       61.544    11964.464     7240.197     3787.723        3.649        1.150      222.883       41.102        0.034      343.640       19.892      857.308
04/16/2014  15:17:00      102.098       70.621       70.602      122.551       90.971       80.374    15018.845     8275.660     6459.952        2.507        1.488      124.143       67.052        0.292      343.878       20.297      857.303
04/16/2014  15:18:00      183.459       71.150       97.174      104.923       93.578       80.149    11008.789     8756.901     6423.844        3.717        1.309      196.773       61.913        0.099      343.596       19.816      857.306
04/16/2014  15:19:00      104.335      141.113      157.075      102.575      113.357       81.228    10521.643    12849.893     6598.045        4.271        1.498      175.495       78.519        0.200      343.641       19.894      857.284
04/16/2014  15:20:00       53.163      111.305      119.484       96.545       72.547       80.701     9321.011     5263.070     6512.665        2.529        1.055      123.350       75.289        0.373      344.134       20.736      857.278
04/16/2014  15:21:00       53.144       59.665       80.176       49.584       74.297       55.709     2458.554     5520.098     3103.478        1.195        0.554       79.901       48.025        0.361      344.125       20.722      857.257
04/16/2014  15:22:00       61.961      -21.957       75.430       79.155      125.163       75.812     6265.517    15665.822     5747.428        1.884        1.384       65.736       90.366        1.890      344.144       20.752      857.231
04/16/2014  15:23:00      141.377     -209.517       -0.310       89.588      154.458       56.130     8026.074    23857.139     3150.612        4.945        1.752      252.754       74.261        0.086      343.593       19.811      857.205
04/16/2014  15:24:00      140.104     -278.959        0.458       58.257      108.005       53.592     3393.899    11665.169     2872.123        5.769        0.897      312.165       48.030        0.024      343.357       19.408      857.184
04/16/2014  15:25:00       18.702     -105.650        3.306      100.155       74.387       45.041    10031.004     5533.380     2028.663        1.455        0.880      107.293       36.248        0.114      343.721       20.031      857.166
04/16/2014  15:26:00       38.896     -160.194       -2.510      147.421      141.471       56.700    21732.979    20014.136     3214.877        3.606        2.248      164.849       62.381        0.143      343.949       20.418      857.149
04/16/2014  15:27:00      135.770     -227.540        1.381       99.996      128.191       53.657     9999.254    16432.890     2879.039        4.975        1.466      264.968       57.983        0.048      343.560       19.756      857.171
04/16/2014  15:28:00      -83.439      -13.024       16.629      136.017      102.060       71.641    18500.501    10416.301     5132.493        2.072        1.702       84.449       72.547        0.738      343.931       20.390      857.112
04/16/2014  15:29:00      -68.930     -103.552        5.887      112.016       72.404       40.321    12547.489     5242.393     1625.819        1.746        0.971      124.396       33.579        0.073      344.181       20.817      857.061
04/16/2014  15:30:00       -2.088     -139.824      -38.553      104.180       90.103       43.939    10853.389     8118.568     1930.605        2.097        1.045      139.839       29.625        0.045      344.170       20.797      857.033
04/16/2014  15:31:00      -86.993      -50.013       17.379       68.977       59.242       36.405     4757.801     3509.563     1325.319        0.998        0.480      100.345       34.674        0.119      344.042       20.580      857.026
04/16/2014  15:32:00       -9.239       33.735       58.749       30.056       64.976       54.052      903.390     4221.895     2921.601        0.636        0.402       34.978       49.190        1.978      344.461       21.295      857.004
04/16/2014  15:33:00       37.602      -46.346       60.488       71.244      142.302       74.851     5075.755    20249.814     5602.614        1.907        1.546       59.681       93.652        2.462      344.556       21.457      856.976
04/16/2014  15:34:00      180.754       39.273       70.048      185.545      173.592      100.968    34426.970    30134.089    10194.618        5.692        3.738      184.971       88.601        0.229      344.162       20.783      856.943
04/16/2014  15:35:00      228.483      150.513       34.706      152.749      107.618       84.879    23332.150    11581.706     7204.380        5.908        2.106      273.603       43.121        0.025      343.884       20.306      856.961
04/16/2014  15:36:00       78.651      207.564      -24.187       95.928      126.723       69.226     9202.268    16058.827     4792.253        3.995        1.503      221.966       67.675        0.093      343.715       20.018      856.964
04/16/2014  15:37:00       57.446      206.169      -36.005       49.533       76.405       40.859     2453.524     5837.679     1669.432        2.853        0.498      214.022       36.772        0.030      343.615       19.849      856.965
04/16/2014  15:38:00        6.894       46.521      -23.694       73.051       55.144       30.359     5336.422     3040.894      921.658        0.603        0.465       47.029       31.301        0.443      343.994       20.497      856.945
04/16/2014  15:39:00      185.724      120.513       84.779      102.595       89.012       82.374    10525.729     7923.081     6785.496        4.071        1.262      221.397       61.855        0.078      344.431       21.241      856.944
04/16/2014  15:40:00      221.952      104.532       39.315      120.436       99.909       95.242    14504.879     9981.858     9071.070        4.764        1.678      245.335       72.672        0.088      344.116       20.702      856.968
04/16/2014  15:41:00      166.934      134.256       23.997       70.021       53.454       60.228     4902.909     2857.285     3627.445        2.893        0.569      214.224       19.296        0.008      344.071       20.627      856.975
04/16/2014  15:42:00       52.712      107.792      127.334       68.812       75.682       60.156     4735.130     5727.752     3618.804        2.234        0.704      119.991       58.970        0.242      343.995       20.499      856.959
04/16/2014  15:43:00      110.719      102.805       91.714       86.728       91.736       72.583     7521.777     8415.541     5268.245        2.622        1.060      151.088       64.769        0.184      343.843       20.238      856.934
04/16/2014  15:44:00      146.522       63.142       54.129       86.195       62.009       61.969     7429.559     3845.065     3840.099        2.175        0.756      159.549       54.690        0.117      343.998       20.503      856.923
04/16/2014  15:45:00      106.469      123.728       98.882      124.074       73.540       64.329    15394.343     5408.125     4138.234        3.068        1.247      163.230       64.726        0.157      344.245       20.925      856.900
04/16/2014  15:46:00      125.898      101.428       -6.284       78.001       83.671       62.834     6084.215     7000.868     3948.147        2.160        0.852      161.673       49.927        0.095      344.039       20.573      856.901
04/16/2014  15:47:00      312.332      163.636       47.557      130.535       77.114       70.925    17039.298     5946.629     5030.337        7.730        1.401      352.602       38.554        0.012      343.905       20.343      856.903
04/16/2014  15:48:00      225.423      141.347       41.361       94.901       93.289       75.839     9006.147     8702.766     5751.501        4.798        1.173      266.072       36.137        0.018      344.104       20.684      856.901
04/16/2014  15:49:00      241.741      141.774       25.564      111.742       84.889       68.077    12486.282     7206.164     4634.446        5.175        1.216      280.247       54.319        0.038      344.022       20.544      856.897
04/16/2014  15:50:00      241.073      115.690       17.557      109.753      101.895       63.114    12045.644    10382.668     3983.345        4.910        1.321      267.396       33.864        0.016      343.664       19.932      856.890
04/16/2014  15:51:00      202.105       85.661       45.078      130.164      101.292       78.107    16942.764    10260.030     6100.675        4.175        1.665      219.509       45.994        0.044      343.965       20.446      856.877
04/16/2014  15:52:00      276.204      164.323       47.495      117.940      101.413       77.520    13909.839    10284.544     6009.417        6.787        1.510      321.389       61.158        0.036      344.048       20.587      856.877
04/16/2014  15:53:00      284.945      154.998       42.816      144.683      114.877       79.621    20933.180    13196.717     6339.487        7.375        2.023      324.373       68.581        0.045      343.994       20.495      856.897
04/16/2014  15:54:00      177.961      122.902        0.346       88.555       74.930       59.734     7841.916     5614.444     3568.163        3.190        0.851      216.275       26.775        0.015      343.759       20.095      856.919
04/16/2014  15:55:00       15.094      144.113      -17.287       59.099       95.184       44.606     3492.644     9059.984     1989.725        1.792        0.727      144.901       43.068        0.088      343.832       20.221      856.901
04/16/2014  15:56:00      -65.536       75.358      -30.502       45.629      101.486       40.108     2081.967    10299.421     1608.654        1.244        0.700       99.869       27.462        0.076      343.848       20.248      856.890
04/16/2014  15:57:00      -66.742       17.127       -5.674       29.671       31.097       26.071      880.390      967.004      679.704        0.365        0.126       68.905       18.105        0.069      344.109       20.695      856.887
04/16/2014  15:58:00       16.592        4.896       14.677       43.439       56.980       42.069     1886.964     3246.741     1769.823        0.371        0.345       17.300       30.401        3.088      344.507       21.376      856.884
04/16/2014  15:59:00      111.655      107.034      100.295      112.975       82.174       74.954    12763.337     6752.599     5618.091        2.955        1.257      154.671       67.971        0.193      344.651       21.618      856.875
04/16/2014  16:00:00      182.988      147.941       70.184      110.222       78.710       74.766    12148.820     6195.313     5590.011        4.211        1.197      235.311       58.872        0.063      344.380       21.154      856.897
04/16/2014  16:01:00      315.504      211.456       49.220      127.159       73.010       72.899    16169.418     5330.423     5314.217        8.674        1.341      379.812       57.735        0.023      344.001       20.507      856.910
04/16/2014  16:02:00      222.638      147.007       72.272      159.743      101.571       87.601    25517.737    10316.593     7673.849        5.995        2.175      266.794       88.450        0.110      344.148       20.758      856.912
04/16/2014  16:03:00      126.909      110.547       97.210      117.030       82.574       71.699    13695.994     6818.527     5140.807        3.171        1.283      168.305       64.619        0.147      344.344       21.093      856.914
04/16/2014  16:04:00      151.203       92.114       76.213       68.770       81.687       71.616     4729.258     6672.815     5128.836        2.684        0.827      177.052       51.762        0.085      343.851       20.252      856.923
04/16/2014  16:05:00      161.370       74.091       34.790       83.238       81.818       56.371     6928.512     6694.143     3177.735        2.477        0.840      177.566       47.731        0.072      344.415       21.216      856.924
04/16/2014  16:06:00      276.055      109.004       60.774      133.161      134.331       84.133    17731.825    18044.828     7078.424        6.731        2.143      296.797       78.902        0.071      344.334       21.076      856.904
04/16/2014  16:07:00      200.490      147.540       81.481      151.323      120.108       87.774    22898.557    14425.921     7704.355        5.681        2.251      248.926       73.785        0.088      344.492       21.345      856.891
04/16/2014  16:08:00      200.128      193.075      158.381      175.435      129.299      113.387    30777.543    16718.360    12856.664        8.137        3.018      278.081      101.796        0.134      344.237       20.910      856.880
04/16/2014  16:09:00       79.304       57.267       85.249      115.437      128.842       85.982    13325.733    16600.280     7392.931        2.707        1.866       97.819       46.306        0.224      344.549       21.444      856.868
04/16/2014  16:10:00      209.714      166.167      118.550      141.736      142.420      138.455    20089.019    20283.370    19169.649        7.258        2.977      267.566      121.477        0.206      344.284       20.990      856.919
04/16/2014  16:11:00       58.511       54.787       39.245       94.249       67.073       56.482     8882.833     4498.736     3190.176        1.227        0.829       80.157       20.100        0.063      344.574       21.490      856.943
04/16/2014  16:12:00       67.706      137.969        0.987       70.237       56.825       47.593     4933.227     3229.090     2265.098        1.702        0.521      153.686       40.298        0.069      343.954       20.428      856.914
04/16/2014  16:13:00       77.792       55.739       67.693       87.066       69.094       45.167     7580.436     4774.043     2040.070        1.406        0.720       95.700       42.267        0.195      344.246       20.928      856.891
04/16/2014  16:14:00      118.845      138.796       93.989      100.732       74.221       85.258    10147.014     5508.755     7268.883        3.257        1.146      182.725       69.642        0.145      344.289       20.999      856.861
04/16/2014  16:15:00      210.844      182.966      153.853      159.858      130.657      116.605    25554.560    17071.327    13596.729        7.890        2.811      279.162       98.370        0.124      344.233       20.902      856.794
04/16/2014  16:16:00      116.771      171.608      157.881      132.386      112.131       92.859    17525.982    12573.262     8622.831        5.336        1.936      207.569       77.239        0.138      344.161       20.779      856.803
04/16/2014  16:17:00       89.442      -19.880       32.019       66.662       92.780       52.290     4443.791     8608.218     2734.223        1.260        0.789       91.624       30.445        0.110      344.073       20.633      856.784
04/16/2014  16:18:00       82.367       85.254       74.824       60.567       49.297       51.191     3668.308     2430.153     2620.539        1.418        0.436      118.543       33.618        0.080      344.538       21.427      856.740
04/16/2014  16:19:00       91.218       54.479       34.630       78.088       72.655       49.219     6097.726     5278.685     2422.482        1.314        0.690      106.249       34.070        0.103      344.735       21.764      856.720
04/16/2014  16:20:00      119.170      114.893       98.285      111.690       80.527       58.245    12474.722     6484.623     3392.444        2.970        1.118      165.535       43.059        0.068      344.575       21.490      856.695
04/16/2014  16:21:00      108.698      -24.674       61.119      123.474      109.905       67.111    15245.854    12079.200     4503.867        2.399        1.591      111.463       67.289        0.364      344.261       20.953      856.685
04/16/2014  16:22:00      137.328      141.668      114.723      146.007      131.483      101.251    21318.146    17287.840    10251.768        5.046        2.443      197.304       82.982        0.177      344.198       20.844      856.635
04/16/2014  16:23:00       48.608      -91.842       45.450       66.471      122.257       63.042     4418.437    14946.877     3974.354        1.810        1.167      103.911       80.774        0.604      344.521       21.398      856.612
04/16/2014  16:24:00      112.411      -47.791       61.285      104.492      146.194       70.936    10918.628    21372.818     5031.886        2.799        1.866      122.148       66.282        0.294      344.605       21.542      856.585
04/16/2014  16:25:00      215.834      151.379      127.252      175.951      132.228      105.172    30958.614    17484.227    11061.088        7.259        2.975      263.628      102.265        0.150      344.371       21.138      856.564
04/16/2014  16:26:00      217.604      142.299      115.130      105.723       84.367       84.426    11177.424     7117.725     7127.736        5.313        1.271      260.001       57.753        0.049      344.302       21.019      856.596
04/16/2014  16:27:00      100.088      126.809      134.610      114.594       89.929       49.291    13131.847     8087.160     2429.640        3.393        1.182      161.549       30.567        0.036      344.462       21.295      856.591
04/16/2014  16:28:00      111.951      101.041       79.840       81.508       61.437       59.496     6643.502     3774.507     3539.818        2.153        0.698      150.806       54.888        0.132      344.356       21.115      856.581
04/16/2014  16:29:00      107.158       62.620       56.285       99.622       64.467       54.077     9924.518     4156.058     2924.318        1.779        0.850      124.113       47.752        0.148      344.564       21.471      856.564
04/16/2014  16:30:00      303.399      194.767       44.308      108.744       77.124       59.648    11825.303     5948.110     3557.910        7.664        1.067      360.534       31.146        0.007      344.221       20.885      856.553
04/16/2014  16:31:00      168.357       99.625       54.981      122.023       89.729       72.200    14889.572     8051.347     5212.897        3.472        1.408      195.625       40.095        0.042      344.278       20.980      856.544
04/16/2014  16:32:00      120.062       91.922       68.563      118.383       68.732       62.962    14014.472     4724.046     3964.227        2.513        1.135      151.210       45.785        0.092      344.560       21.464      856.523
04/16/2014  16:33:00       74.712       78.601       97.313       73.255       79.479       70.294     5366.355     6316.941     4941.308        1.892        0.831      108.444       42.114        0.151      344.585       21.508      856.505
04/16/2014  16:34:00      145.825      141.627      116.110      107.704      119.985      105.684    11600.148    14396.387    11169.100        4.598        1.858      203.281       81.079        0.159      344.408       21.202      856.504
04/16/2014  16:35:00      144.127       94.996      141.243      111.486      106.468       89.724    12429.052    11335.503     8050.451        4.077        1.591      172.617       81.667        0.224      344.200       20.847      856.486
04/16/2014  16:36:00       73.064       69.583       95.403      109.751       80.620       57.284    12045.177     6499.547     3281.444        2.055        1.091      100.896       54.602        0.293      344.451       21.279      856.486
04/16/2014  16:37:00      205.488       69.925       47.469      120.691      102.068       61.298    14566.236    10417.834     3757.473        3.905        1.437      217.060       54.682        0.063      344.332       21.072      856.506
04/16/2014  16:38:00      117.905      124.738       95.265       88.328      112.543       94.645     7801.879    12665.902     8957.600        3.398        1.471      171.643       81.065        0.223      344.458       21.289      856.532
04/16/2014  16:39:00      295.021      177.979       50.547      111.280       84.256       74.571    12383.285     7099.005     5560.894        7.315        1.252      344.549       30.321        0.008      344.233       20.903      856.523
04/16/2014  16:40:00       93.694      111.193      119.847      126.861       93.182       71.107    16093.590     8682.887     5056.203        3.266        1.492      145.405       78.234        0.289      344.420       21.224      856.532
04/16/2014  16:41:00      123.043       37.525       39.082       94.491       82.553       72.627     8928.595     6814.981     5274.628        1.954        1.051      128.638       46.635        0.131      344.466       21.303      856.540
04/16/2014  16:42:00      104.313       83.507        7.864       86.106       50.257       37.126     7414.224     2525.770     1378.303        1.462        0.566      133.621       16.864        0.016      344.195       20.839      856.542
04/16/2014  16:43:00       45.930       85.245       -2.318       51.115       83.509       38.880     2612.755     6973.696     1511.685        1.024        0.555       96.831       39.014        0.162      344.307       21.033      856.535
04/16/2014  16:44:00      169.074      142.747        0.990      135.911       89.884       73.466    18471.832     8079.099     5397.191        4.045        1.597      221.275       54.415        0.060      344.165       20.788      856.528
04/16/2014  16:45:00      154.135      136.567       10.224      124.900       87.599       64.930    15600.023     7673.566     4215.885        3.500        1.374      205.932       40.188        0.038      344.314       21.042      856.526
04/16/2014  16:46:00       95.234      152.348        3.875      103.856      115.095       79.204    10786.103    13246.856     6273.256        3.129        1.515      179.665       64.076        0.127      344.248       20.930      856.554
04/16/2014  16:47:00       71.117      183.345       -8.142       97.629      133.560       65.233     9531.351    17838.333     4255.368        3.518        1.581      196.654       76.371        0.151      344.266       20.961      856.550
04/16/2014  16:48:00      278.797      132.865       83.706      170.425      116.903       90.142    29044.521    13666.298     8125.505        7.660        2.542      308.838       65.881        0.046      344.276       20.975      856.543
04/16/2014  16:49:00       79.608      125.285       -4.432       80.035       78.853       56.311     6405.623     6217.792     3170.926        1.892        0.790      148.438       42.045        0.080      344.510       21.379      856.579
04/16/2014  16:50:00      155.434       91.551       56.022      108.561       69.596       72.274    11785.519     4843.614     5223.547        2.876        1.093      180.392       50.380        0.078      344.497       21.355      856.605
04/16/2014  16:51:00      311.377      193.329       39.686      116.607      101.434       80.164    13597.225    10288.814     6426.338        8.310        1.516      366.513       62.739        0.029      344.051       20.592      856.624
04/16/2014  16:52:00      127.243       70.235       31.207       76.145       67.535       43.445     5798.007     4561.023     1887.490        1.717        0.612      145.340       19.304        0.018      344.152       20.767      856.615
04/16/2014  16:53:00       97.803       66.824       17.411       83.860       60.974       43.241     7032.540     3717.782     1869.784        1.347        0.631      118.452       15.054        0.016      344.409       21.206      856.583
04/16/2014  16:54:00      273.989      129.191       29.632      148.003      107.543       58.703    21904.778    11565.446     3446.092        6.477        1.846      302.920       20.951        0.005      344.243       20.921      856.552
04/16/2014  16:55:00      250.488      136.013       46.151      114.513       88.092       71.277    13113.120     7760.183     5080.457        5.466        1.298      285.033       39.982        0.020      344.396       21.181      856.519
04/16/2014  16:56:00       84.034       86.945       74.229       94.334       71.670       62.458     8898.915     5136.589     3901.033        1.903        0.897      120.918       48.376        0.160      344.736       21.765      856.502
04/16/2014  16:57:00      117.819        7.808       64.960       87.928      133.578       64.270     7731.406    17843.117     4130.626        2.393        1.485      118.077       69.837        0.350      344.507       21.373      856.469
04/16/2014  16:58:00       74.424      107.172       91.892      105.319       81.280       71.823    11092.133     6606.472     5158.605        2.416        1.143      130.479       58.947        0.204      344.792       21.859      856.461
04/16/2014  16:59:00      172.953      104.400      123.257      138.453      158.798      105.272    19169.329    25216.928    11082.111        5.573        2.773      202.020       83.870        0.172      344.621       21.565      856.481
04/16/2014  17:00:00       90.566      206.737      202.794      131.059      105.380      114.777    17176.585    11104.922    13173.797        6.675        2.073      225.704      105.823        0.220      344.296       21.011      856.503
04/16/2014  17:01:00      102.798      153.511      159.124       95.649      107.072       74.257     9148.760    11464.382     5514.115        4.279        1.306      184.751       70.210        0.144      344.416       21.216      856.521
04/16/2014  17:02:00      204.598      116.547       65.796      128.392       73.905       68.579    16484.403     5462.015     4703.111        4.321        1.332      235.464       54.391        0.053      344.422       21.227      856.501
04/16/2014  17:03:00      195.414       93.916       48.600       90.581       72.186       54.178     8204.894     5210.824     2935.231        3.286        0.818      216.811       43.092        0.040      344.660       21.632      856.520
04/16/2014  17:04:00      182.494       80.181       35.770       93.307       73.094       58.282     8706.277     5342.729     3396.840        2.923        0.872      199.331       36.458        0.033      344.805       21.881      856.533
04/16/2014  17:05:00      249.269      111.261       46.047      103.370       94.988       84.957    10685.376     9022.724     7217.739        5.177        1.346      272.973       45.535        0.028      344.529       21.410      856.526
04/16/2014  17:06:00      353.836      200.216       43.299      136.781      132.738       80.670    18708.948    17619.304     6507.711       10.499        2.142      406.554       64.425        0.025      344.358       21.116      856.530
04/16/2014  17:07:00      270.542      137.061       53.725      120.329       89.596       80.527    14479.160     8027.405     6484.578        6.192        1.450      303.280       61.704        0.041      344.163       20.784      856.534
04/16/2014  17:08:00      212.696      136.362       79.043      133.403      124.736      109.103    17796.456    15559.125    11903.502        5.766        2.263      252.654       75.143        0.088      344.179       20.812      856.522
04/16/2014  17:09:00      283.183      202.828       43.346      158.638      116.972       96.574    25165.968    13682.490     9326.596        8.568        2.409      348.328       74.797        0.046      344.372       21.141      856.491
04/16/2014  17:10:00      300.530      157.600       72.473      156.292      118.498       88.400    24427.153    14041.725     7814.589        8.334        2.314      339.347       72.192        0.045      344.460       21.291      856.510
04/16/2014  17:11:00      210.695      176.299      146.980      167.806      126.789      119.107    28158.822    16075.475    14186.539        7.774        2.921      274.725      109.334        0.158      344.257       20.943      856.495
04/16/2014  17:12:00      179.003       88.137       39.316      119.681       88.773       75.096    14323.579     7880.704     5639.354        3.459        1.392      199.525       68.618        0.118      344.403       21.195      856.534
04/16/2014  17:13:00      206.415      125.090       22.897       86.512       66.301       63.427     7484.385     4395.797     4022.950        3.734        0.795      241.360       43.344        0.032      344.457       21.286      856.544
04/16/2014  17:14:00      200.555      134.564       62.039      150.546       89.482       85.789    22664.186     8007.013     7359.747        5.010        1.902      241.515       50.481        0.044      344.347       21.098      856.541
04/16/2014  17:15:00      155.770      138.549       49.946      128.067       86.042       73.768    16401.192     7403.237     5441.769        3.759        1.462      208.471       29.819        0.020      344.403       21.193      856.568
04/16/2014  17:16:00      229.202      136.993       33.769      133.053       85.955       87.445    17703.189     7388.319     7646.635        5.258        1.637      267.022       41.014        0.024      344.332       21.074      856.580
04/16/2014  17:17:00      164.103      114.065       34.167      117.781      106.798       75.329    13872.453    11405.912     5674.413        3.602        1.548      199.852       64.689        0.105      344.298       21.014      856.600
04/16/2014  17:18:00      272.786      176.977       32.456       76.605       60.659       59.985     5868.347     3679.575     3598.187        5.996        0.657      325.166       32.680        0.010      344.232       20.902      856.619
04/16/2014  17:19:00       73.436      103.623      119.081      121.894      109.056      113.708    14858.132    11893.252    12929.581        3.499        1.984      127.007       92.519        0.531      344.410       21.206      856.602
04/16/2014  17:20:00      174.639       82.013       32.950      119.413       91.296       84.198    14259.449     8334.957     7089.386        3.399        1.484      192.938       68.578        0.126      344.191       20.831      856.594
04/16/2014  17:21:00      291.859      186.159       47.544      164.550      103.308       77.834    27076.591    10672.591     6058.084        8.294        2.190      346.175       36.749        0.011      344.322       21.055      856.622
04/16/2014  17:22:00      289.272      221.700       22.015      215.075      135.398       90.322    46257.456    18332.734     8158.001       10.302        3.637      364.458       69.417        0.036      344.037       20.569      856.622
04/16/2014  17:23:00      135.585      146.746        2.865      119.467       78.643       71.657    14272.340     6184.774     5134.721        3.275        1.280      199.794       51.201        0.066      344.185       20.822      856.607
04/16/2014  17:24:00      207.315      179.034       28.182      134.816      103.884       88.072    18175.268    10791.966     7756.634        5.627        1.836      273.921       57.377        0.044      344.141       20.747      856.608
04/16/2014  17:25:00      155.310       55.636       57.226      120.264       87.142       66.089    14463.465     7593.799     4367.819        2.845        1.321      164.975       25.003        0.023      344.026       20.552      856.593
04/16/2014  17:26:00       98.600       76.856       40.710       68.679       61.252       56.391     4716.824     3751.746     3179.995        1.447        0.582      125.015       34.830        0.078      344.186       20.825      856.599
04/16/2014  17:27:00      285.805      190.352       36.836      126.127       93.362       67.112    15907.980     8716.488     4503.956        7.420        1.456      343.393       46.138        0.018      344.180       20.814      856.625
04/16/2014  17:28:00      320.153      175.173       31.426      116.407       97.662       85.828    13550.485     9537.807     7366.514        8.231        1.523      364.943       54.331        0.022      344.017       20.533      856.619
04/16/2014  17:29:00      250.152      192.517       11.263      184.813      144.329       84.532    34155.811    20830.955     7145.604        8.094        3.107      315.656       74.187        0.055      344.024       20.547      856.611
04/16/2014  17:30:00      220.021      134.852       34.288      126.813       93.953       69.157    16081.605     8827.171     4782.699        4.872        1.485      258.059       48.265        0.035      344.147       20.757      856.622
04/16/2014  17:31:00      361.294      250.775       44.091      180.958      133.109      105.305    32745.707    17718.062    11089.236       12.845        3.078      439.798       62.636        0.020      343.913       20.357      856.644
04/16/2014  17:32:00      266.617      120.512       54.346      160.394      113.812       77.672    25726.302    12953.159     6032.881        6.663        2.236      292.588       55.817        0.036      344.141       20.747      856.664
04/16/2014  17:33:00      315.179      232.689       34.495      144.361      121.988       98.933    20840.072    14881.166     9787.829       10.008        2.275      391.768       60.367        0.024      343.890       20.317      856.689
04/16/2014  17:34:00      225.871      134.172       64.084      142.945      111.019       87.727    20433.244    12325.303     7695.964        5.678        2.023      262.716       55.722        0.045      343.958       20.433      856.692
04/16/2014  17:35:00      219.246      201.339       20.114      126.933      104.651       75.501    16111.966    10951.929     5700.372        6.088        1.638      297.668       68.818        0.053      343.953       20.424      856.703
04/16/2014  17:36:00      125.882      209.605        5.091       94.497      141.451       81.761     8929.770    20008.460     6684.875        4.771        1.781      244.501       87.815        0.129      343.917       20.363      856.681
04/16/2014  17:37:00      213.205      141.572       12.343      102.485       74.463       60.065    10503.110     5544.666     3607.830        4.265        0.983      255.927       31.403        0.015      344.056       20.599      856.678
04/16/2014  17:38:00      153.651      115.302       11.260      103.818       96.424       57.278    10778.162     9297.513     3280.752        3.019        1.168      192.102       42.191        0.048      344.271       20.971      856.688
04/16/2014  17:39:00       56.017      150.607      -12.472       84.299      124.374       57.961     7106.299    15468.937     3359.452        2.595        1.297      160.687       65.250        0.165      344.205       20.857      856.694
04/16/2014  17:40:00      114.752      282.020      -20.673      124.589      159.869       89.635    15522.542    25558.137     8034.444        7.111        2.456      304.472       92.519        0.092      344.073       20.631      856.667
04/16/2014  17:41:00      300.268      226.516       41.959      138.009      104.939       86.988    19046.471    11012.121     7566.968        9.042        1.881      376.125       55.416        0.022      343.942       20.405      856.669
04/16/2014  17:42:00      249.525      199.971       37.728      202.554      117.940      111.609    41028.059    13909.755    12456.516        8.552        3.370      319.767       58.513        0.033      343.812       20.186      856.685
04/16/2014  17:43:00      223.402      122.464       31.935      160.358       88.703       85.583    25714.801     7868.139     7324.430        5.341        2.045      254.767       61.272        0.058      343.973       20.460      856.703
04/16/2014  17:44:00      227.742      140.378       25.151      132.688      108.595       73.162    17606.130    11792.840     5352.647        5.347        1.738      267.530       44.686        0.028      343.969       20.452      856.746
04/16/2014  17:45:00      194.878      129.892       17.964      103.445       91.559       68.864    10700.802     8383.047     4742.248        3.949        1.191      234.200       52.387        0.050      343.991       20.489      856.750
04/16/2014  17:46:00      219.018      199.833       10.828      151.096      117.264       88.899    22830.045    13750.957     7902.948        6.624        2.224      296.483       70.196        0.056      343.891       20.319      856.745
04/16/2014  17:47:00      234.047      152.388       52.830      124.610       88.442       72.566    15527.623     7821.930     5265.861        5.470        1.431      279.285       37.848        0.018      343.907       20.346      856.730
04/16/2014  17:48:00      254.515      186.358       16.977      138.596      104.500       80.932    19208.918    10920.308     6549.978        6.823        1.834      315.448       58.015        0.034      343.880       20.300      856.729
04/16/2014  17:49:00      290.291      158.751       30.231      128.630       80.383       69.261    16545.634     6461.346     4797.099        6.909        1.390      330.863       51.293        0.024      343.882       20.304      856.725
04/16/2014  17:50:00      193.217      132.476       32.876       90.235       80.738       64.112     8142.380     6518.627     4110.413        3.736        0.939      234.271       34.421        0.022      343.879       20.298      856.746
04/16/2014  17:51:00       38.017      293.887      -32.325       71.332      100.307       54.759     5088.198    10061.590     2998.494        5.350        0.907      296.336       51.152        0.030      343.832       20.218      856.782
04/16/2014  17:52:00      100.971      168.156       -5.335       91.566       84.264       61.458     8384.377     7100.478     3777.146        2.888        0.963      196.142       50.028        0.065      343.936       20.396      856.794
04/16/2014  17:53:00      163.574      241.163      -11.426      145.224      180.204       79.846    21090.140    32473.390     6375.348        7.248        2.997      291.404       94.509        0.105      343.826       20.209      856.814
04/16/2014  17:54:00      179.404      132.131       18.391       99.392       89.590       78.805     9878.725     8026.325     6210.196        3.704        1.206      222.811       60.209        0.073      343.782       20.135      856.808
04/16/2014  17:55:00      186.110      180.340       10.894      145.338      110.248       95.089    21123.205    12154.614     9041.943        5.479        2.116      259.152       81.370        0.099      343.769       20.109      856.822
04/16/2014  17:56:00      377.940      272.986       33.750      194.603      122.557      114.823    37870.365    15020.207    13184.362       14.227        3.304      466.219       63.284        0.018      343.730       20.043      856.798
04/16/2014  17:57:00      108.504      260.102      -11.284      145.345      147.705       97.243    21125.082    21816.643     9456.164        6.597        2.620      281.827       94.680        0.113      343.802       20.168      856.825
04/16/2014  17:58:00      131.105      230.381      -10.240      154.822      129.718       83.415    23969.714    16826.802     6957.981        5.905        2.388      265.073       72.921        0.076      343.688       19.972      856.839
04/16/2014  17:59:00      209.717      153.896       24.118      116.721       83.883       66.266    13623.780     7036.386     4391.127        4.664        1.253      260.125       29.608        0.013      343.687       19.971      856.831
04/16/2014  18:00:00      128.468       93.503       13.765       99.879       58.073       56.181     9975.785     3372.416     3156.271        2.097        0.825      158.893       43.227        0.074      343.722       20.032      856.861
04/16/2014  18:01:00       74.134      240.643      -20.191       98.007      134.365       70.074     9605.450    18053.831     4910.326        4.818        1.628      251.803       73.618        0.085      343.728       20.040      856.872
04/16/2014  18:02:00      105.920      147.399        4.889      117.585       96.431       68.119    13826.124     9298.892     4640.181        3.036        1.388      181.510       51.205        0.080      343.709       20.009      856.893
04/16/2014  18:03:00      101.899      242.063       -8.044      108.323      161.862       77.640    11733.821    26199.408     6027.907        5.649        2.198      262.637       81.836        0.097      343.643       19.896      856.907
04/16/2014  18:04:00      180.889      230.088        9.792      163.024      117.920       96.493    26576.793    13905.132     9310.832        6.777        2.490      292.679       84.544        0.083      343.638       19.887      856.929
04/16/2014  18:05:00      254.774      178.759       30.344      130.309       92.701       70.695    16980.435     8593.452     4997.761        6.417        1.529      311.231       28.409        0.008      343.651       19.910      856.948
04/16/2014  18:06:00      104.394      236.198      -24.604      106.092      116.927       65.592    11255.604    13671.857     4302.281        4.826        1.461      258.240       61.556        0.057      343.639       19.889      856.972
04/16/2014  18:07:00       51.889      254.969      -26.161       81.469      108.216       68.006     6637.168    11710.631     4624.850        4.567        1.149      260.195       64.762        0.062      343.603       19.828      856.980
04/16/2014  18:08:00       64.766      213.727      -12.979       94.351      160.187       69.515     8902.181    25659.820     4832.269        4.471        1.970      223.324       90.459        0.164      343.705       20.002      856.987
04/16/2014  18:09:00      209.857      157.352       15.128      128.230       96.847       81.290    16443.008     9379.302     6608.055        5.072        1.622      262.297       66.710        0.065      343.723       20.030      856.989
04/16/2014  18:10:00      149.890      119.926       17.014      127.273       86.354       72.794    16198.465     7456.977     5299.021        3.304        1.448      191.962       46.660        0.059      343.629       19.872      856.993
04/16/2014  18:11:00      246.222      201.361       34.727      161.847      123.232       81.081    26194.368    15186.033     6574.054        7.516        2.398      318.074       58.146        0.033      343.625       19.866      856.975
04/16/2014  18:12:00      209.502      164.532       12.920      131.041       93.299       70.724    17171.869     8704.793     5001.917        5.100        1.544      266.387       48.853        0.034      343.606       19.833      856.969
04/16/2014  18:13:00      246.598      168.646       34.924      141.854       97.701       86.056    20122.491     9545.394     7405.650        6.377        1.854      298.751       64.747        0.047      343.614       19.849      856.961
04/16/2014  18:14:00      140.339      134.260        7.664      119.677       89.974       79.026    14322.655     8095.246     6245.143        3.322        1.433      194.218       59.234        0.093      343.606       19.834      856.957
04/16/2014  18:15:00      177.956      159.958       12.053      115.458       69.413       72.077    13330.462     4818.126     5195.109        4.037        1.167      239.280       48.327        0.041      343.551       19.740      856.963
04/16/2014  18:16:00      186.738      165.504       24.103      114.967       90.081       68.721    13217.515     8114.518     4722.528        4.444        1.303      249.525       38.557        0.024      343.543       19.725      856.965
04/16/2014  18:17:00       58.580      185.819      -18.742       70.003      151.217       54.844     4900.456    22866.532     3007.861        3.454        1.539      194.834       69.482        0.127      343.578       19.786      856.967
04/16/2014  18:18:00       88.812      195.105       -4.614       97.180      103.535       65.864     9444.007    10719.568     4338.017        3.523        1.225      214.367       58.657        0.075      343.545       19.729      856.993
04/16/2014  18:19:00       30.023       54.690       47.939       70.843       55.679       54.792     5018.709     3100.149     3002.197        0.865        0.556       62.389       34.161        0.300      343.586       19.801      856.979
04/16/2014  18:20:00       56.821      201.615      -26.764       65.841      102.692       51.137     4334.988    10545.693     2615.042        3.104        0.875      209.469       52.408        0.063      343.574       19.780      856.988
04/16/2014  18:21:00       42.152       81.577       13.977       60.442       79.054       52.797     3653.288     6249.501     2787.504        1.066        0.635       91.823       45.257        0.243      343.574       19.780      856.987
04/16/2014  18:22:00       83.368      167.910        9.096       98.330      109.742       87.218     9668.786    12043.231     7607.041        3.227        1.466      187.467       78.242        0.174      343.515       19.676      856.994
04/16/2014  18:23:00       54.376      136.155      -13.511       82.703       95.900       61.469     6839.735     9196.765     3778.452        2.074        0.991      146.612       66.637        0.207      343.538       19.719      857.005
04/16/2014  18:24:00       63.927      130.413       -5.087       75.634      104.631       62.962     5720.547    10947.570     3964.151        2.087        1.032      145.238       66.489        0.210      343.502       19.656      857.010
04/16/2014  18:25:00       38.757      147.456       -9.554       73.749       98.845       58.189     5438.949     9770.339     3385.996        2.096        0.930      152.464       58.229        0.146      343.517       19.681      857.015
04/16/2014  18:26:00       37.349       92.059       -2.058       41.997       81.954       34.058     1763.727     6716.540     1159.964        0.976        0.482       99.347       41.465        0.174      343.557       19.754      857.020
04/16/2014  18:27:00      140.710       89.623        6.261       93.128       55.273       42.750     8672.840     3055.131     1827.566        2.071        0.678      166.828       18.547        0.012      343.582       19.793      857.028
04/16/2014  18:28:00      194.088      134.871       19.847      111.602       75.488       59.312    12455.093     5698.442     3517.926        3.896        1.084      236.348       36.726        0.024      343.529       19.700      857.035
04/16/2014  18:29:00      213.164      118.706       32.825      103.050       67.844       58.028    10619.370     4602.747     3367.279        3.959        0.929      243.987       35.746        0.021      343.471       19.603      857.039
04/16/2014  18:30:00       81.237      122.394        3.401       87.451       68.113       52.143     7647.686     4639.326     2718.933        1.830        0.750      146.901       38.292        0.068      343.495       19.644      857.048
04/16/2014  18:31:00      139.313      160.618        3.802       91.100       92.481       57.905     8299.238     8552.687     3353.047        3.271        1.010      212.618       60.541        0.081      343.484       19.626      857.063
04/16/2014  18:32:00      121.333      190.701      -25.088       90.252       86.745       61.231     8145.459     7524.656     3749.224        3.556        0.971      226.028       43.585        0.037      343.474       19.609      857.052
04/16/2014  18:33:00      127.972      247.415      -28.054       87.998      159.535       73.392     7743.640    25451.289     5386.416        5.847        1.929      278.552       86.955        0.097      343.470       19.601      857.059
04/16/2014  18:34:00       62.939      248.269      -32.304       78.288      154.679       69.113     6129.029    23925.632     4776.549        5.073        1.742      256.122       75.104        0.086      343.478       19.616      857.062
04/16/2014  18:35:00       45.438      156.121      -20.350       54.350      104.479       46.771     2953.937    10915.813     2187.480        2.145        0.803      162.599       45.757        0.079      343.552       19.743      857.068
04/16/2014  18:36:00       64.278      195.275       -9.803       82.501      119.498       62.728     6806.481    14279.722     3934.823        3.369        1.251      205.582       63.340        0.095      343.558       19.752      857.084
04/16/2014  18:37:00       56.541      202.046      -15.989       98.870       97.503       56.477     9775.210     9506.888     3189.660        3.337        1.124      209.808       58.649        0.078      343.512       19.672      857.080
04/16/2014  18:38:00       65.611      192.839      -22.494       68.617      112.708       64.919     4708.227    12703.152     4214.446        3.181        1.081      203.696       61.719        0.092      343.461       19.588      857.088
04/16/2014  18:39:00       66.541      124.805       -7.073       62.234      105.898       58.019     3873.100    11214.363     3366.243        1.925        0.923      141.435       63.432        0.201      343.510       19.673      857.089
04/16/2014  18:40:00       48.107      135.104       -1.544       57.366       99.671       58.510     3290.853     9934.351     3423.462        1.861        0.832      143.413       61.471        0.184      343.530       19.704      857.081
04/16/2014  18:41:00      112.206      228.348      -14.715       97.771      120.935       76.810     9559.084    14625.316     5899.736        4.751        1.504      254.427       79.432        0.097      343.487       19.630      857.076
04/16/2014  18:42:00       93.534      185.621        4.383      101.447      136.603       76.309    10291.489    18660.413     5823.008        3.899        1.739      207.855       81.124        0.152      343.458       19.580      857.057
04/16/2014  18:43:00      102.644      211.940       -6.918      102.911      135.409       84.892    10590.724    18335.509     7206.629        4.581        1.807      235.488       86.529        0.135      343.415       19.507      857.063
04/16/2014  18:44:00      100.925      188.825      -11.703       83.856      119.655       65.647     7031.883    14317.433     4309.502        3.581        1.283      214.105       68.314        0.102      343.448       19.563      857.076
04/16/2014  18:45:00      157.324      146.275       27.061       90.970       72.862       72.503     8275.470     5308.856     5256.685        3.286        0.942      214.819       50.590        0.055      343.396       19.474      857.075
04/16/2014  18:46:00      120.363      121.334       11.470       97.138       60.560       55.673     9435.819     3667.492     3099.489        2.277        0.810      170.907       27.972        0.027      343.395       19.476      857.074
04/16/2014  18:47:00       94.981      143.497      -12.220       87.011       93.296       67.486     7570.895     8704.108     4554.304        2.529        1.041      172.084       68.391        0.158      343.436       19.543      857.079
04/16/2014  18:48:00      115.243       98.594        2.717       92.146       66.040       49.659     8490.900     4361.317     2466.029        1.916        0.766      151.664       35.622        0.055      343.450       19.569      857.079
04/16/2014  18:49:00      150.044       80.455       33.234       81.894       50.717       52.073     6706.663     2572.225     2711.585        2.104        0.600      170.254       44.011        0.067      343.462       19.587      857.076
04/16/2014  18:50:00      129.243       88.053       13.908       77.412       59.983       54.292     5992.660     3597.924     2947.617        1.859        0.627      156.388       36.162        0.053      343.415       19.510      857.068
04/16/2014  18:51:00      101.024      131.897       -2.588       88.024       88.348       64.397     7748.178     7805.322     4146.986        2.365        0.985      166.141       60.001        0.130      343.382       19.452      857.071
04/16/2014  18:52:00       31.014      211.078      -25.035       68.455      101.993       53.421     4686.120    10402.504     2853.824        3.204        0.897      213.344       57.770        0.073      343.359       19.411      857.070
04/16/2014  18:53:00       82.282      166.783       -7.050       89.904      105.955       53.943     8082.817    11226.398     2909.826        2.842        1.111      185.975       57.481        0.096      343.326       19.356      857.071
04/16/2014  18:54:00      102.918      168.927       -4.845       86.874       86.936       67.085     7547.136     7557.909     4500.364        2.937        0.980      197.809       56.952        0.083      343.316       19.339      857.071
04/16/2014  18:55:00      154.414      151.084        2.010      101.189       89.253       69.403    10239.284     7966.055     4816.841        3.484        1.151      216.033       60.720        0.079      343.312       19.332      857.067
04/16/2014  18:56:00       76.918       97.716        4.441       79.464       77.647       46.650     6314.572     6029.129     2176.233        1.500        0.726      124.357       27.741        0.050      343.344       19.389      857.084
04/16/2014  18:57:00       66.669      100.563        3.175       56.974       56.651       38.189     3245.998     3209.298     1458.438        1.124        0.396      120.655       37.156        0.095      343.321       19.351      857.100
04/16/2014  18:58:00       37.135       86.623       -6.884       61.995       82.006       35.983     3843.397     6725.009     1294.772        1.039        0.593       94.247       36.716        0.152      343.351       19.402      857.093
04/16/2014  18:59:00       47.257       54.822       -0.287       61.196       78.187       33.311     3744.909     6113.144     1109.623        0.810        0.548       72.379       40.401        0.312      343.383       19.455      857.104
04/16/2014  19:00:00        0.721      113.789      -11.824       46.210       64.387       35.130     2135.363     4145.677     1234.109        1.030        0.376      113.791       33.374        0.086      343.373       19.439      857.115
04/16/2014  19:01:00        4.590      223.176      -27.152       51.672       74.198       33.357     2669.947     5505.392     1112.658        2.993        0.464      223.223       28.640        0.016      343.341       19.380      857.123
04/16/2014  19:02:00      -26.889      248.807      -36.455       52.988       48.152       26.900     2807.700     2318.599      723.605        3.490        0.292      250.256       19.061        0.006      343.343       19.384      857.119
04/16/2014  19:03:00       33.614       88.273        9.075       44.540       83.772       43.044     1983.831     7017.809     1852.773        0.993        0.543       94.456       49.306        0.272      343.322       19.350      857.119
04/16/2014  19:04:00      -26.809      179.756      -14.380       41.332       52.911       30.079     1708.315     2799.595      904.749        1.932        0.271      181.744       26.846        0.022      343.308       19.326      857.126
04/16/2014  19:05:00       36.463      140.229       -1.845       66.102       85.248       50.530     4369.516     7267.304     2553.279        1.759        0.710      144.892       48.001        0.110      343.256       19.238      857.122
04/16/2014  19:06:00       24.077      232.159      -29.814       58.185       76.271       38.830     3385.495     5817.291     1507.797        3.304        0.536      233.404       43.030        0.034      343.254       19.232      857.122
04/16/2014  19:07:00       -6.205      256.038      -36.567       45.400       44.597       23.839     2061.156     1988.931      568.307        3.577        0.231      256.113       20.732        0.007      343.249       19.220      857.121
04/16/2014  19:08:00       44.134      250.639      -39.203       35.825       65.994       30.669     1283.420     4355.209      940.591        3.644        0.329      254.495       31.099        0.015      343.235       19.199      857.121
04/16/2014  19:09:00        3.065      222.592      -28.705       56.679       52.265       32.111     3212.504     2731.638     1031.107        2.868        0.349      222.613       26.679        0.014      343.238       19.205      857.129
04/16/2014  19:10:00       31.578      167.666      -19.652       50.676      111.732       43.605     2568.033    12484.047     1901.415        2.322        0.848      170.614       56.691        0.110      343.237       19.203      857.129
04/16/2014  19:11:00       12.738      244.276      -37.483       43.251      104.817       33.280     1870.647    10986.553     1107.578        3.760        0.698      244.608       45.065        0.034      343.217       19.170      857.130
04/16/2014  19:12:00       10.648      138.874      -18.706       27.851       51.851       25.221      775.661     2688.512      636.099        1.192        0.205      139.282       24.774        0.032      343.214       19.169      857.125
04/16/2014  19:13:00       31.884      219.038      -41.525       40.597       43.272       22.694     1648.144     1872.480      515.022        2.738        0.202      221.347       23.630        0.011      343.204       19.150      857.137
04/16/2014  19:14:00        6.129      231.303      -28.124       50.018       72.402       32.538     2501.797     5242.110     1058.752        3.156        0.440      231.384       35.078        0.023      343.194       19.132      857.151
04/16/2014  19:15:00       -8.581      236.626      -36.245       51.697       43.407       25.340     2672.562     1884.194      642.115        3.129        0.260      236.782       17.042        0.005      343.196       19.133      857.162
04/16/2014  19:16:00       10.703      178.613      -23.590       42.993       63.239       32.362     1848.369     3999.145     1047.316        1.973        0.345      178.933       28.074        0.025      343.176       19.102      857.175
04/16/2014  19:17:00       46.474      175.570       -6.954       71.546      104.808       54.666     5118.841    10984.717     2988.389        2.606        0.955      181.617       59.549        0.108      343.137       19.036      857.183
04/16/2014  19:18:00       34.626      143.628      -17.345       59.384       70.519       41.085     3526.435     4972.950     1687.988        1.616        0.509      147.743       38.322        0.067      343.107       18.984      857.196
04/16/2014  19:19:00       79.589      150.477      -10.612       67.973       99.313       58.133     4620.323     9863.059     3379.479        2.347        0.893      170.228       67.811        0.159      343.107       18.984      857.196
04/16/2014  19:20:00       60.439       83.744       12.340       68.865       69.097       45.387     4742.350     4774.445     2060.007        1.120        0.579      103.276       37.142        0.129      343.080       18.939      857.216
04/16/2014  19:21:00       68.061       72.786        0.290       66.993       57.047       43.929     4488.066     3254.368     1929.728        0.980        0.484       99.650       25.376        0.065      343.070       18.922      857.231
04/16/2014  19:22:00       36.302      107.887      -11.413       37.857       59.831       25.810     1433.150     3579.785      666.140        0.938        0.284      113.830       28.716        0.064      343.064       18.912      857.244
04/16/2014  19:23:00       37.488      125.553        3.180       51.352      101.173       51.871     2637.050    10235.989     2690.646        1.637        0.778      131.030       59.390        0.205      343.057       18.898      857.257
04/16/2014  19:24:00       58.193       94.542       -5.828       40.760       58.137       30.088     1661.384     3379.864      905.276        0.915        0.297      111.016       33.322        0.090      343.039       18.869      857.272
04/16/2014  19:25:00       36.561      107.163       -0.945       51.819       61.351       41.053     2685.195     3763.906     1685.310        1.048        0.407      113.228       41.712        0.136      342.998       18.800      857.280
04/16/2014  19:26:00       32.023      115.929      -14.429       37.696       53.776       31.484     1420.998     2891.863      991.223        0.999        0.265      120.271       31.114        0.067      342.985       18.779      857.283
04/16/2014  19:27:00       41.394       98.460        6.849       41.131       52.599       39.812     1691.787     2766.626     1585.010        0.875        0.302      106.807       35.588        0.111      342.974       18.760      857.277
04/16/2014  19:28:00       22.347      130.143      -15.917       41.002       68.045       38.380     1681.143     4630.116     1473.006        1.274        0.389      132.047       35.325        0.072      343.000       18.804      857.273
04/16/2014  19:29:00       36.469      147.438      -17.058       50.396       66.093       39.043     2539.735     4368.237     1524.345        1.589        0.422      151.881       37.090        0.060      342.974       18.760      857.273
04/16/2014  19:30:00       55.864      138.443      -13.210       42.469       61.182       39.925     1803.628     3743.216     1593.969        1.480        0.357      149.290       38.085        0.065      342.984       18.776      857.279
04/16/2014  19:31:00       31.451      129.646       -2.035       56.305       76.230       47.409     3170.264     5811.040     2247.624        1.451        0.561      133.406       45.401        0.116      342.956       18.728      857.277
04/16/2014  19:32:00       54.649      104.550       -8.611       49.681       59.270       37.875     2468.227     3512.890     1434.525        1.070        0.371      117.971       35.073        0.088      342.943       18.706      857.289
04/16/2014  19:33:00       43.257       89.813       -7.077       44.052       49.481       37.200     1940.598     2448.398     1383.859        0.788        0.289       99.687       30.365        0.093      342.918       18.664      857.296
04/16/2014  19:34:00       49.605       67.511        2.113       44.575       45.755       33.530     1986.914     2093.551     1124.232        0.611        0.260       83.776       26.669        0.101      342.884       18.606      857.319
04/16/2014  19:35:00       63.296       64.490        6.483       53.833       44.323       44.897     2898.007     1964.547     2015.746        0.754        0.344       90.362       30.215        0.112      342.867       18.578      857.346
04/16/2014  19:36:00       48.654      111.081       -2.116       56.713       42.655       34.843     3216.381     1819.488     1214.048        1.048        0.312      121.269       26.804        0.049      342.879       18.598      857.364
04/16/2014  19:37:00       29.296       57.961       -4.693       35.755       38.042       24.789     1278.432     1447.226      614.498        0.379        0.167       64.944       21.566        0.110      342.830       18.516      857.401
04/16/2014  19:38:00       59.692       92.078        6.222       48.145       57.487       38.770     2317.943     3304.698     1503.110        0.960        0.356      109.734       37.957        0.120      342.866       18.577      857.421
04/16/2014  19:39:00       33.791      175.535      -25.703       34.571       54.130       27.629     1195.139     2930.020      763.387        1.875        0.244      178.758       25.972        0.021      342.898       18.630      857.441
04/16/2014  19:40:00       31.115       99.438       -0.662       45.308       62.636       35.976     2052.850     3923.331     1294.274        0.906        0.364      104.193       38.546        0.137      342.859       18.564      857.473
04/16/2014  19:41:00       31.559       92.880      -12.654       31.974       56.511       28.589     1022.326     3193.521      817.352        0.741        0.252       98.095       31.225        0.101      342.818       18.493      857.487
04/16/2014  19:42:00       32.056      101.711      -16.051       22.070       32.700       17.120      487.077     1069.291      293.104        0.674        0.092      106.643       17.403        0.027      342.822       18.501      857.495
04/16/2014  19:43:00       33.427       82.421       -8.333       37.279       42.400       26.207     1389.698     1797.718      686.822        0.593        0.194       88.942       21.933        0.061      342.779       18.426      857.497
04/16/2014  19:44:00       36.493      111.449      -10.875       36.791       61.723       29.284     1353.576     3809.720      857.539        0.994        0.301      117.271       34.669        0.087      342.757       18.391      857.496
04/16/2014  19:45:00       38.996      108.685       -5.061       51.399       53.415       33.985     2641.890     2853.185     1154.979        1.000        0.333      115.469       27.107        0.055      342.757       18.390      857.501
04/16/2014  19:46:00       63.454      144.282      -10.615       46.155       70.954       45.482     2130.281     5034.501     2068.606        1.709        0.462      157.619       46.661        0.088      342.744       18.365      857.508
04/16/2014  19:47:00       42.375      125.992      -17.631       41.346       59.951       39.282     1709.505     3594.111     1543.047        1.241        0.342      132.928       42.813        0.104      342.719       18.323      857.510
04/16/2014  19:48:00       21.072       61.913       -2.543       33.119       46.472       28.661     1096.837     2159.661      821.455        0.418        0.204       65.401       28.000        0.183      342.675       18.249      857.515
04/16/2014  19:49:00       43.577      145.367      -18.267       45.002       60.375       30.873     2025.187     3645.106      953.138        1.499        0.331      151.758       30.624        0.041      342.710       18.309      857.524
04/16/2014  19:50:00       37.996       90.345        2.166       53.649       59.255       39.198     2878.169     3511.156     1536.519        0.877        0.396       98.009       32.291        0.109      342.676       18.252      857.529
04/16/2014  19:51:00       27.957       98.794      -12.779       32.668       58.573       27.410     1067.184     3430.753      751.320        0.798        0.262      102.673       32.309        0.099      342.654       18.213      857.541
04/16/2014  19:52:00       31.270      105.829      -14.785       37.538       55.380       30.914     1409.131     3066.959      955.690        0.891        0.272      110.352       37.528        0.116      342.642       18.194      857.555
04/16/2014  19:53:00       23.620       72.767       -0.391       31.536       39.583       31.434      994.497     1566.844      988.109        0.470        0.177       76.505       28.005        0.134      342.597       18.117      857.564
04/16/2014  19:54:00       24.930      154.127      -12.879       60.517       78.293       37.504     3662.274     6129.735     1406.527        1.787        0.560      156.130       47.363        0.092      342.673       18.245      857.568
04/16/2014  19:55:00       14.941      118.763      -18.232       28.199       56.603       25.069      795.201     3203.857      628.460        0.964        0.231      119.699       29.902        0.062      342.665       18.233      857.579
04/16/2014  19:56:00        1.483      171.490      -26.827       37.439       42.074       19.351     1401.678     1770.211      374.462        1.684        0.177      171.497       19.689        0.013      342.712       18.312      857.579
04/16/2014  19:57:00       14.833       66.390       -6.354       28.457       31.452       16.790      809.825      989.200      281.904        0.337        0.104       68.027       17.376        0.065      342.602       18.125      857.577
04/16/2014  19:58:00        0.565      114.011      -22.335       31.555       26.840       16.475      995.705      720.369      271.417        0.774        0.099      114.013       12.972        0.013      342.679       18.258      857.580
04/16/2014  19:59:00       23.366       91.059      -14.566       32.582       45.687       19.043     1061.577     2087.314      362.618        0.628        0.176       94.009       22.661        0.058      342.598       18.119      857.584
04/16/2014  20:00:00       13.051      103.619      -14.971       31.520       46.440       21.792      993.521     2156.679      474.909        0.738        0.181      104.438       24.004        0.053      342.593       18.111      857.579
04/16/2014  20:01:00        9.071      109.280       -8.285       37.321       70.734       33.948     1392.822     5003.298     1152.464        0.982        0.377      109.656       37.992        0.120      342.550       18.037      857.590
04/16/2014  20:02:00       23.929      135.436      -20.620       41.046       36.177       21.788     1684.793     1308.789      474.702        1.140        0.173      137.534       18.930        0.019      342.538       18.019      857.593
04/16/2014  20:03:00       20.972       84.961       -2.279       38.207       55.919       31.923     1459.752     3126.977     1019.048        0.663        0.280       87.511       35.249        0.162      342.527       17.998      857.594
04/16/2014  20:04:00       15.631      183.566      -30.043       30.588       69.550       23.960      935.630     4837.155      574.067        2.059        0.317      184.230       32.193        0.031      342.577       18.082      857.603
04/16/2014  20:05:00       -6.496      147.453      -21.991       36.847       54.424       26.128     1357.717     2962.005      682.681        1.363        0.250      147.596       30.907        0.044      342.547       18.034      857.615
04/16/2014  20:06:00       15.051      199.703      -24.211       46.505       57.788       28.550     2162.736     3339.396      815.084        2.350        0.316      200.269       23.524        0.014      342.553       18.041      857.628
04/16/2014  20:07:00       25.096      146.299      -13.920       43.580       39.189       31.045     1899.258     1535.789      963.785        1.331        0.220      148.436       24.598        0.027      342.521       17.989      857.644
04/16/2014  20:08:00       -3.698      162.127      -17.244       27.678       33.473       20.900      766.074     1120.420      436.809        1.446        0.116      162.169       17.821        0.012      342.530       18.003      857.657
04/16/2014  20:09:00        8.132      188.244      -28.372       38.483       51.988       23.936     1480.916     2702.765      572.944        2.053        0.238      188.419       27.725        0.022      342.556       18.047      857.673
04/16/2014  20:10:00        1.493      130.875       -8.784       28.499       41.718       31.187      812.196     1740.358      972.630        1.037        0.176      130.884       26.394        0.041      342.520       17.987      857.695
04/16/2014  20:11:00      -10.467      129.877      -18.953       33.871       30.544       18.570     1147.218      932.942      344.850        0.988        0.121      130.298       15.970        0.015      342.545       18.030      857.710
04/16/2014  20:12:00      -21.333      112.111      -11.898       32.044       46.493       24.010     1026.825     2161.575      576.463        0.846        0.188      114.122       28.128        0.061      342.528       17.999      857.724
04/16/2014  20:13:00      -50.472      170.377      -21.514       27.789       58.305       25.582      772.216     3399.432      654.445        1.843        0.241      177.695       26.662        0.023      342.580       18.088      857.737
04/16/2014  20:14:00      -69.027      175.625      -26.030       43.732       64.519       33.688     1912.448     4162.681     1134.902        2.175        0.361      188.703       38.553        0.042      342.554       18.043      857.739
04/16/2014  20:15:00      -56.149      201.842      -28.410       34.253       45.342       26.241     1173.257     2055.884      688.603        2.431        0.196      209.506       17.845        0.007      342.575       18.079      857.749
04/16/2014  20:16:00      -33.604      206.946      -28.409       31.457       41.436       19.713      989.537     1716.976      388.595        2.393        0.155      209.656       20.675        0.010      342.541       18.021      857.747
04/16/2014  20:17:00      -54.439       70.631       -8.750       35.226       70.506       23.343     1240.876     4971.147      544.915        0.739        0.338       89.176       27.769        0.097      342.554       18.044      857.756
04/16/2014  20:18:00      -52.135      119.247      -16.380       37.137       55.676       23.315     1379.187     3099.832      543.587        1.111        0.251      130.146       13.515        0.011      342.529       18.004      857.763
04/16/2014  20:19:00      -73.011      101.114      -15.604       44.773       61.634       28.258     2004.586     3798.704      798.493        1.120        0.330      124.718       32.409        0.068      342.513       17.975      857.765
04/16/2014  20:20:00      -70.032       90.958      -21.688       45.269       24.369       20.685     2049.269      593.848      427.889        0.836        0.154      114.794       25.359        0.049      342.426       17.827      857.789
04/16/2014  20:21:00      -89.269       56.448      -18.826       39.131       39.865       22.655     1531.258     1589.242      513.258        0.757        0.182      105.619       18.646        0.031      342.385       17.758      857.799
04/16/2014  20:22:00      -97.533       34.053       -8.697       31.700       34.172       19.120     1004.915     1167.727      365.592        0.664        0.127      103.307       17.988        0.030      342.309       17.628      857.818
04/16/2014  20:23:00      -97.541      120.872      -28.357       48.665       55.415       34.087     2368.252     3070.871     1161.925        1.576        0.330      155.319       38.722        0.062      342.208       17.455      857.841
04/16/2014  20:24:00      -71.698       72.476      -13.556       36.750       41.828       19.265     1350.585     1749.569      371.140        0.702        0.174      101.948       12.335        0.015      342.152       17.363      857.865
04/16/2014  20:25:00      -86.694       70.226      -13.895       59.992       40.651       27.222     3598.989     1652.519      741.025        0.932        0.300      111.569       31.077        0.078      342.139       17.340      857.900
04/16/2014  20:26:00     -118.370      117.767      -41.141       34.436       42.197       22.664     1185.868     1780.592      513.665        1.653        0.174      166.975       17.356        0.011      342.116       17.301      857.932
04/16/2014  20:27:00      -72.662       56.897      -12.012       27.651       35.367       17.702      764.592     1250.823      313.345        0.549        0.116       92.288       17.108        0.034      342.097       17.270      857.964
04/16/2014  20:28:00      -71.841       87.278      -19.809       31.193       35.337       24.542      973.003     1248.683      602.297        0.800        0.141      113.042       16.381        0.021      342.079       17.238      857.998
04/16/2014  20:29:00      -88.417       72.447      -27.061       41.849       40.822       21.401     1751.371     1666.448      458.007        0.884        0.194      114.307       12.783        0.013      342.087       17.249      858.027
04/16/2014  20:30:00      -95.637       55.792      -11.962       50.916       30.119       26.221     2592.399      907.157      687.562        0.829        0.209      110.722       19.404        0.031      342.014       17.128      858.054
04/16/2014  20:31:00      -54.906       83.446       -6.526       43.675       43.515       26.430     1907.476     1893.597      698.539        0.726        0.225       99.890       28.333        0.080      341.959       17.034      858.076
04/16/2014  20:32:00     -111.614       66.087      -23.603       44.217       34.666       28.544     1955.122     1201.763      814.787        1.068        0.199      129.713       14.313        0.012      342.008       17.117      858.093
04/16/2014  20:33:00      -48.280       67.945       -8.303       32.814       43.510       25.789     1076.777     1893.104      665.051        0.532        0.182       83.352       22.528        0.073      341.997       17.100      858.104
04/16/2014  20:34:00      -16.733       57.743        1.489       24.657       29.841       16.592      607.967      890.473      275.278        0.269        0.089       60.119       11.050        0.034      341.981       17.070      858.119
04/16/2014  20:35:00      -44.255       34.767        0.020       33.281       30.197       21.063     1107.634      911.864      443.664        0.281        0.123       56.278       21.401        0.145      341.954       17.027      858.134
04/16/2014  20:36:00      -76.948      122.537      -18.857       43.943       47.034       28.364     1930.964     2212.241      804.529        1.312        0.247      144.694       29.057        0.040      341.999       17.103      858.147
04/16/2014  20:37:00      -36.034       55.293       -3.489       43.028       40.122       27.798     1851.374     1609.793      772.751        0.430        0.212       65.998       29.695        0.202      341.928       16.983      858.150
04/16/2014  20:38:00      -83.221       74.258      -26.685       31.572       27.247       18.442      996.807      742.384      340.125        0.762        0.104      111.535       18.360        0.027      341.992       17.090      858.168
04/16/2014  20:39:00      -96.064       65.133      -19.923       45.414       44.769       26.486     2062.432     2004.241      701.522        0.932        0.238      116.063       25.136        0.047      341.934       16.991      858.165
04/16/2014  20:40:00      -98.404       47.059       -9.135       49.575       55.362       34.184     2457.647     3064.920     1168.577        0.933        0.335      109.078       37.343        0.117      341.925       16.976      858.169
04/16/2014  20:41:00      -36.904       70.352      -17.999       47.711       49.397       29.621     2276.353     2440.064      877.380        0.611        0.280       79.444       38.733        0.238      341.902       16.939      858.161
04/16/2014  20:42:00      -27.570       38.861       -4.730       31.822       32.427       17.137     1012.628     1051.541      293.676        0.232        0.118       47.647       11.739        0.061      341.918       16.964      858.173
04/16/2014  20:43:00      -25.624       21.580        3.030       18.801       27.834       20.043      353.488      774.731      401.741        0.133        0.076       33.500       13.760        0.169      341.919       16.967      858.169
04/16/2014  20:44:00      -86.032       27.133      -12.850       29.399       38.417       19.407      864.330     1475.834      376.620        0.551        0.136       90.209       19.634        0.047      341.962       17.039      858.177
04/16/2014  20:45:00      -65.771       37.859      -10.386       37.847       37.989       23.932     1432.429     1443.182      572.727        0.466        0.172       75.889       23.354        0.095      341.875       16.893      858.176
04/16/2014  20:46:00      -99.232       49.695      -20.030       39.575       26.220       18.506     1566.184      687.465      342.478        0.766        0.130      110.979       16.916        0.023      341.886       16.909      858.191
04/16/2014  20:47:00     -110.464       38.148      -18.494       35.436       43.860       20.352     1255.679     1923.699      414.218        0.880        0.180      116.865       20.553        0.031      341.897       16.929      858.216
04/16/2014  20:48:00      -68.944       63.495       -8.565       47.645       48.268       31.451     2270.005     2329.817      989.156        0.722        0.279       93.728       31.737        0.115      341.772       16.716      858.232
04/16/2014  20:49:00      -97.898       18.874       -8.973       39.770       53.250       26.861     1581.668     2835.561      721.510        0.758        0.257       99.700       16.879        0.029      341.845       16.840      858.257
04/16/2014  20:50:00     -107.672      -21.206      -10.675       33.077       32.093       18.894     1094.076     1029.963      356.997        0.732        0.124      109.740       14.240        0.017      341.930       16.984      858.261
04/16/2014  20:51:00      -84.592      -15.526       -2.815       49.062       39.100       23.981     2407.100     1528.788      575.084        0.596        0.226       86.005       21.430        0.062      341.912       16.953      858.281
04/16/2014  20:52:00     -152.612      -50.598       -9.227       60.435       52.343       26.769     3652.330     2739.781      716.599        1.652        0.355      160.781       22.656        0.020      341.780       16.730      858.298
04/16/2014  20:53:00     -197.280      -27.058       -9.582       70.200       32.830       32.332     4928.007     1077.808     1045.343        2.340        0.353      199.127       35.945        0.033      341.752       16.680      858.314
04/16/2014  20:54:00      -94.732      -50.306        1.158       47.858       49.588       31.483     2290.390     2458.936      991.191        0.862        0.287      107.260       25.104        0.055      341.771       16.717      858.344
04/16/2014  20:55:00     -123.505      -19.496       -6.031       53.877       49.246       30.749     2902.728     2425.201      945.477        1.097        0.314      125.034       26.525        0.045      341.716       16.622      858.361
04/16/2014  20:56:00     -145.935      -31.393       -5.477       63.849       42.563       27.155     4076.689     1811.594      737.403        1.447        0.331      149.273       26.161        0.031      341.661       16.529      858.398
04/16/2014  20:57:00     -167.719      -42.332      -20.992       46.401       35.418       21.730     2153.061     1254.414      472.178        1.712        0.194      172.979        5.808        0.001      341.621       16.462      858.417
04/16/2014  20:58:00     -144.992      -44.672      -10.940       36.604       30.102       24.748     1339.819      906.110      612.455        1.300        0.143      151.718       12.666        0.007      341.632       16.478      858.436
04/16/2014  20:59:00     -145.133      -22.964      -18.461       36.458       37.105       23.150     1329.171     1376.782      535.922        1.259        0.162      146.939       17.058        0.013      341.638       16.489      858.464
04/16/2014  21:00:00     -162.751      -21.079      -16.352       47.376       33.836       31.740     2244.486     1144.869     1007.428        1.580        0.220      164.110       25.864        0.025      341.533       16.310      858.485
04/16/2014  21:01:00     -158.470      -64.692      -10.652       48.779       49.114       26.417     2379.386     2412.174      697.882        1.745        0.274      171.166       22.340        0.017      341.487       16.232      858.509
04/16/2014  21:02:00     -155.268      -31.579      -11.343       61.980       29.054       24.284     3841.459      844.123      589.698        1.525        0.264      158.447       27.478        0.030      341.457       16.182      858.513
04/16/2014  21:03:00     -142.858      -43.424       -8.625       44.981       31.631       17.858     2023.304     1000.543      318.919        1.285        0.167      149.312       17.246        0.013      341.474       16.210      858.518
04/16/2014  21:04:00     -138.562      -34.028       -9.948       31.662       41.882       18.619     1002.494     1754.102      346.674        1.178        0.155      142.679       14.287        0.010      341.493       16.243      858.519
04/16/2014  21:05:00     -151.804      -45.806       -6.158       36.246       38.492       25.782     1313.763     1481.654      664.688        1.432        0.173      158.564       23.229        0.021      341.488       16.233      858.507
04/16/2014  21:06:00     -115.278      -19.829       -8.048       54.216       39.605       21.792     2939.328     1568.535      474.896        0.936        0.249      116.971       20.420        0.030      341.490       16.238      858.510
04/16/2014  21:07:00     -118.029      -32.460      -11.693       52.847       39.888       29.662     2792.796     1591.072      879.858        1.019        0.263      122.411       31.508        0.066      341.423       16.126      858.502
04/16/2014  21:08:00     -102.144      -24.985      -11.138       44.727       47.618       23.001     2000.526     2267.437      529.048        0.799        0.240      105.155       19.141        0.033      341.455       16.180      858.487
04/16/2014  21:09:00     -126.897      -43.791       -7.039       31.823       41.129       20.407     1012.674     1691.554      416.461        1.059        0.156      134.240       13.816        0.011      341.468       16.200      858.488
04/16/2014  21:10:00     -150.881      -31.762      -18.716       36.450       27.848       20.697     1328.618      775.500      428.355        1.333        0.127      154.188       13.589        0.008      341.492       16.242      858.476
04/16/2014  21:11:00     -134.868      -18.884       -8.539       42.354       50.290       27.260     1793.839     2529.089      743.121        1.184        0.253      136.184       23.780        0.030      341.428       16.133      858.492
04/16/2014  21:12:00     -105.052      -12.690      -21.442       55.955       46.533       27.571     3130.984     2165.355      760.154        0.886        0.303      105.816       31.069        0.086      341.455       16.178      858.493
04/16/2014  21:13:00      -98.026      -40.594        2.103       42.379       44.283       26.549     1795.990     1960.973      704.830        0.786        0.223      106.098       23.075        0.047      341.413       16.109      858.495
04/16/2014  21:14:00      -94.777       41.071      -21.412       44.869       34.210       23.840     2013.260     1170.342      568.361        0.744        0.188      103.293       12.976        0.016      341.422       16.124      858.513
04/16/2014  21:15:00      -71.149       13.253       -1.643       25.142       28.482       20.161      632.103      811.202      406.477        0.354        0.092       72.373       12.416        0.029      341.440       16.153      858.513
04/16/2014  21:16:00      -55.064       19.320       -0.288       27.606       31.340       21.680      762.103      982.200      470.005        0.281        0.111       58.355       12.933        0.049      341.438       16.150      858.514
04/16/2014  21:17:00      -76.037       -9.457       -1.526       32.784       23.488       19.288     1074.776      551.672      372.041        0.394        0.100       76.622       16.438        0.046      341.496       16.248      858.509
04/16/2014  21:18:00      -98.766        8.745      -12.368       44.140       46.709       26.064     1948.362     2181.762      679.338        0.740        0.240       99.153       25.218        0.065      341.551       16.342      858.505
04/16/2014  21:19:00      -73.409       57.314       -7.413       48.120       49.858       30.064     2315.535     2485.808      903.874        0.722        0.285       93.133       35.861        0.148      341.536       16.316      858.499
04/16/2014  21:20:00     -103.913       31.236      -14.684       34.122       40.499       21.805     1164.289     1640.162      475.442        0.763        0.164      108.506       18.288        0.028      341.534       16.311      858.491
04/16/2014  21:21:00      -83.325      -18.007       -6.934       27.653       21.675       16.586      764.664      469.807      275.101        0.441        0.075       85.249       17.523        0.042      341.514       16.279      858.484
04/16/2014  21:22:00      -77.950      -10.325      -10.500       22.746       34.703       19.278      517.383     1204.295      371.655        0.419        0.105       78.630        8.251        0.011      341.516       16.281      858.493
04/16/2014  21:23:00      -74.090       -7.127       -3.442       23.951       32.519       16.287      573.639     1057.501      265.265        0.372        0.095       74.432       16.606        0.050      341.435       16.145      858.491
04/16/2014  21:24:00      -61.294      -24.415       -7.380       45.970       28.597       17.900     2113.204      817.779      320.423        0.383        0.163       65.977       17.892        0.074      341.390       16.068      858.486
04/16/2014  21:25:00      -96.365      -45.854       -7.956       35.442       25.379       14.691     1256.162      644.115      215.816        0.678        0.106      106.718        9.563        0.008      341.448       16.167      858.486
04/16/2014  21:26:00     -107.431      -37.447      -10.395       20.803       25.062       14.098      432.765      628.115      198.751        0.716        0.063      113.770       13.651        0.014      341.311       15.935      858.470
04/16/2014  21:27:00      -35.260      -16.600        3.573       29.662       18.541       18.733      879.819      343.768      350.932        0.155        0.079       38.972       13.025        0.112      341.258       15.846      858.478
04/16/2014  21:28:00      -25.617       -2.888       -2.139       27.643       16.249       15.390      764.151      264.014      236.861        0.097        0.063       25.779        8.377        0.106      341.398       16.082      858.491
04/16/2014  21:29:00        5.994      -39.607      -14.749       32.155       37.648       19.182     1033.921     1417.358      367.930        0.232        0.141       40.058       20.370        0.259      341.120       15.611      858.500
04/16/2014  21:30:00       49.280      -18.761        5.338       30.941       25.377       27.871      957.347      643.986      776.770        0.259        0.119       52.730       17.455        0.110      340.712       14.923      858.516
04/16/2014  21:31:00       59.959      -54.428        0.278       26.295       22.384       19.405      691.406      501.053      376.555        0.406        0.078       80.979        9.637        0.014      340.664       14.840      858.547
04/16/2014  21:32:00      -31.566      -41.503       -8.431       49.319       33.770       20.458     2432.402     1140.382      418.542        0.339        0.200       52.143       22.640        0.189      341.265       15.857      858.552
04/16/2014  21:33:00      -63.999      -38.110       -9.954       38.054       30.758       24.430     1448.080      946.025      596.802        0.432        0.150       74.486       10.644        0.020      341.300       15.917      858.559
04/16/2014  21:34:00      -38.625      -82.067       -1.574       41.424       43.439       23.757     1715.910     1886.975      564.407        0.620        0.208       90.702       23.469        0.067      341.419       16.119      858.556
04/16/2014  21:35:00      -77.964      -52.399      -15.603       35.314       40.140       19.677     1247.107     1611.182      387.204        0.616        0.162       93.936       10.639        0.013      341.428       16.132      858.540
04/16/2014  21:36:00        2.163       -9.103        1.121       54.836       22.292       17.876     3007.004      496.927      319.535        0.196        0.191        9.356       16.116        2.967      341.148       15.658      858.536
04/16/2014  21:37:00       60.842      -25.752       17.122       22.213       23.222       21.378      493.396      539.282      457.012        0.307        0.074       66.067       15.871        0.058      340.796       15.064      858.529
04/16/2014  21:38:00       19.599       -1.278       22.385       28.338       13.587       16.718      803.017      184.616      279.487        0.108        0.063       19.640       15.024        0.585      340.850       15.156      858.522
04/16/2014  21:39:00      -56.299      -21.638        1.019       26.399       17.900       11.679      696.929      320.402      136.410        0.240        0.058       60.314       12.623        0.044      341.516       16.282      858.526
04/16/2014  21:40:00     -110.429      -37.919        0.282       30.965       27.229       20.448      958.849      741.409      418.114        0.788        0.106      116.758       11.509        0.010      341.590       16.408      858.530
04/16/2014  21:41:00      -70.420      -40.358        1.279       37.325       25.162       14.578     1393.140      633.106      212.512        0.441        0.112       81.165       13.166        0.026      341.535       16.314      858.528
04/16/2014  21:42:00      -76.650      -30.836        4.766       42.571       22.097       16.585     1812.282      488.285      275.061        0.471        0.129       82.620       19.015        0.053      341.489       16.237      858.527
04/16/2014  21:43:00     -104.547      -18.159       -8.905       26.648       25.402       16.375      710.094      645.265      268.134        0.648        0.081      106.112       17.535        0.027      341.532       16.308      858.525
04/16/2014  21:44:00     -107.844      -23.676       -1.703       36.542       30.916       17.557     1335.318      955.812      308.241        0.740        0.130      110.412       18.563        0.028      341.500       16.255      858.526
04/16/2014  21:45:00      -99.948      -25.024       -4.041       34.257       25.560       20.041     1173.564      653.336      401.635        0.643        0.111      103.033       15.192        0.022      341.403       16.091      858.515
04/16/2014  21:46:00      -71.085      -18.552       -2.006       43.098       25.560       20.668     1857.464      653.291      427.147        0.417        0.147       73.466       23.286        0.100      341.391       16.071      858.518
04/16/2014  21:47:00      -62.694      -38.701        7.969       38.072       32.648       22.146     1449.498     1065.878      490.463        0.425        0.150       73.677       23.899        0.105      341.312       15.937      858.513
04/16/2014  21:48:00     -100.109      -19.283       -7.309       21.272       21.503       12.742      452.489      462.399      162.362        0.576        0.054      101.949        5.636        0.003      341.288       15.897      858.514
04/16/2014  21:49:00      -98.653      -23.077      -10.108       27.698       16.168       13.773      767.189      261.392      189.693        0.579        0.061      101.316        8.631        0.007      341.323       15.954      858.526
04/16/2014  21:50:00      -88.373      -37.987       -0.889       42.131       22.952       19.859     1775.019      526.772      394.371        0.597        0.135       96.192       22.392        0.054      341.312       15.936      858.540
04/16/2014  21:51:00      -37.489      -36.339        6.465       30.775       21.640       13.738      947.124      468.300      188.729        0.219        0.080       52.210       12.006        0.053      341.095       15.569      858.569
04/16/2014  21:52:00      -12.770      -22.132       19.365       37.707       28.389       20.695     1421.789      805.911      428.294        0.184        0.133       25.552       25.062        0.962      340.961       15.343      858.586
04/16/2014  21:53:00      -82.228      -36.480       -0.741       31.239       20.240       14.254      975.877      409.660      203.180        0.484        0.079       89.957       16.732        0.035      341.283       15.888      858.597
04/16/2014  21:54:00      -61.038      -46.174        1.422       44.687       22.484       20.796     1996.885      505.525      432.478        0.440        0.147       76.535       17.634        0.053      341.343       15.990      858.610
04/16/2014  21:55:00      -77.302      -85.938       11.793       53.572       43.864       31.546     2869.949     1924.047      995.126        0.964        0.289      115.589       26.730        0.053      341.305       15.925      858.627
04/16/2014  21:56:00     -115.472      -68.140       -6.887       55.190       39.836       28.307     3045.940     1586.905      801.311        1.173        0.272      134.078       23.832        0.032      341.275       15.874      858.633
04/16/2014  21:57:00     -128.587      -92.442        8.826       72.820       56.549       32.509     5302.801     3197.773     1056.856        1.736        0.478      158.367       36.706        0.054      341.222       15.784      858.655
04/16/2014  21:58:00     -111.888     -105.662       -2.354       41.475       45.646       25.400     1720.155     2083.582      645.150        1.407        0.222      153.894       24.273        0.025      341.219       15.779      858.663
04/16/2014  21:59:00     -135.083      -93.700        5.303       57.499       50.839       34.179     3306.128     2584.612     1168.223        1.706        0.353      164.399       26.161        0.025      341.205       15.758      858.668
04/16/2014  22:00:00     -131.905      -83.042        3.481       66.513       37.716       34.211     4423.939     1422.497     1170.423        1.566        0.351      155.869       34.614        0.049      341.233       15.804      858.681
04/16/2014  22:01:00     -140.543     -127.049        0.145       40.009       40.768       28.263     1600.681     1662.062      798.806        1.998        0.203      189.457       22.673        0.014      341.256       15.841      858.692
04/16/2014  22:02:00      -72.258      -89.721        3.113       43.279       41.736       27.927     1873.087     1741.876      779.924        0.884        0.220      115.200       22.616        0.039      341.185       15.723      858.695
04/16/2014  22:03:00     -123.511     -118.540      -11.587       40.678       29.384       20.949     1654.701      863.423      438.864        1.620        0.148      171.192       19.423        0.013      341.139       15.645      858.696
04/16/2014  22:04:00     -122.391     -107.965       -9.189       60.573       43.217       34.809     3669.036     1867.743     1211.690        1.673        0.337      163.205       30.582        0.035      341.136       15.639      858.689
04/16/2014  22:05:00     -134.634      -95.821       -2.046       50.709       51.229       29.337     2571.388     2624.411      860.637        1.668        0.303      165.251       29.581        0.032      341.107       15.589      858.685
04/16/2014  22:06:00     -135.648     -103.652       -0.150       43.223       42.895       26.258     1868.259     1839.974      689.486        1.677        0.220      170.716       24.172        0.020      341.098       15.575      858.684
04/16/2014  22:07:00      -78.841      -61.865        1.307       47.497       43.306       29.959     2255.988     1875.416      897.544        0.754        0.251      100.216       23.515        0.055      341.060       15.512      858.666
04/16/2014  22:08:00      -93.605      -90.878       -0.081       41.689       31.623       22.517     1737.957     1000.023      507.032        1.013        0.162      130.463       21.139        0.026      341.043       15.484      858.651
04/16/2014  22:09:00     -122.816      -26.670       -6.942       41.611       49.232       22.440     1731.438     2423.762      503.538        1.025        0.233      125.678       20.905        0.028      340.874       15.196      858.651
04/16/2014  22:10:00     -131.479       -1.294       -5.999       46.076       28.020       22.607     2123.003      785.132      511.094        1.037        0.171      131.485       21.484        0.027      340.666       14.844      858.653
04/16/2014  22:11:00     -124.354        3.013       -1.954       47.880       36.761       21.721     2292.496     1351.404      471.814        0.980        0.206      124.390       20.258        0.027      340.586       14.710      858.655
04/16/2014  22:12:00     -139.382      -25.012        2.453       45.061       38.980       27.877     2030.464     1519.426      777.112        1.219        0.216      141.609       28.021        0.039      340.541       14.632      858.652
04/16/2014  22:13:00     -159.499      -63.709        2.838       49.997       38.512       27.695     2499.745     1483.169      767.004        1.713        0.237      171.753       28.115        0.027      340.508       14.576      858.662
04/16/2014  22:14:00     -157.373      -79.764       -8.703       72.088       57.118       28.786     5196.658     3262.414      828.657        2.024        0.464      176.433       32.869        0.035      340.595       14.722      858.686
04/16/2014  22:15:00     -181.537      -73.224       -7.291       43.394       45.687       28.971     1883.053     2087.270      839.319        2.159        0.240      195.748       21.479        0.012      340.573       14.685      858.696
04/16/2014  22:16:00     -153.183      -77.463       -1.117       81.752       44.270       28.794     6683.408     1959.799      829.102        1.947        0.474      171.656       29.457        0.029      340.515       14.587      858.702
04/16/2014  22:17:00     -147.418      -49.210       -6.150       49.475       37.812       24.582     2447.750     1429.751      604.251        1.434        0.224      155.415       16.449        0.011      340.438       14.457      858.710
04/16/2014  22:18:00     -126.276      -50.197       -5.882       57.315       37.324       25.324     3285.037     1393.068      641.292        1.191        0.266      135.887       26.645        0.038      340.472       14.513      858.731
04/16/2014  22:19:00     -106.614      -54.367        0.240       57.696       39.763       19.183     3328.820     1581.115      367.980        0.980        0.264      119.676       16.209        0.018      340.461       14.496      858.746
04/16/2014  22:20:00     -118.377      -18.663       -1.180       60.902       54.035       32.517     3709.030     2919.788     1057.386        1.102        0.384      119.840       31.979        0.071      340.472       14.516      858.747
04/16/2014  22:21:00     -106.748      -18.481       10.510       59.818       51.833       29.847     3578.184     2686.661      890.830        0.950        0.358      108.336       29.799        0.076      340.517       14.593      858.740
04/16/2014  22:22:00     -149.593       -8.651       -4.031       47.842       49.399       26.504     2288.814     2440.231      702.487        1.395        0.272      149.843       25.611        0.029      340.468       14.509      858.745
04/16/2014  22:23:00     -143.282      -54.568       -5.289       49.652       32.879       26.407     2465.365     1080.996      697.351        1.389        0.212      153.321       25.062        0.027      340.432       14.448      858.751
04/16/2014  22:24:00     -128.646      -62.097       -6.350       37.426       29.784       20.141     1400.675      887.112      405.655        1.157        0.135      142.849       15.460        0.012      340.443       14.467      858.747
04/16/2014  22:25:00     -123.559      -36.238      -13.046       38.094       31.739       23.154     1451.139     1007.352      536.129        0.987        0.150      128.764       19.258        0.022      340.374       14.350      858.746
04/16/2014  22:26:00     -115.600      -25.145      -10.920       45.993       31.468       24.986     2115.377      990.219      624.311        0.892        0.186      118.303       26.143        0.049      340.386       14.371      858.752
04/16/2014  22:27:00     -127.459      -30.540       -5.554       44.770       39.757       22.701     2004.373     1580.627      515.314        1.065        0.205      131.067       22.010        0.028      340.296       14.219      858.748
04/16/2014  22:28:00     -117.260      -15.425        0.244       54.106       36.576       24.116     2927.484     1337.805      581.568        0.942        0.242      118.270       29.281        0.061      340.286       14.201      858.737
04/16/2014  22:29:00     -103.643      -14.911        1.716       54.435       36.203       25.915     2963.156     1310.651      671.599        0.796        0.247      104.710       28.765        0.075      340.226       14.101      858.730
04/16/2014  22:30:00      -88.863        2.951       -1.144       47.322       35.962       23.953     2239.364     1293.261      573.769        0.601        0.205       88.912       22.286        0.063      340.210       14.073      858.738
04/16/2014  22:31:00     -101.583      -10.979        2.825       41.686       31.394       22.781     1737.735      985.576      518.995        0.684        0.162      102.174       18.480        0.033      340.161       13.991      858.743
04/16/2014  22:32:00     -113.567      -10.478       -1.743       49.683       36.666       26.947     2468.394     1344.413      726.118        0.877        0.227      114.050       30.972        0.074      340.073       13.843      858.743
04/16/2014  22:33:00      -80.728      -20.639       -1.175       48.343       45.649       22.674     2337.082     2083.842      514.088        0.594        0.247       83.324       19.946        0.057      340.152       13.976      858.741
04/16/2014  22:34:00     -149.260      -32.436      -12.194       28.624       37.890       18.321      819.315     1435.666      335.660        1.303        0.130      152.744       16.579        0.012      340.193       14.044      858.746
04/16/2014  22:35:00     -126.019      -77.910       -7.472       38.298       34.983       25.937     1466.741     1223.786      672.736        1.268        0.168      148.158       21.729        0.022      340.156       13.982      858.746
04/16/2014  22:36:00     -134.360      -74.012       -6.160       43.538       35.038       24.659     1895.565     1227.638      608.046        1.365        0.187      153.397       20.335        0.018      340.114       13.912      858.729
04/16/2014  22:37:00     -142.355      -77.605       -4.352       49.378       39.164       28.318     2438.180     1533.797      801.895        1.554        0.239      162.135       22.987        0.020      340.142       13.957      858.725
04/16/2014  22:38:00      -95.748      -30.973        7.795       56.374       57.921       32.050     3178.082     3354.885     1027.206        0.887        0.378      100.633       30.586        0.092      340.200       14.056      858.730
04/16/2014  22:39:00     -124.042       -8.936      -10.942       44.441       39.918       22.435     1975.037     1593.413      503.315        0.983        0.204      124.363       16.992        0.019      340.335       14.285      858.733
04/16/2014  22:40:00     -135.734      -11.635      -11.353       39.811       45.605       23.121     1584.954     2079.792      534.580        1.144        0.210      136.232       26.023        0.036      340.155       13.981      858.747
04/16/2014  22:41:00     -138.627       -8.288      -11.631       41.265       40.203       22.260     1702.771     1616.269      495.512        1.162        0.191      138.874       21.609        0.024      340.157       13.984      858.772
04/16/2014  22:42:00      -97.272        6.092      -10.014       34.649       33.798       23.217     1200.550     1142.317      539.030        0.624        0.144       97.463       15.955        0.027      340.286       14.202      858.801
04/16/2014  22:43:00     -104.473      -10.241      -12.631       25.880       22.273       18.001      669.792      496.077      324.052        0.633        0.074      104.973       10.276        0.010      340.165       13.996      858.817
04/16/2014  22:44:00      -70.296      -22.162       -3.327       32.755       24.321       15.778     1072.881      591.529      248.955        0.368        0.096       73.706       14.099        0.037      340.150       13.970      858.836
04/16/2014  22:45:00      -52.739      -36.552        0.945       41.678       21.634       16.112     1737.039      468.033      259.592        0.329        0.123       64.167       14.995        0.055      340.139       13.954      858.838
04/16/2014  22:46:00      -70.378      -42.271        3.237       37.394       32.778       18.635     1398.285     1074.421      347.247        0.478        0.141       82.097       18.777        0.052      340.165       13.996      858.835
04/16/2014  22:47:00      -80.838      -58.495       -6.258       41.937       26.942       15.398     1758.706      725.865      237.084        0.636        0.136       99.782       17.414        0.030      340.183       14.027      858.821
04/16/2014  22:48:00      -69.288      -48.976       -2.935       36.970       32.499       21.007     1366.787     1056.171      441.286        0.504        0.143       84.850       19.779        0.054      340.158       13.985      858.812
04/16/2014  22:49:00     -100.847      -48.731        0.997       40.650       20.971       15.213     1652.399      439.769      231.444        0.743        0.116      112.004       13.338        0.014      340.096       13.882      858.816
04/16/2014  22:50:00     -108.657      -61.199        1.432       43.174       25.938       20.510     1864.003      672.775      420.678        0.925        0.148      124.706       19.307        0.024      340.119       13.918      858.813
04/16/2014  22:51:00     -127.166      -49.915       -2.755       31.853       36.154       17.679     1014.587     1307.138      312.537        1.065        0.132      136.612       18.615        0.019      340.046       13.795      858.807
04/16/2014  22:52:00     -124.678      -54.056      -13.073       26.180       20.716       13.568      685.374      429.157      184.103        0.997        0.065      135.892       11.742        0.007      340.116       13.915      858.812
04/16/2014  22:53:00     -136.619      -52.835       -9.802       26.954       23.637       16.797      726.504      558.729      282.142        1.156        0.078      146.479       16.291        0.012      340.066       13.829      858.817
04/16/2014  22:54:00     -137.528      -28.533       -8.413       24.135       31.758       15.645      582.475     1008.568      244.751        1.082        0.092      140.457       11.432        0.007      340.094       13.876      858.815
04/16/2014  22:55:00      -95.176        1.386        1.312       60.268       36.142       29.316     3632.175     1306.262      859.440        0.743        0.290       95.186       36.928        0.151      339.942       13.623      858.814
04/16/2014  22:56:00     -130.332        7.889       -3.423       43.976       33.570       23.625     1933.883     1126.970      558.139        1.034        0.181      130.570       23.175        0.032      340.081       13.856      858.815
04/16/2014  22:57:00      -68.856       -1.066        2.382       41.843       36.148       23.134     1750.853     1306.648      535.198        0.417        0.180       68.864       23.747        0.119      340.120       13.922      858.826
04/16/2014  22:58:00     -109.571       -9.703       -0.888       37.743       34.559       24.079     1424.522     1194.296      579.808        0.765        0.160      110.000       20.009        0.033      340.187       14.035      858.828
04/16/2014  22:59:00      -80.070      -44.029       -1.455       36.543       33.312       17.019     1335.400     1109.681      289.662        0.554        0.137       91.377       15.931        0.030      339.963       13.656      858.825
04/16/2014  23:00:00     -135.737      -50.280       -4.967       33.648       19.600       19.097     1132.208      384.168      364.689        1.143        0.094      144.750       18.933        0.017      339.890       13.534      858.829
04/16/2014  23:01:00      -81.423      -71.912        1.025       40.303       37.057       19.828     1624.331     1373.190      393.148        0.760        0.170      108.633       17.161        0.025      340.032       13.773      858.844
04/16/2014  23:02:00      -87.031      -67.163       -1.388       34.903       27.525       22.288     1218.227      757.605      496.743        0.728        0.124      109.933       16.346        0.022      340.122       13.925      858.844
04/16/2014  23:03:00      -70.806      -60.083        9.891       59.290       35.450       27.887     3515.339     1256.718      777.704        0.713        0.277       92.863       28.234        0.092      340.047       13.798      858.840
04/16/2014  23:04:00     -107.524      -74.996        5.133       53.466       44.487       30.958     2858.629     1979.105      958.374        1.150        0.290      131.094       27.434        0.044      340.025       13.762      858.832
04/16/2014  23:05:00     -117.680      -44.811        2.566       44.770       42.206       24.417     2004.371     1781.353      596.167        1.012        0.219      125.923       22.148        0.031      340.019       13.752      858.833
04/16/2014  23:06:00     -102.792      -53.933       -6.581       38.736       29.186       18.807     1500.443      851.848      353.709        0.811        0.135      116.081       15.093        0.017      340.057       13.814      858.827
04/16/2014  23:07:00     -103.824      -49.072       -0.545       53.423       33.805       20.352     2854.037     1142.746      414.219        0.880        0.221      114.836       23.542        0.042      340.075       13.845      858.808
04/16/2014  23:08:00     -137.472      -23.411       -4.691       35.647       34.747       20.868     1270.743     1207.372      435.468        1.119        0.146      139.451       14.389        0.011      340.027       13.764      858.792
04/16/2014  23:09:00     -116.700      -18.323       -3.033       29.812       28.414       20.779      888.747      807.354      431.749        0.805        0.106      118.130       15.211        0.017      339.958       13.649      858.761
04/16/2014  23:10:00     -109.774      -28.524       -0.954       38.917       46.266       22.575     1514.552     2140.520      509.629        0.851        0.208      113.420       21.768        0.037      340.030       13.769      858.744
04/16/2014  23:11:00     -141.766      -17.844       -6.933       32.921       34.622       24.233     1083.812     1198.698      587.258        1.167        0.143      142.884       20.608        0.021      339.916       13.578      858.725
04/16/2014  23:12:00     -121.121       -6.404        6.483       50.942       37.674       24.888     2595.125     1419.364      619.395        0.969        0.232      121.290       24.833        0.042      339.889       13.531      858.703
04/16/2014  23:13:00     -142.675      -26.140       -4.368       35.612       31.375       18.591     1268.191      984.383      345.609        1.183        0.130      145.049       15.283        0.011      339.816       13.410      858.692
04/16/2014  23:14:00     -151.822      -25.464       -7.704       34.341       31.884       20.251     1179.337     1016.574      410.103        1.318        0.130      153.943       19.861        0.017      339.771       13.333      858.691
04/16/2014  23:15:00     -135.121      -28.434       -5.077       39.761       32.466       22.684     1580.969     1054.035      514.549        1.112        0.157      138.081       20.129        0.021      339.800       13.384      858.687
04/16/2014  23:16:00     -118.660      -14.028       -9.937       42.121       33.783       21.405     1774.197     1141.268      458.193        0.887        0.169      119.486       21.148        0.031      339.876       13.510      858.680
04/16/2014  23:17:00      -96.745      -25.875        0.553       51.334       39.169       23.579     2635.216     1534.221      555.951        0.738        0.236      100.145       25.106        0.063      339.778       13.344      858.687
04/16/2014  23:18:00     -141.069      -71.268       -1.720       30.616       20.118       17.550      937.329      404.741      307.987        1.332        0.083      158.049       16.760        0.011      339.772       13.333      858.690
04/16/2014  23:19:00     -113.662      -62.394       -0.317       38.322       34.407       23.920     1468.537     1183.815      572.144        1.002        0.161      129.661       20.671        0.025      339.798       13.379      858.694
04/16/2014  23:20:00     -113.246      -55.265       -2.889       39.574       23.960       16.375     1566.132      574.084      268.142        0.915        0.120      126.011        9.869        0.006      339.951       13.636      858.694
04/16/2014  23:21:00      -96.500      -51.594        3.348       40.932       30.129       21.583     1675.460      907.732      465.816        0.752        0.152      109.426       20.979        0.037      339.916       13.577      858.699
04/16/2014  23:22:00      -56.782      -28.563       10.656       62.993       30.367       21.968     3968.065      922.170      482.579        0.476        0.269       63.561       27.030        0.181      339.901       13.553      858.709
04/16/2014  23:23:00      -76.884      -48.278        6.426       50.791       34.629       28.106     2579.704     1199.144      789.961        0.643        0.228       90.785       19.337        0.045      339.864       13.491      858.701
04/16/2014  23:24:00      -95.936      -63.097        3.034       59.405       35.523       23.315     3528.923     1261.898      543.599        0.926        0.267      114.826       26.645        0.054      339.858       13.479      858.695
04/16/2014  23:25:00      -84.154      -55.665        6.043       58.784       38.612       23.363     3455.584     1490.876      545.837        0.785        0.275      100.899       29.063        0.083      339.891       13.535      858.684
04/16/2014  23:26:00      -87.882      -70.939       -6.129       38.038       28.496       23.569     1446.907      812.039      555.499        0.780        0.141      112.941       19.890        0.031      339.910       13.567      858.693
04/16/2014  23:27:00     -114.087      -64.870       -3.285       46.270       26.094       19.867     2140.952      680.876      394.688        1.022        0.161      131.240       18.376        0.020      339.918       13.579      858.680
04/16/2014  23:28:00     -112.723      -52.498       -2.537       33.575       30.256       15.558     1127.282      915.447      242.064        0.888        0.114      124.349       12.203        0.010      339.913       13.573      858.669
04/16/2014  23:29:00      -41.482      -41.982        8.025       46.744       28.912       24.856     2185.043      835.882      617.799        0.359        0.182       59.019       24.117        0.167      339.898       13.547      858.671
04/16/2014  23:30:00      -91.745      -35.085       -2.821       43.545       19.394       21.967     1896.148      376.129      482.570        0.620        0.138       98.224       25.893        0.069      339.864       13.491      858.674
04/16/2014  23:31:00     -102.344      -48.687       -0.711       22.776       23.219       16.491      518.751      539.118      271.957        0.709        0.066      113.335       10.717        0.009      339.863       13.490      858.672
04/16/2014  23:32:00     -123.666      -47.173       -4.571       25.378       22.048       16.682      644.022      486.100      278.295        0.947        0.070      132.358        9.752        0.005      339.828       13.428      858.672
04/16/2014  23:33:00      -63.925      -11.335       10.554       40.975       30.737       23.329     1678.921      944.765      544.252        0.375        0.158       64.923       24.325        0.140      339.776       13.343      858.675
04/16/2014  23:34:00      -76.611      -50.599       -1.165       24.156       21.391       12.433      583.490      457.596      154.582        0.481        0.060       91.812        9.556        0.011      339.890       13.532      858.704
04/16/2014  23:35:00     -109.971      -43.866       -4.697       22.830       20.405       15.501      521.192      416.363      240.270        0.761        0.059      118.397       11.937        0.010      339.799       13.379      858.725
04/16/2014  23:36:00      -94.316      -41.429      -16.095       30.629       23.801       16.533      938.166      566.481      273.333        0.632        0.089      103.014        8.731        0.007      339.858       13.480      858.741
04/16/2014  23:37:00      -85.178      -44.492       -3.877       43.703       25.778       18.977     1909.985      664.504      360.138        0.609        0.147       96.098       21.662        0.051      339.797       13.376      858.758
04/16/2014  23:38:00      -81.385      -45.774       -0.705       36.397       21.815       20.706     1324.743      475.898      428.722        0.547        0.111       93.374       19.637        0.044      339.787       13.361      858.771
04/16/2014  23:39:00     -112.379      -38.218       -9.587       35.598       29.568       18.790     1267.199      874.255      353.073        0.834        0.125      118.700       21.161        0.032      339.735       13.272      858.781
04/16/2014  23:40:00     -130.551      -28.365      -15.447       15.209       19.273       15.536      231.318      371.457      241.354        0.947        0.042      133.597        8.625        0.004      339.688       13.192      858.791
04/16/2014  23:41:00     -119.823      -30.328       -7.323       27.292       20.964       14.230      744.843      439.483      202.499        0.836        0.069      123.601       11.001        0.008      339.589       13.025      858.803
04/16/2014  23:42:00     -124.755      -35.290       -6.859       30.472       20.398       13.706      928.525      416.059      187.849        0.919        0.077      129.651       11.121        0.007      339.461       12.810      858.804
04/16/2014  23:43:00      -58.625      -61.693       -3.019       38.408       18.747       16.917     1475.180      351.466      286.194        0.468        0.106       85.106       19.288        0.051      339.523       12.914      858.800
04/16/2014  23:44:00      -39.921      -51.210       -8.024       29.574       18.747       15.800      874.648      351.456      249.649        0.288        0.074       64.932       10.814        0.028      339.584       13.017      858.795
04/16/2014  23:45:00      -20.179      -50.916      -11.717       17.107       17.801       16.053      292.662      316.872      257.712        0.200        0.043       54.769        9.126        0.028      339.581       13.012      858.792
04/16/2014  23:46:00      -22.376      -14.769       -0.124       26.307       12.543       11.011      692.076      157.331      121.248        0.084        0.049       26.811        7.284        0.074      339.615       13.070      858.792
04/16/2014  23:47:00      -27.007      -24.009       10.906       27.931       19.532       18.344      780.134      381.480      336.498        0.146        0.075       36.136       17.344        0.230      339.602       13.047      858.796
04/16/2014  23:48:00      -13.939      -12.635       12.105       14.669       12.536        8.233      215.187      157.158       67.789        0.047        0.022       18.813        8.118        0.186      339.546       12.954      858.805
04/16/2014  23:49:00      -23.089        0.553        2.140       19.671        7.685        8.467      386.930       59.062       71.691        0.053        0.026       23.095        8.489        0.135      339.501       12.877      858.808
04/16/2014  23:50:00       -4.304        3.069        5.377       10.309        6.817        7.876      106.276       46.478       62.037        0.014        0.011        5.286        6.174        1.364      339.519       12.908      858.811
04/16/2014  23:51:00       20.343        9.362        4.196       12.723       13.163        9.779      161.881      173.270       95.631        0.047        0.022       22.394        5.107        0.052      339.340       12.607      858.821
04/16/2014  23:52:00       21.535       12.898        1.861        8.257        6.383        6.556       68.174       40.749       42.986        0.039        0.008       25.102        2.406        0.009      339.231       12.423      858.834
04/16/2014  23:53:00       -1.845        1.171        4.260        6.565        4.563        8.467       43.102       20.821       71.684        0.008        0.007        2.185        5.495        6.321      339.258       12.468      858.856
04/16/2014  23:54:00       -8.818       -1.633       -0.577       11.884       12.590        7.255      141.241      158.508       52.632        0.022        0.018        8.968        6.291        0.492      339.458       12.806      858.866
04/16/2014  23:55:00      -50.109      -25.713      -10.990        8.680        9.223        7.530       75.343       85.063       56.708        0.175        0.011       56.321        3.062        0.003      339.557       12.971      858.874
04/16/2014  23:56:00      -63.533      -22.050      -13.255       13.912       17.090        9.576      193.538      292.071       91.702        0.264        0.029       67.251        5.350        0.006      339.620       13.080      858.875
04/16/2014  23:57:00      -44.074      -16.113       -7.109       15.560       15.335       11.260      242.119      235.154      126.785        0.143        0.030       46.926        8.722        0.035      339.581       13.013      858.869
04/16/2014  23:58:00      -58.176      -27.350       -8.004       23.539       11.119       11.190      554.061      123.623      125.210        0.250        0.040       64.284       10.191        0.025      339.552       12.962      858.871
04/16/2014  23:59:00      -64.886      -30.200      -15.104       11.380       11.556        7.122      129.498      133.551       50.730        0.283        0.016       71.570        4.586        0.004      339.442       12.781      858.881
